<?xml version="1.0" encoding="UTF-8"?>
<gpx version="1.1" creator="RoadTrp.org" xmlns="http://www.topografix.com/GPX/1/1">
<trk><name>Pegram: Easy-Int-Easy — Johnston Woods — July 29, 2026</name><trkseg>
<trkpt lat="35.137246" lon="-84.951669"><ele>267.0</ele><time>2026-07-29T20:34:22Z</time></trkpt>
<trkpt lat="35.13722" lon="-84.951653"><ele>268.2</ele><time>2026-07-29T20:34:27Z</time></trkpt>
<trkpt lat="35.137228" lon="-84.95161"><ele>268.2</ele><time>2026-07-29T20:34:31Z</time></trkpt>
<trkpt lat="35.137237" lon="-84.951577"><ele>267.9</ele><time>2026-07-29T20:34:35Z</time></trkpt>
<trkpt lat="35.137237" lon="-84.951576"><ele>268.2</ele><time>2026-07-29T20:34:36Z</time></trkpt>
<trkpt lat="35.137235" lon="-84.95158"><ele>268.5</ele><time>2026-07-29T20:34:39Z</time></trkpt>
<trkpt lat="35.137235" lon="-84.951576"><ele>268.2</ele><time>2026-07-29T20:34:40Z</time></trkpt>
<trkpt lat="35.137237" lon="-84.951544"><ele>268.2</ele><time>2026-07-29T20:34:44Z</time></trkpt>
<trkpt lat="35.137235" lon="-84.951542"><ele>268.5</ele><time>2026-07-29T20:34:45Z</time></trkpt>
<trkpt lat="35.137234" lon="-84.951541"><ele>268.8</ele><time>2026-07-29T20:34:46Z</time></trkpt>
<trkpt lat="35.137235" lon="-84.951543"><ele>268.8</ele><time>2026-07-29T20:34:47Z</time></trkpt>
<trkpt lat="35.137232" lon="-84.951541"><ele>268.8</ele><time>2026-07-29T20:34:48Z</time></trkpt>
<trkpt lat="35.13723" lon="-84.951537"><ele>268.8</ele><time>2026-07-29T20:34:51Z</time></trkpt>
<trkpt lat="35.137237" lon="-84.951535"><ele>268.8</ele><time>2026-07-29T20:34:52Z</time></trkpt>
<trkpt lat="35.137261" lon="-84.951505"><ele>270.1</ele><time>2026-07-29T20:34:56Z</time></trkpt>
<trkpt lat="35.137278" lon="-84.951473"><ele>270.4</ele><time>2026-07-29T20:34:59Z</time></trkpt>
<trkpt lat="35.137303" lon="-84.951443"><ele>270.1</ele><time>2026-07-29T20:35:03Z</time></trkpt>
<trkpt lat="35.137331" lon="-84.951422"><ele>271.0</ele><time>2026-07-29T20:35:08Z</time></trkpt>
<trkpt lat="35.137362" lon="-84.951407"><ele>271.3</ele><time>2026-07-29T20:35:12Z</time></trkpt>
<trkpt lat="35.137395" lon="-84.951412"><ele>271.6</ele><time>2026-07-29T20:35:16Z</time></trkpt>
<trkpt lat="35.13743" lon="-84.951434"><ele>270.1</ele><time>2026-07-29T20:35:20Z</time></trkpt>
<trkpt lat="35.137459" lon="-84.951464"><ele>269.4</ele><time>2026-07-29T20:35:23Z</time></trkpt>
<trkpt lat="35.137482" lon="-84.951502"><ele>270.1</ele><time>2026-07-29T20:35:26Z</time></trkpt>
<trkpt lat="35.1375" lon="-84.951531"><ele>271.0</ele><time>2026-07-29T20:35:29Z</time></trkpt>
<trkpt lat="35.13751" lon="-84.951566"><ele>271.3</ele><time>2026-07-29T20:35:32Z</time></trkpt>
<trkpt lat="35.137518" lon="-84.951601"><ele>272.2</ele><time>2026-07-29T20:35:35Z</time></trkpt>
<trkpt lat="35.137509" lon="-84.951635"><ele>273.1</ele><time>2026-07-29T20:35:38Z</time></trkpt>
<trkpt lat="35.137516" lon="-84.951675"><ele>272.8</ele><time>2026-07-29T20:35:41Z</time></trkpt>
<trkpt lat="35.137543" lon="-84.951706"><ele>274.0</ele><time>2026-07-29T20:35:44Z</time></trkpt>
<trkpt lat="35.137572" lon="-84.951732"><ele>274.3</ele><time>2026-07-29T20:35:47Z</time></trkpt>
<trkpt lat="35.137594" lon="-84.951752"><ele>274.3</ele><time>2026-07-29T20:35:49Z</time></trkpt>
<trkpt lat="35.137631" lon="-84.951766"><ele>272.2</ele><time>2026-07-29T20:35:52Z</time></trkpt>
<trkpt lat="35.137654" lon="-84.951787"><ele>271.3</ele><time>2026-07-29T20:35:55Z</time></trkpt>
<trkpt lat="35.137673" lon="-84.951824"><ele>270.7</ele><time>2026-07-29T20:35:58Z</time></trkpt>
<trkpt lat="35.137695" lon="-84.95185"><ele>268.8</ele><time>2026-07-29T20:36:01Z</time></trkpt>
<trkpt lat="35.13772" lon="-84.951876"><ele>269.1</ele><time>2026-07-29T20:36:04Z</time></trkpt>
<trkpt lat="35.137746" lon="-84.951899"><ele>269.1</ele><time>2026-07-29T20:36:07Z</time></trkpt>
<trkpt lat="35.137778" lon="-84.95192"><ele>269.7</ele><time>2026-07-29T20:36:10Z</time></trkpt>
<trkpt lat="35.137808" lon="-84.951946"><ele>270.4</ele><time>2026-07-29T20:36:13Z</time></trkpt>
<trkpt lat="35.137838" lon="-84.951965"><ele>269.4</ele><time>2026-07-29T20:36:16Z</time></trkpt>
<trkpt lat="35.137862" lon="-84.951989"><ele>269.1</ele><time>2026-07-29T20:36:19Z</time></trkpt>
<trkpt lat="35.137889" lon="-84.952016"><ele>269.4</ele><time>2026-07-29T20:36:22Z</time></trkpt>
<trkpt lat="35.137916" lon="-84.952039"><ele>269.4</ele><time>2026-07-29T20:36:25Z</time></trkpt>
<trkpt lat="35.137947" lon="-84.952059"><ele>269.4</ele><time>2026-07-29T20:36:28Z</time></trkpt>
<trkpt lat="35.137978" lon="-84.952078"><ele>270.4</ele><time>2026-07-29T20:36:31Z</time></trkpt>
<trkpt lat="35.138004" lon="-84.952092"><ele>269.1</ele><time>2026-07-29T20:36:33Z</time></trkpt>
<trkpt lat="35.138024" lon="-84.952116"><ele>269.1</ele><time>2026-07-29T20:36:35Z</time></trkpt>
<trkpt lat="35.138048" lon="-84.952139"><ele>268.8</ele><time>2026-07-29T20:36:37Z</time></trkpt>
<trkpt lat="35.138067" lon="-84.952167"><ele>268.8</ele><time>2026-07-29T20:36:39Z</time></trkpt>
<trkpt lat="35.138086" lon="-84.952207"><ele>269.1</ele><time>2026-07-29T20:36:42Z</time></trkpt>
<trkpt lat="35.138106" lon="-84.952244"><ele>270.1</ele><time>2026-07-29T20:36:45Z</time></trkpt>
<trkpt lat="35.138133" lon="-84.952272"><ele>271.0</ele><time>2026-07-29T20:36:48Z</time></trkpt>
<trkpt lat="35.138161" lon="-84.952305"><ele>271.3</ele><time>2026-07-29T20:36:51Z</time></trkpt>
<trkpt lat="35.138193" lon="-84.952327"><ele>272.5</ele><time>2026-07-29T20:36:54Z</time></trkpt>
<trkpt lat="35.138217" lon="-84.952355"><ele>272.8</ele><time>2026-07-29T20:36:57Z</time></trkpt>
<trkpt lat="35.138252" lon="-84.952372"><ele>272.5</ele><time>2026-07-29T20:37:00Z</time></trkpt>
<trkpt lat="35.138278" lon="-84.952382"><ele>272.5</ele><time>2026-07-29T20:37:02Z</time></trkpt>
<trkpt lat="35.138314" lon="-84.95239"><ele>273.1</ele><time>2026-07-29T20:37:05Z</time></trkpt>
<trkpt lat="35.138353" lon="-84.952398"><ele>272.5</ele><time>2026-07-29T20:37:08Z</time></trkpt>
<trkpt lat="35.138382" lon="-84.952395"><ele>271.3</ele><time>2026-07-29T20:37:10Z</time></trkpt>
<trkpt lat="35.138409" lon="-84.952392"><ele>271.6</ele><time>2026-07-29T20:37:12Z</time></trkpt>
<trkpt lat="35.138446" lon="-84.952393"><ele>271.9</ele><time>2026-07-29T20:37:15Z</time></trkpt>
<trkpt lat="35.138484" lon="-84.952404"><ele>271.6</ele><time>2026-07-29T20:37:18Z</time></trkpt>
<trkpt lat="35.13852" lon="-84.952419"><ele>270.7</ele><time>2026-07-29T20:37:21Z</time></trkpt>
<trkpt lat="35.138558" lon="-84.952433"><ele>271.6</ele><time>2026-07-29T20:37:24Z</time></trkpt>
<trkpt lat="35.138597" lon="-84.952431"><ele>271.6</ele><time>2026-07-29T20:37:27Z</time></trkpt>
<trkpt lat="35.138632" lon="-84.952411"><ele>270.1</ele><time>2026-07-29T20:37:30Z</time></trkpt>
<trkpt lat="35.138655" lon="-84.952392"><ele>269.4</ele><time>2026-07-29T20:37:32Z</time></trkpt>
<trkpt lat="35.138676" lon="-84.95237"><ele>271.0</ele><time>2026-07-29T20:37:34Z</time></trkpt>
<trkpt lat="35.138703" lon="-84.952339"><ele>270.4</ele><time>2026-07-29T20:37:37Z</time></trkpt>
<trkpt lat="35.138728" lon="-84.952304"><ele>270.7</ele><time>2026-07-29T20:37:40Z</time></trkpt>
<trkpt lat="35.138756" lon="-84.952268"><ele>271.3</ele><time>2026-07-29T20:37:43Z</time></trkpt>
<trkpt lat="35.138776" lon="-84.952232"><ele>272.5</ele><time>2026-07-29T20:37:46Z</time></trkpt>
<trkpt lat="35.138782" lon="-84.952189"><ele>273.7</ele><time>2026-07-29T20:37:49Z</time></trkpt>
<trkpt lat="35.138781" lon="-84.952188"><ele>274.9</ele><time>2026-07-29T20:37:50Z</time></trkpt>
<trkpt lat="35.138777" lon="-84.952191"><ele>274.9</ele><time>2026-07-29T20:37:54Z</time></trkpt>
<trkpt lat="35.138772" lon="-84.95218"><ele>274.9</ele><time>2026-07-29T20:37:55Z</time></trkpt>
<trkpt lat="35.138745" lon="-84.952143"><ele>275.2</ele><time>2026-07-29T20:37:58Z</time></trkpt>
<trkpt lat="35.138722" lon="-84.952122"><ele>275.5</ele><time>2026-07-29T20:38:00Z</time></trkpt>
<trkpt lat="35.138701" lon="-84.952096"><ele>276.1</ele><time>2026-07-29T20:38:02Z</time></trkpt>
<trkpt lat="35.13868" lon="-84.952064"><ele>277.4</ele><time>2026-07-29T20:38:04Z</time></trkpt>
<trkpt lat="35.13866" lon="-84.952037"><ele>278.3</ele><time>2026-07-29T20:38:06Z</time></trkpt>
<trkpt lat="35.138641" lon="-84.952008"><ele>279.2</ele><time>2026-07-29T20:38:08Z</time></trkpt>
<trkpt lat="35.138622" lon="-84.951982"><ele>279.5</ele><time>2026-07-29T20:38:10Z</time></trkpt>
<trkpt lat="35.138595" lon="-84.951967"><ele>279.5</ele><time>2026-07-29T20:38:12Z</time></trkpt>
<trkpt lat="35.138557" lon="-84.951953"><ele>279.8</ele><time>2026-07-29T20:38:15Z</time></trkpt>
<trkpt lat="35.138519" lon="-84.951941"><ele>279.5</ele><time>2026-07-29T20:38:18Z</time></trkpt>
<trkpt lat="35.138491" lon="-84.951931"><ele>279.2</ele><time>2026-07-29T20:38:20Z</time></trkpt>
<trkpt lat="35.138462" lon="-84.951922"><ele>278.3</ele><time>2026-07-29T20:38:22Z</time></trkpt>
<trkpt lat="35.138422" lon="-84.951903"><ele>278.9</ele><time>2026-07-29T20:38:25Z</time></trkpt>
<trkpt lat="35.138384" lon="-84.951894"><ele>278.6</ele><time>2026-07-29T20:38:28Z</time></trkpt>
<trkpt lat="35.13835" lon="-84.95188"><ele>279.5</ele><time>2026-07-29T20:38:31Z</time></trkpt>
<trkpt lat="35.138318" lon="-84.951859"><ele>278.3</ele><time>2026-07-29T20:38:34Z</time></trkpt>
<trkpt lat="35.138293" lon="-84.951841"><ele>278.3</ele><time>2026-07-29T20:38:36Z</time></trkpt>
<trkpt lat="35.138255" lon="-84.951825"><ele>279.5</ele><time>2026-07-29T20:38:39Z</time></trkpt>
<trkpt lat="35.138229" lon="-84.951795"><ele>280.7</ele><time>2026-07-29T20:38:42Z</time></trkpt>
<trkpt lat="35.138221" lon="-84.951753"><ele>278.9</ele><time>2026-07-29T20:38:45Z</time></trkpt>
<trkpt lat="35.138224" lon="-84.951709"><ele>278.3</ele><time>2026-07-29T20:38:48Z</time></trkpt>
<trkpt lat="35.138233" lon="-84.951664"><ele>276.8</ele><time>2026-07-29T20:38:51Z</time></trkpt>
<trkpt lat="35.138232" lon="-84.951617"><ele>276.8</ele><time>2026-07-29T20:38:54Z</time></trkpt>
<trkpt lat="35.138224" lon="-84.951585"><ele>276.5</ele><time>2026-07-29T20:38:56Z</time></trkpt>
<trkpt lat="35.138215" lon="-84.951538"><ele>275.8</ele><time>2026-07-29T20:38:59Z</time></trkpt>
<trkpt lat="35.138217" lon="-84.951493"><ele>276.5</ele><time>2026-07-29T20:39:02Z</time></trkpt>
<trkpt lat="35.138245" lon="-84.951466"><ele>274.9</ele><time>2026-07-29T20:39:05Z</time></trkpt>
<trkpt lat="35.138285" lon="-84.951464"><ele>274.6</ele><time>2026-07-29T20:39:08Z</time></trkpt>
<trkpt lat="35.138313" lon="-84.951462"><ele>273.7</ele><time>2026-07-29T20:39:10Z</time></trkpt>
<trkpt lat="35.138345" lon="-84.951468"><ele>274.6</ele><time>2026-07-29T20:39:12Z</time></trkpt>
<trkpt lat="35.138373" lon="-84.951477"><ele>273.1</ele><time>2026-07-29T20:39:14Z</time></trkpt>
<trkpt lat="35.138409" lon="-84.951486"><ele>271.9</ele><time>2026-07-29T20:39:17Z</time></trkpt>
<trkpt lat="35.138442" lon="-84.951481"><ele>270.7</ele><time>2026-07-29T20:39:20Z</time></trkpt>
<trkpt lat="35.138482" lon="-84.951482"><ele>270.7</ele><time>2026-07-29T20:39:23Z</time></trkpt>
<trkpt lat="35.13852" lon="-84.951489"><ele>271.0</ele><time>2026-07-29T20:39:26Z</time></trkpt>
<trkpt lat="35.138546" lon="-84.951501"><ele>272.2</ele><time>2026-07-29T20:39:28Z</time></trkpt>
<trkpt lat="35.138582" lon="-84.951516"><ele>272.2</ele><time>2026-07-29T20:39:31Z</time></trkpt>
<trkpt lat="35.13862" lon="-84.951532"><ele>272.8</ele><time>2026-07-29T20:39:34Z</time></trkpt>
<trkpt lat="35.13866" lon="-84.951541"><ele>273.7</ele><time>2026-07-29T20:39:37Z</time></trkpt>
<trkpt lat="35.138699" lon="-84.951541"><ele>273.7</ele><time>2026-07-29T20:39:40Z</time></trkpt>
<trkpt lat="35.138738" lon="-84.951547"><ele>274.0</ele><time>2026-07-29T20:39:43Z</time></trkpt>
<trkpt lat="35.138768" lon="-84.951567"><ele>275.5</ele><time>2026-07-29T20:39:46Z</time></trkpt>
<trkpt lat="35.138798" lon="-84.951586"><ele>274.0</ele><time>2026-07-29T20:39:49Z</time></trkpt>
<trkpt lat="35.138823" lon="-84.951615"><ele>272.5</ele><time>2026-07-29T20:39:52Z</time></trkpt>
<trkpt lat="35.138851" lon="-84.951653"><ele>272.5</ele><time>2026-07-29T20:39:55Z</time></trkpt>
<trkpt lat="35.138876" lon="-84.951687"><ele>271.3</ele><time>2026-07-29T20:39:58Z</time></trkpt>
<trkpt lat="35.138902" lon="-84.951723"><ele>271.3</ele><time>2026-07-29T20:40:01Z</time></trkpt>
<trkpt lat="35.138922" lon="-84.951762"><ele>271.9</ele><time>2026-07-29T20:40:04Z</time></trkpt>
<trkpt lat="35.138937" lon="-84.951803"><ele>272.2</ele><time>2026-07-29T20:40:07Z</time></trkpt>
<trkpt lat="35.13895" lon="-84.951842"><ele>272.8</ele><time>2026-07-29T20:40:10Z</time></trkpt>
<trkpt lat="35.138973" lon="-84.951876"><ele>273.4</ele><time>2026-07-29T20:40:13Z</time></trkpt>
<trkpt lat="35.139" lon="-84.951906"><ele>274.0</ele><time>2026-07-29T20:40:16Z</time></trkpt>
<trkpt lat="35.139033" lon="-84.951912"><ele>274.6</ele><time>2026-07-29T20:40:19Z</time></trkpt>
<trkpt lat="35.139062" lon="-84.951897"><ele>277.4</ele><time>2026-07-29T20:40:22Z</time></trkpt>
<trkpt lat="35.139092" lon="-84.951876"><ele>277.7</ele><time>2026-07-29T20:40:25Z</time></trkpt>
<trkpt lat="35.139117" lon="-84.951841"><ele>279.2</ele><time>2026-07-29T20:40:28Z</time></trkpt>
<trkpt lat="35.139143" lon="-84.951808"><ele>279.5</ele><time>2026-07-29T20:40:31Z</time></trkpt>
<trkpt lat="35.139171" lon="-84.951783"><ele>278.3</ele><time>2026-07-29T20:40:34Z</time></trkpt>
<trkpt lat="35.139191" lon="-84.951746"><ele>278.3</ele><time>2026-07-29T20:40:37Z</time></trkpt>
<trkpt lat="35.139208" lon="-84.951704"><ele>278.0</ele><time>2026-07-29T20:40:40Z</time></trkpt>
<trkpt lat="35.139223" lon="-84.951661"><ele>279.2</ele><time>2026-07-29T20:40:43Z</time></trkpt>
<trkpt lat="35.13923" lon="-84.951616"><ele>279.2</ele><time>2026-07-29T20:40:46Z</time></trkpt>
<trkpt lat="35.139255" lon="-84.951582"><ele>278.9</ele><time>2026-07-29T20:40:49Z</time></trkpt>
<trkpt lat="35.139283" lon="-84.951579"><ele>277.1</ele><time>2026-07-29T20:40:51Z</time></trkpt>
<trkpt lat="35.139322" lon="-84.951597"><ele>275.2</ele><time>2026-07-29T20:40:54Z</time></trkpt>
<trkpt lat="35.139342" lon="-84.951622"><ele>275.2</ele><time>2026-07-29T20:40:56Z</time></trkpt>
<trkpt lat="35.139361" lon="-84.951663"><ele>274.3</ele><time>2026-07-29T20:40:59Z</time></trkpt>
<trkpt lat="35.139391" lon="-84.951691"><ele>274.9</ele><time>2026-07-29T20:41:02Z</time></trkpt>
<trkpt lat="35.139424" lon="-84.95171"><ele>277.1</ele><time>2026-07-29T20:41:05Z</time></trkpt>
<trkpt lat="35.13946" lon="-84.951716"><ele>279.2</ele><time>2026-07-29T20:41:08Z</time></trkpt>
<trkpt lat="35.139496" lon="-84.951718"><ele>280.4</ele><time>2026-07-29T20:41:11Z</time></trkpt>
<trkpt lat="35.139529" lon="-84.951698"><ele>280.7</ele><time>2026-07-29T20:41:14Z</time></trkpt>
<trkpt lat="35.139555" lon="-84.951677"><ele>279.2</ele><time>2026-07-29T20:41:16Z</time></trkpt>
<trkpt lat="35.139576" lon="-84.951647"><ele>278.6</ele><time>2026-07-29T20:41:18Z</time></trkpt>
<trkpt lat="35.139587" lon="-84.95161"><ele>278.9</ele><time>2026-07-29T20:41:20Z</time></trkpt>
<trkpt lat="35.139588" lon="-84.951575"><ele>279.5</ele><time>2026-07-29T20:41:22Z</time></trkpt>
<trkpt lat="35.139582" lon="-84.951534"><ele>277.4</ele><time>2026-07-29T20:41:25Z</time></trkpt>
<trkpt lat="35.139577" lon="-84.95149"><ele>279.2</ele><time>2026-07-29T20:41:28Z</time></trkpt>
<trkpt lat="35.13959" lon="-84.951448"><ele>280.1</ele><time>2026-07-29T20:41:31Z</time></trkpt>
<trkpt lat="35.13962" lon="-84.951421"><ele>281.0</ele><time>2026-07-29T20:41:34Z</time></trkpt>
<trkpt lat="35.139646" lon="-84.951404"><ele>279.2</ele><time>2026-07-29T20:41:36Z</time></trkpt>
<trkpt lat="35.139676" lon="-84.951372"><ele>280.4</ele><time>2026-07-29T20:41:39Z</time></trkpt>
<trkpt lat="35.139703" lon="-84.951355"><ele>280.4</ele><time>2026-07-29T20:41:41Z</time></trkpt>
<trkpt lat="35.139728" lon="-84.951341"><ele>282.5</ele><time>2026-07-29T20:41:43Z</time></trkpt>
<trkpt lat="35.139765" lon="-84.951329"><ele>284.1</ele><time>2026-07-29T20:41:46Z</time></trkpt>
<trkpt lat="35.139805" lon="-84.951332"><ele>284.7</ele><time>2026-07-29T20:41:49Z</time></trkpt>
<trkpt lat="35.139839" lon="-84.951339"><ele>285.0</ele><time>2026-07-29T20:41:52Z</time></trkpt>
<trkpt lat="35.139859" lon="-84.951362"><ele>281.0</ele><time>2026-07-29T20:41:54Z</time></trkpt>
<trkpt lat="35.139883" lon="-84.951403"><ele>281.6</ele><time>2026-07-29T20:41:57Z</time></trkpt>
<trkpt lat="35.1399" lon="-84.951436"><ele>282.5</ele><time>2026-07-29T20:41:59Z</time></trkpt>
<trkpt lat="35.139917" lon="-84.951463"><ele>283.2</ele><time>2026-07-29T20:42:01Z</time></trkpt>
<trkpt lat="35.139938" lon="-84.951497"><ele>282.2</ele><time>2026-07-29T20:42:04Z</time></trkpt>
<trkpt lat="35.139968" lon="-84.951524"><ele>281.3</ele><time>2026-07-29T20:42:07Z</time></trkpt>
<trkpt lat="35.139997" lon="-84.95156"><ele>279.5</ele><time>2026-07-29T20:42:10Z</time></trkpt>
<trkpt lat="35.140026" lon="-84.95159"><ele>280.1</ele><time>2026-07-29T20:42:13Z</time></trkpt>
<trkpt lat="35.140061" lon="-84.951589"><ele>284.1</ele><time>2026-07-29T20:42:16Z</time></trkpt>
<trkpt lat="35.140084" lon="-84.951555"><ele>280.7</ele><time>2026-07-29T20:42:18Z</time></trkpt>
<trkpt lat="35.14009" lon="-84.951522"><ele>280.4</ele><time>2026-07-29T20:42:20Z</time></trkpt>
<trkpt lat="35.140086" lon="-84.951487"><ele>281.6</ele><time>2026-07-29T20:42:22Z</time></trkpt>
<trkpt lat="35.14008" lon="-84.951452"><ele>282.5</ele><time>2026-07-29T20:42:24Z</time></trkpt>
<trkpt lat="35.140081" lon="-84.951412"><ele>284.1</ele><time>2026-07-29T20:42:26Z</time></trkpt>
<trkpt lat="35.14009" lon="-84.951378"><ele>283.8</ele><time>2026-07-29T20:42:28Z</time></trkpt>
<trkpt lat="35.140127" lon="-84.951362"><ele>284.1</ele><time>2026-07-29T20:42:31Z</time></trkpt>
<trkpt lat="35.140166" lon="-84.951355"><ele>285.6</ele><time>2026-07-29T20:42:34Z</time></trkpt>
<trkpt lat="35.140192" lon="-84.951341"><ele>286.5</ele><time>2026-07-29T20:42:36Z</time></trkpt>
<trkpt lat="35.14021" lon="-84.951308"><ele>285.0</ele><time>2026-07-29T20:42:38Z</time></trkpt>
<trkpt lat="35.140222" lon="-84.951271"><ele>285.6</ele><time>2026-07-29T20:42:40Z</time></trkpt>
<trkpt lat="35.140228" lon="-84.951236"><ele>285.6</ele><time>2026-07-29T20:42:42Z</time></trkpt>
<trkpt lat="35.140243" lon="-84.951205"><ele>285.3</ele><time>2026-07-29T20:42:44Z</time></trkpt>
<trkpt lat="35.140275" lon="-84.951178"><ele>285.9</ele><time>2026-07-29T20:42:47Z</time></trkpt>
<trkpt lat="35.140305" lon="-84.951181"><ele>284.4</ele><time>2026-07-29T20:42:49Z</time></trkpt>
<trkpt lat="35.140341" lon="-84.951184"><ele>284.7</ele><time>2026-07-29T20:42:52Z</time></trkpt>
<trkpt lat="35.140377" lon="-84.951197"><ele>286.5</ele><time>2026-07-29T20:42:55Z</time></trkpt>
<trkpt lat="35.140407" lon="-84.951216"><ele>287.7</ele><time>2026-07-29T20:42:58Z</time></trkpt>
<trkpt lat="35.140439" lon="-84.951229"><ele>289.0</ele><time>2026-07-29T20:43:01Z</time></trkpt>
<trkpt lat="35.140476" lon="-84.95124"><ele>288.6</ele><time>2026-07-29T20:43:04Z</time></trkpt>
<trkpt lat="35.140509" lon="-84.951253"><ele>289.6</ele><time>2026-07-29T20:43:07Z</time></trkpt>
<trkpt lat="35.140542" lon="-84.951271"><ele>289.3</ele><time>2026-07-29T20:43:10Z</time></trkpt>
<trkpt lat="35.140576" lon="-84.951287"><ele>290.5</ele><time>2026-07-29T20:43:13Z</time></trkpt>
<trkpt lat="35.140611" lon="-84.95128"><ele>287.7</ele><time>2026-07-29T20:43:16Z</time></trkpt>
<trkpt lat="35.140639" lon="-84.951274"><ele>289.3</ele><time>2026-07-29T20:43:18Z</time></trkpt>
<trkpt lat="35.140676" lon="-84.95126"><ele>287.7</ele><time>2026-07-29T20:43:21Z</time></trkpt>
<trkpt lat="35.140714" lon="-84.951256"><ele>289.3</ele><time>2026-07-29T20:43:24Z</time></trkpt>
<trkpt lat="35.140738" lon="-84.951279"><ele>289.0</ele><time>2026-07-29T20:43:26Z</time></trkpt>
<trkpt lat="35.140761" lon="-84.951303"><ele>288.3</ele><time>2026-07-29T20:43:28Z</time></trkpt>
<trkpt lat="35.140791" lon="-84.951317"><ele>285.9</ele><time>2026-07-29T20:43:31Z</time></trkpt>
<trkpt lat="35.140822" lon="-84.951296"><ele>286.2</ele><time>2026-07-29T20:43:34Z</time></trkpt>
<trkpt lat="35.14084" lon="-84.951266"><ele>286.5</ele><time>2026-07-29T20:43:36Z</time></trkpt>
<trkpt lat="35.140851" lon="-84.951227"><ele>285.3</ele><time>2026-07-29T20:43:38Z</time></trkpt>
<trkpt lat="35.140865" lon="-84.951181"><ele>286.5</ele><time>2026-07-29T20:43:41Z</time></trkpt>
<trkpt lat="35.140888" lon="-84.95114"><ele>288.0</ele><time>2026-07-29T20:43:44Z</time></trkpt>
<trkpt lat="35.140924" lon="-84.951118"><ele>288.3</ele><time>2026-07-29T20:43:47Z</time></trkpt>
<trkpt lat="35.140968" lon="-84.951127"><ele>287.7</ele><time>2026-07-29T20:43:50Z</time></trkpt>
<trkpt lat="35.141005" lon="-84.951135"><ele>288.0</ele><time>2026-07-29T20:43:53Z</time></trkpt>
<trkpt lat="35.14104" lon="-84.95114"><ele>289.0</ele><time>2026-07-29T20:43:56Z</time></trkpt>
<trkpt lat="35.141073" lon="-84.951151"><ele>290.8</ele><time>2026-07-29T20:43:59Z</time></trkpt>
<trkpt lat="35.141102" lon="-84.951173"><ele>292.0</ele><time>2026-07-29T20:44:02Z</time></trkpt>
<trkpt lat="35.141131" lon="-84.951203"><ele>292.3</ele><time>2026-07-29T20:44:05Z</time></trkpt>
<trkpt lat="35.141156" lon="-84.951223"><ele>290.8</ele><time>2026-07-29T20:44:07Z</time></trkpt>
<trkpt lat="35.141191" lon="-84.951235"><ele>289.6</ele><time>2026-07-29T20:44:10Z</time></trkpt>
<trkpt lat="35.141227" lon="-84.951232"><ele>289.6</ele><time>2026-07-29T20:44:13Z</time></trkpt>
<trkpt lat="35.14126" lon="-84.951217"><ele>289.6</ele><time>2026-07-29T20:44:16Z</time></trkpt>
<trkpt lat="35.141291" lon="-84.951194"><ele>291.4</ele><time>2026-07-29T20:44:19Z</time></trkpt>
<trkpt lat="35.141322" lon="-84.951172"><ele>290.5</ele><time>2026-07-29T20:44:22Z</time></trkpt>
<trkpt lat="35.141358" lon="-84.95115"><ele>289.9</ele><time>2026-07-29T20:44:25Z</time></trkpt>
<trkpt lat="35.141382" lon="-84.951131"><ele>287.1</ele><time>2026-07-29T20:44:27Z</time></trkpt>
<trkpt lat="35.141414" lon="-84.951103"><ele>283.8</ele><time>2026-07-29T20:44:30Z</time></trkpt>
<trkpt lat="35.141447" lon="-84.951077"><ele>283.2</ele><time>2026-07-29T20:44:33Z</time></trkpt>
<trkpt lat="35.141481" lon="-84.95105"><ele>281.9</ele><time>2026-07-29T20:44:36Z</time></trkpt>
<trkpt lat="35.141517" lon="-84.951037"><ele>281.3</ele><time>2026-07-29T20:44:39Z</time></trkpt>
<trkpt lat="35.141553" lon="-84.951019"><ele>281.6</ele><time>2026-07-29T20:44:42Z</time></trkpt>
<trkpt lat="35.14159" lon="-84.951006"><ele>283.5</ele><time>2026-07-29T20:44:45Z</time></trkpt>
<trkpt lat="35.141631" lon="-84.950997"><ele>284.4</ele><time>2026-07-29T20:44:48Z</time></trkpt>
<trkpt lat="35.141661" lon="-84.950998"><ele>282.9</ele><time>2026-07-29T20:44:50Z</time></trkpt>
<trkpt lat="35.141699" lon="-84.950997"><ele>282.9</ele><time>2026-07-29T20:44:53Z</time></trkpt>
<trkpt lat="35.141736" lon="-84.95099"><ele>284.1</ele><time>2026-07-29T20:44:56Z</time></trkpt>
<trkpt lat="35.141762" lon="-84.950963"><ele>284.7</ele><time>2026-07-29T20:44:59Z</time></trkpt>
<trkpt lat="35.141792" lon="-84.950934"><ele>285.9</ele><time>2026-07-29T20:45:02Z</time></trkpt>
<trkpt lat="35.141833" lon="-84.950929"><ele>283.8</ele><time>2026-07-29T20:45:05Z</time></trkpt>
<trkpt lat="35.141863" lon="-84.950925"><ele>284.4</ele><time>2026-07-29T20:45:07Z</time></trkpt>
<trkpt lat="35.141888" lon="-84.950908"><ele>285.0</ele><time>2026-07-29T20:45:09Z</time></trkpt>
<trkpt lat="35.141915" lon="-84.9509"><ele>283.2</ele><time>2026-07-29T20:45:11Z</time></trkpt>
<trkpt lat="35.141952" lon="-84.950881"><ele>282.5</ele><time>2026-07-29T20:45:14Z</time></trkpt>
<trkpt lat="35.14198" lon="-84.950878"><ele>283.2</ele><time>2026-07-29T20:45:16Z</time></trkpt>
<trkpt lat="35.142017" lon="-84.950884"><ele>285.6</ele><time>2026-07-29T20:45:19Z</time></trkpt>
<trkpt lat="35.142055" lon="-84.950883"><ele>285.3</ele><time>2026-07-29T20:45:22Z</time></trkpt>
<trkpt lat="35.142094" lon="-84.950881"><ele>284.7</ele><time>2026-07-29T20:45:25Z</time></trkpt>
<trkpt lat="35.142131" lon="-84.950876"><ele>286.2</ele><time>2026-07-29T20:45:28Z</time></trkpt>
<trkpt lat="35.142167" lon="-84.950858"><ele>286.2</ele><time>2026-07-29T20:45:31Z</time></trkpt>
<trkpt lat="35.142203" lon="-84.950846"><ele>287.7</ele><time>2026-07-29T20:45:34Z</time></trkpt>
<trkpt lat="35.142241" lon="-84.950842"><ele>287.1</ele><time>2026-07-29T20:45:37Z</time></trkpt>
<trkpt lat="35.142281" lon="-84.950841"><ele>286.8</ele><time>2026-07-29T20:45:40Z</time></trkpt>
<trkpt lat="35.142308" lon="-84.95084"><ele>286.2</ele><time>2026-07-29T20:45:42Z</time></trkpt>
<trkpt lat="35.142348" lon="-84.950827"><ele>285.9</ele><time>2026-07-29T20:45:45Z</time></trkpt>
<trkpt lat="35.142373" lon="-84.950813"><ele>284.7</ele><time>2026-07-29T20:45:47Z</time></trkpt>
<trkpt lat="35.142407" lon="-84.950789"><ele>284.7</ele><time>2026-07-29T20:45:50Z</time></trkpt>
<trkpt lat="35.142439" lon="-84.950772"><ele>285.3</ele><time>2026-07-29T20:45:53Z</time></trkpt>
<trkpt lat="35.142472" lon="-84.95075"><ele>287.1</ele><time>2026-07-29T20:45:56Z</time></trkpt>
<trkpt lat="35.142507" lon="-84.950731"><ele>287.4</ele><time>2026-07-29T20:45:59Z</time></trkpt>
<trkpt lat="35.142543" lon="-84.950709"><ele>287.1</ele><time>2026-07-29T20:46:02Z</time></trkpt>
<trkpt lat="35.142582" lon="-84.950694"><ele>286.5</ele><time>2026-07-29T20:46:05Z</time></trkpt>
<trkpt lat="35.142604" lon="-84.950672"><ele>285.6</ele><time>2026-07-29T20:46:07Z</time></trkpt>
<trkpt lat="35.142634" lon="-84.950641"><ele>285.6</ele><time>2026-07-29T20:46:10Z</time></trkpt>
<trkpt lat="35.14266" lon="-84.950614"><ele>285.3</ele><time>2026-07-29T20:46:13Z</time></trkpt>
<trkpt lat="35.142679" lon="-84.950588"><ele>285.3</ele><time>2026-07-29T20:46:15Z</time></trkpt>
<trkpt lat="35.142694" lon="-84.95056"><ele>288.3</ele><time>2026-07-29T20:46:17Z</time></trkpt>
<trkpt lat="35.142715" lon="-84.950525"><ele>288.0</ele><time>2026-07-29T20:46:20Z</time></trkpt>
<trkpt lat="35.142742" lon="-84.950492"><ele>287.1</ele><time>2026-07-29T20:46:23Z</time></trkpt>
<trkpt lat="35.142766" lon="-84.950475"><ele>286.5</ele><time>2026-07-29T20:46:25Z</time></trkpt>
<trkpt lat="35.142795" lon="-84.950465"><ele>287.4</ele><time>2026-07-29T20:46:27Z</time></trkpt>
<trkpt lat="35.142823" lon="-84.950455"><ele>288.0</ele><time>2026-07-29T20:46:29Z</time></trkpt>
<trkpt lat="35.142851" lon="-84.950454"><ele>288.6</ele><time>2026-07-29T20:46:31Z</time></trkpt>
<trkpt lat="35.142889" lon="-84.950462"><ele>287.7</ele><time>2026-07-29T20:46:34Z</time></trkpt>
<trkpt lat="35.142926" lon="-84.950461"><ele>288.3</ele><time>2026-07-29T20:46:37Z</time></trkpt>
<trkpt lat="35.142962" lon="-84.950473"><ele>289.9</ele><time>2026-07-29T20:46:40Z</time></trkpt>
<trkpt lat="35.142997" lon="-84.950485"><ele>291.1</ele><time>2026-07-29T20:46:43Z</time></trkpt>
<trkpt lat="35.143034" lon="-84.950497"><ele>292.0</ele><time>2026-07-29T20:46:46Z</time></trkpt>
<trkpt lat="35.14307" lon="-84.950504"><ele>291.1</ele><time>2026-07-29T20:46:49Z</time></trkpt>
<trkpt lat="35.143103" lon="-84.950509"><ele>289.0</ele><time>2026-07-29T20:46:52Z</time></trkpt>
<trkpt lat="35.143138" lon="-84.950497"><ele>287.1</ele><time>2026-07-29T20:46:55Z</time></trkpt>
<trkpt lat="35.143176" lon="-84.950488"><ele>288.0</ele><time>2026-07-29T20:46:58Z</time></trkpt>
<trkpt lat="35.143204" lon="-84.950486"><ele>289.3</ele><time>2026-07-29T20:47:00Z</time></trkpt>
<trkpt lat="35.143244" lon="-84.950472"><ele>289.6</ele><time>2026-07-29T20:47:03Z</time></trkpt>
<trkpt lat="35.143271" lon="-84.95046"><ele>290.5</ele><time>2026-07-29T20:47:05Z</time></trkpt>
<trkpt lat="35.143307" lon="-84.950443"><ele>289.9</ele><time>2026-07-29T20:47:08Z</time></trkpt>
<trkpt lat="35.143346" lon="-84.950436"><ele>289.9</ele><time>2026-07-29T20:47:11Z</time></trkpt>
<trkpt lat="35.143386" lon="-84.950431"><ele>290.2</ele><time>2026-07-29T20:47:14Z</time></trkpt>
<trkpt lat="35.143418" lon="-84.95041"><ele>290.2</ele><time>2026-07-29T20:47:17Z</time></trkpt>
<trkpt lat="35.143455" lon="-84.950401"><ele>289.3</ele><time>2026-07-29T20:47:20Z</time></trkpt>
<trkpt lat="35.143493" lon="-84.950395"><ele>289.0</ele><time>2026-07-29T20:47:23Z</time></trkpt>
<trkpt lat="35.143528" lon="-84.950376"><ele>286.8</ele><time>2026-07-29T20:47:26Z</time></trkpt>
<trkpt lat="35.143566" lon="-84.950369"><ele>286.5</ele><time>2026-07-29T20:47:29Z</time></trkpt>
<trkpt lat="35.143602" lon="-84.950359"><ele>286.8</ele><time>2026-07-29T20:47:32Z</time></trkpt>
<trkpt lat="35.14364" lon="-84.950357"><ele>286.8</ele><time>2026-07-29T20:47:35Z</time></trkpt>
<trkpt lat="35.143679" lon="-84.950351"><ele>286.5</ele><time>2026-07-29T20:47:38Z</time></trkpt>
<trkpt lat="35.143707" lon="-84.950346"><ele>287.1</ele><time>2026-07-29T20:47:40Z</time></trkpt>
<trkpt lat="35.143746" lon="-84.950344"><ele>286.8</ele><time>2026-07-29T20:47:43Z</time></trkpt>
<trkpt lat="35.143783" lon="-84.95035"><ele>287.7</ele><time>2026-07-29T20:47:46Z</time></trkpt>
<trkpt lat="35.143818" lon="-84.950359"><ele>288.3</ele><time>2026-07-29T20:47:49Z</time></trkpt>
<trkpt lat="35.143845" lon="-84.950369"><ele>289.6</ele><time>2026-07-29T20:47:51Z</time></trkpt>
<trkpt lat="35.143882" lon="-84.95038"><ele>291.4</ele><time>2026-07-29T20:47:54Z</time></trkpt>
<trkpt lat="35.143915" lon="-84.950363"><ele>290.8</ele><time>2026-07-29T20:47:57Z</time></trkpt>
<trkpt lat="35.143953" lon="-84.950344"><ele>289.0</ele><time>2026-07-29T20:48:00Z</time></trkpt>
<trkpt lat="35.14399" lon="-84.950324"><ele>289.0</ele><time>2026-07-29T20:48:03Z</time></trkpt>
<trkpt lat="35.144019" lon="-84.9503"><ele>289.0</ele><time>2026-07-29T20:48:06Z</time></trkpt>
<trkpt lat="35.144044" lon="-84.950265"><ele>287.7</ele><time>2026-07-29T20:48:09Z</time></trkpt>
<trkpt lat="35.14407" lon="-84.950229"><ele>286.5</ele><time>2026-07-29T20:48:12Z</time></trkpt>
<trkpt lat="35.144092" lon="-84.950208"><ele>286.2</ele><time>2026-07-29T20:48:14Z</time></trkpt>
<trkpt lat="35.144115" lon="-84.950186"><ele>286.5</ele><time>2026-07-29T20:48:16Z</time></trkpt>
<trkpt lat="35.144152" lon="-84.950169"><ele>286.8</ele><time>2026-07-29T20:48:19Z</time></trkpt>
<trkpt lat="35.144188" lon="-84.950151"><ele>287.7</ele><time>2026-07-29T20:48:22Z</time></trkpt>
<trkpt lat="35.144225" lon="-84.950135"><ele>286.8</ele><time>2026-07-29T20:48:25Z</time></trkpt>
<trkpt lat="35.144262" lon="-84.950116"><ele>285.9</ele><time>2026-07-29T20:48:28Z</time></trkpt>
<trkpt lat="35.144298" lon="-84.950107"><ele>285.0</ele><time>2026-07-29T20:48:31Z</time></trkpt>
<trkpt lat="35.144336" lon="-84.950102"><ele>283.8</ele><time>2026-07-29T20:48:34Z</time></trkpt>
<trkpt lat="35.144365" lon="-84.950085"><ele>284.7</ele><time>2026-07-29T20:48:37Z</time></trkpt>
<trkpt lat="35.144382" lon="-84.950058"><ele>285.3</ele><time>2026-07-29T20:48:39Z</time></trkpt>
<trkpt lat="35.144411" lon="-84.950029"><ele>284.4</ele><time>2026-07-29T20:48:42Z</time></trkpt>
<trkpt lat="35.144443" lon="-84.950016"><ele>284.7</ele><time>2026-07-29T20:48:45Z</time></trkpt>
<trkpt lat="35.144477" lon="-84.950009"><ele>285.3</ele><time>2026-07-29T20:48:48Z</time></trkpt>
<trkpt lat="35.144513" lon="-84.950016"><ele>285.0</ele><time>2026-07-29T20:48:51Z</time></trkpt>
<trkpt lat="35.144545" lon="-84.950033"><ele>284.7</ele><time>2026-07-29T20:48:54Z</time></trkpt>
<trkpt lat="35.14458" lon="-84.950052"><ele>283.8</ele><time>2026-07-29T20:48:57Z</time></trkpt>
<trkpt lat="35.144604" lon="-84.950085"><ele>282.9</ele><time>2026-07-29T20:49:00Z</time></trkpt>
<trkpt lat="35.144621" lon="-84.950125"><ele>282.9</ele><time>2026-07-29T20:49:03Z</time></trkpt>
<trkpt lat="35.144631" lon="-84.95017"><ele>282.2</ele><time>2026-07-29T20:49:06Z</time></trkpt>
<trkpt lat="35.14463" lon="-84.950216"><ele>281.9</ele><time>2026-07-29T20:49:09Z</time></trkpt>
<trkpt lat="35.14463" lon="-84.950262"><ele>281.6</ele><time>2026-07-29T20:49:12Z</time></trkpt>
<trkpt lat="35.144625" lon="-84.950309"><ele>281.0</ele><time>2026-07-29T20:49:15Z</time></trkpt>
<trkpt lat="35.144614" lon="-84.950354"><ele>281.6</ele><time>2026-07-29T20:49:18Z</time></trkpt>
<trkpt lat="35.144596" lon="-84.950392"><ele>281.0</ele><time>2026-07-29T20:49:21Z</time></trkpt>
<trkpt lat="35.144571" lon="-84.950425"><ele>280.4</ele><time>2026-07-29T20:49:24Z</time></trkpt>
<trkpt lat="35.144541" lon="-84.95045"><ele>280.7</ele><time>2026-07-29T20:49:27Z</time></trkpt>
<trkpt lat="35.144508" lon="-84.950474"><ele>282.2</ele><time>2026-07-29T20:49:30Z</time></trkpt>
<trkpt lat="35.144479" lon="-84.950495"><ele>283.2</ele><time>2026-07-29T20:49:33Z</time></trkpt>
<trkpt lat="35.144444" lon="-84.95052"><ele>282.9</ele><time>2026-07-29T20:49:36Z</time></trkpt>
<trkpt lat="35.144407" lon="-84.950539"><ele>283.5</ele><time>2026-07-29T20:49:39Z</time></trkpt>
<trkpt lat="35.144369" lon="-84.950559"><ele>283.5</ele><time>2026-07-29T20:49:42Z</time></trkpt>
<trkpt lat="35.144347" lon="-84.950578"><ele>283.8</ele><time>2026-07-29T20:49:44Z</time></trkpt>
<trkpt lat="35.144323" lon="-84.950618"><ele>282.9</ele><time>2026-07-29T20:49:47Z</time></trkpt>
<trkpt lat="35.144299" lon="-84.95065"><ele>281.9</ele><time>2026-07-29T20:49:50Z</time></trkpt>
<trkpt lat="35.144265" lon="-84.950673"><ele>283.2</ele><time>2026-07-29T20:49:53Z</time></trkpt>
<trkpt lat="35.144231" lon="-84.950694"><ele>283.5</ele><time>2026-07-29T20:49:56Z</time></trkpt>
<trkpt lat="35.144204" lon="-84.950706"><ele>284.1</ele><time>2026-07-29T20:49:58Z</time></trkpt>
<trkpt lat="35.144169" lon="-84.950723"><ele>284.7</ele><time>2026-07-29T20:50:01Z</time></trkpt>
<trkpt lat="35.144132" lon="-84.950737"><ele>284.4</ele><time>2026-07-29T20:50:04Z</time></trkpt>
<trkpt lat="35.144105" lon="-84.950744"><ele>285.3</ele><time>2026-07-29T20:50:06Z</time></trkpt>
<trkpt lat="35.144069" lon="-84.950758"><ele>285.0</ele><time>2026-07-29T20:50:09Z</time></trkpt>
<trkpt lat="35.144035" lon="-84.950768"><ele>285.6</ele><time>2026-07-29T20:50:12Z</time></trkpt>
<trkpt lat="35.144" lon="-84.950784"><ele>286.2</ele><time>2026-07-29T20:50:15Z</time></trkpt>
<trkpt lat="35.143965" lon="-84.950782"><ele>285.9</ele><time>2026-07-29T20:50:18Z</time></trkpt>
<trkpt lat="35.143929" lon="-84.950791"><ele>286.2</ele><time>2026-07-29T20:50:21Z</time></trkpt>
<trkpt lat="35.14389" lon="-84.950802"><ele>286.5</ele><time>2026-07-29T20:50:24Z</time></trkpt>
<trkpt lat="35.143855" lon="-84.950811"><ele>286.5</ele><time>2026-07-29T20:50:27Z</time></trkpt>
<trkpt lat="35.14382" lon="-84.950826"><ele>286.2</ele><time>2026-07-29T20:50:30Z</time></trkpt>
<trkpt lat="35.143784" lon="-84.950841"><ele>285.3</ele><time>2026-07-29T20:50:33Z</time></trkpt>
<trkpt lat="35.143748" lon="-84.95086"><ele>285.3</ele><time>2026-07-29T20:50:36Z</time></trkpt>
<trkpt lat="35.143716" lon="-84.950879"><ele>283.5</ele><time>2026-07-29T20:50:39Z</time></trkpt>
<trkpt lat="35.143684" lon="-84.95089"><ele>283.5</ele><time>2026-07-29T20:50:42Z</time></trkpt>
<trkpt lat="35.143645" lon="-84.950896"><ele>285.0</ele><time>2026-07-29T20:50:45Z</time></trkpt>
<trkpt lat="35.143608" lon="-84.950904"><ele>284.7</ele><time>2026-07-29T20:50:48Z</time></trkpt>
<trkpt lat="35.143569" lon="-84.950919"><ele>284.7</ele><time>2026-07-29T20:50:51Z</time></trkpt>
<trkpt lat="35.143529" lon="-84.950927"><ele>286.8</ele><time>2026-07-29T20:50:54Z</time></trkpt>
<trkpt lat="35.143491" lon="-84.950942"><ele>285.9</ele><time>2026-07-29T20:50:57Z</time></trkpt>
<trkpt lat="35.143455" lon="-84.950955"><ele>287.1</ele><time>2026-07-29T20:51:00Z</time></trkpt>
<trkpt lat="35.143423" lon="-84.950973"><ele>287.1</ele><time>2026-07-29T20:51:03Z</time></trkpt>
<trkpt lat="35.143392" lon="-84.950984"><ele>286.5</ele><time>2026-07-29T20:51:06Z</time></trkpt>
<trkpt lat="35.143358" lon="-84.950998"><ele>286.5</ele><time>2026-07-29T20:51:09Z</time></trkpt>
<trkpt lat="35.143322" lon="-84.951009"><ele>286.8</ele><time>2026-07-29T20:51:12Z</time></trkpt>
<trkpt lat="35.143283" lon="-84.951022"><ele>285.9</ele><time>2026-07-29T20:51:15Z</time></trkpt>
<trkpt lat="35.143249" lon="-84.951035"><ele>285.9</ele><time>2026-07-29T20:51:18Z</time></trkpt>
<trkpt lat="35.143212" lon="-84.951046"><ele>286.8</ele><time>2026-07-29T20:51:21Z</time></trkpt>
<trkpt lat="35.143172" lon="-84.951051"><ele>286.5</ele><time>2026-07-29T20:51:24Z</time></trkpt>
<trkpt lat="35.143137" lon="-84.951061"><ele>287.1</ele><time>2026-07-29T20:51:27Z</time></trkpt>
<trkpt lat="35.143099" lon="-84.951069"><ele>288.3</ele><time>2026-07-29T20:51:30Z</time></trkpt>
<trkpt lat="35.143063" lon="-84.951081"><ele>289.0</ele><time>2026-07-29T20:51:32Z</time></trkpt>
<trkpt lat="35.143029" lon="-84.951091"><ele>289.9</ele><time>2026-07-29T20:51:35Z</time></trkpt>
<trkpt lat="35.142998" lon="-84.951106"><ele>289.0</ele><time>2026-07-29T20:51:38Z</time></trkpt>
<trkpt lat="35.142965" lon="-84.951128"><ele>289.0</ele><time>2026-07-29T20:51:41Z</time></trkpt>
<trkpt lat="35.142936" lon="-84.951152"><ele>288.0</ele><time>2026-07-29T20:51:44Z</time></trkpt>
<trkpt lat="35.142909" lon="-84.951174"><ele>288.0</ele><time>2026-07-29T20:51:47Z</time></trkpt>
<trkpt lat="35.142883" lon="-84.951209"><ele>288.3</ele><time>2026-07-29T20:51:50Z</time></trkpt>
<trkpt lat="35.142856" lon="-84.951242"><ele>289.9</ele><time>2026-07-29T20:51:53Z</time></trkpt>
<trkpt lat="35.142826" lon="-84.951272"><ele>290.8</ele><time>2026-07-29T20:51:56Z</time></trkpt>
<trkpt lat="35.142794" lon="-84.951289"><ele>290.8</ele><time>2026-07-29T20:51:59Z</time></trkpt>
<trkpt lat="35.142763" lon="-84.951302"><ele>292.0</ele><time>2026-07-29T20:52:02Z</time></trkpt>
<trkpt lat="35.142737" lon="-84.951326"><ele>292.0</ele><time>2026-07-29T20:52:05Z</time></trkpt>
<trkpt lat="35.14271" lon="-84.951346"><ele>291.1</ele><time>2026-07-29T20:52:08Z</time></trkpt>
<trkpt lat="35.14268" lon="-84.951362"><ele>290.8</ele><time>2026-07-29T20:52:11Z</time></trkpt>
<trkpt lat="35.142644" lon="-84.951377"><ele>291.1</ele><time>2026-07-29T20:52:14Z</time></trkpt>
<trkpt lat="35.142607" lon="-84.951384"><ele>290.2</ele><time>2026-07-29T20:52:17Z</time></trkpt>
<trkpt lat="35.142572" lon="-84.951393"><ele>289.0</ele><time>2026-07-29T20:52:20Z</time></trkpt>
<trkpt lat="35.142535" lon="-84.9514"><ele>288.3</ele><time>2026-07-29T20:52:23Z</time></trkpt>
<trkpt lat="35.142497" lon="-84.951412"><ele>288.3</ele><time>2026-07-29T20:52:26Z</time></trkpt>
<trkpt lat="35.142469" lon="-84.951417"><ele>289.0</ele><time>2026-07-29T20:52:28Z</time></trkpt>
<trkpt lat="35.142431" lon="-84.951424"><ele>290.8</ele><time>2026-07-29T20:52:31Z</time></trkpt>
<trkpt lat="35.142395" lon="-84.951434"><ele>290.5</ele><time>2026-07-29T20:52:34Z</time></trkpt>
<trkpt lat="35.142366" lon="-84.951455"><ele>289.9</ele><time>2026-07-29T20:52:37Z</time></trkpt>
<trkpt lat="35.142331" lon="-84.951472"><ele>291.4</ele><time>2026-07-29T20:52:40Z</time></trkpt>
<trkpt lat="35.142299" lon="-84.951481"><ele>292.3</ele><time>2026-07-29T20:52:43Z</time></trkpt>
<trkpt lat="35.142266" lon="-84.9515"><ele>292.3</ele><time>2026-07-29T20:52:46Z</time></trkpt>
<trkpt lat="35.14223" lon="-84.951512"><ele>292.9</ele><time>2026-07-29T20:52:49Z</time></trkpt>
<trkpt lat="35.142189" lon="-84.951529"><ele>293.8</ele><time>2026-07-29T20:52:52Z</time></trkpt>
<trkpt lat="35.142151" lon="-84.95154"><ele>295.4</ele><time>2026-07-29T20:52:55Z</time></trkpt>
<trkpt lat="35.142125" lon="-84.951552"><ele>295.7</ele><time>2026-07-29T20:52:57Z</time></trkpt>
<trkpt lat="35.142099" lon="-84.951564"><ele>294.7</ele><time>2026-07-29T20:52:59Z</time></trkpt>
<trkpt lat="35.142063" lon="-84.951582"><ele>295.4</ele><time>2026-07-29T20:53:02Z</time></trkpt>
<trkpt lat="35.14203" lon="-84.951591"><ele>296.0</ele><time>2026-07-29T20:53:05Z</time></trkpt>
<trkpt lat="35.142002" lon="-84.951604"><ele>295.4</ele><time>2026-07-29T20:53:08Z</time></trkpt>
<trkpt lat="35.141969" lon="-84.951616"><ele>295.0</ele><time>2026-07-29T20:53:11Z</time></trkpt>
<trkpt lat="35.141932" lon="-84.951625"><ele>293.8</ele><time>2026-07-29T20:53:14Z</time></trkpt>
<trkpt lat="35.141896" lon="-84.951644"><ele>293.5</ele><time>2026-07-29T20:53:17Z</time></trkpt>
<trkpt lat="35.14186" lon="-84.951665"><ele>293.5</ele><time>2026-07-29T20:53:20Z</time></trkpt>
<trkpt lat="35.141828" lon="-84.951695"><ele>292.3</ele><time>2026-07-29T20:53:23Z</time></trkpt>
<trkpt lat="35.141807" lon="-84.951737"><ele>290.5</ele><time>2026-07-29T20:53:26Z</time></trkpt>
<trkpt lat="35.141777" lon="-84.951767"><ele>289.0</ele><time>2026-07-29T20:53:29Z</time></trkpt>
<trkpt lat="35.141753" lon="-84.951808"><ele>289.6</ele><time>2026-07-29T20:53:32Z</time></trkpt>
<trkpt lat="35.141729" lon="-84.951847"><ele>288.6</ele><time>2026-07-29T20:53:35Z</time></trkpt>
<trkpt lat="35.141706" lon="-84.951886"><ele>289.3</ele><time>2026-07-29T20:53:38Z</time></trkpt>
<trkpt lat="35.141679" lon="-84.951921"><ele>289.9</ele><time>2026-07-29T20:53:41Z</time></trkpt>
<trkpt lat="35.14165" lon="-84.951946"><ele>289.6</ele><time>2026-07-29T20:53:44Z</time></trkpt>
<trkpt lat="35.141626" lon="-84.951985"><ele>289.6</ele><time>2026-07-29T20:53:47Z</time></trkpt>
<trkpt lat="35.141623" lon="-84.952032"><ele>289.0</ele><time>2026-07-29T20:53:50Z</time></trkpt>
<trkpt lat="35.141615" lon="-84.952076"><ele>289.9</ele><time>2026-07-29T20:53:53Z</time></trkpt>
<trkpt lat="35.1416" lon="-84.952117"><ele>290.5</ele><time>2026-07-29T20:53:56Z</time></trkpt>
<trkpt lat="35.141582" lon="-84.952159"><ele>289.6</ele><time>2026-07-29T20:53:59Z</time></trkpt>
<trkpt lat="35.141549" lon="-84.952184"><ele>291.7</ele><time>2026-07-29T20:54:02Z</time></trkpt>
<trkpt lat="35.141511" lon="-84.952193"><ele>292.9</ele><time>2026-07-29T20:54:05Z</time></trkpt>
<trkpt lat="35.141473" lon="-84.952188"><ele>293.2</ele><time>2026-07-29T20:54:08Z</time></trkpt>
<trkpt lat="35.141436" lon="-84.952172"><ele>294.7</ele><time>2026-07-29T20:54:11Z</time></trkpt>
<trkpt lat="35.141406" lon="-84.952147"><ele>294.7</ele><time>2026-07-29T20:54:14Z</time></trkpt>
<trkpt lat="35.141378" lon="-84.952122"><ele>294.7</ele><time>2026-07-29T20:54:17Z</time></trkpt>
<trkpt lat="35.141345" lon="-84.9521"><ele>295.4</ele><time>2026-07-29T20:54:20Z</time></trkpt>
<trkpt lat="35.141315" lon="-84.952069"><ele>295.0</ele><time>2026-07-29T20:54:23Z</time></trkpt>
<trkpt lat="35.141287" lon="-84.952041"><ele>295.0</ele><time>2026-07-29T20:54:26Z</time></trkpt>
<trkpt lat="35.141257" lon="-84.952021"><ele>295.0</ele><time>2026-07-29T20:54:29Z</time></trkpt>
<trkpt lat="35.141219" lon="-84.952014"><ele>294.1</ele><time>2026-07-29T20:54:32Z</time></trkpt>
<trkpt lat="35.14118" lon="-84.952013"><ele>293.2</ele><time>2026-07-29T20:54:35Z</time></trkpt>
<trkpt lat="35.14114" lon="-84.952016"><ele>293.5</ele><time>2026-07-29T20:54:38Z</time></trkpt>
<trkpt lat="35.141102" lon="-84.952024"><ele>294.1</ele><time>2026-07-29T20:54:41Z</time></trkpt>
<trkpt lat="35.141067" lon="-84.952043"><ele>294.4</ele><time>2026-07-29T20:54:44Z</time></trkpt>
<trkpt lat="35.14104" lon="-84.952079"><ele>292.6</ele><time>2026-07-29T20:54:47Z</time></trkpt>
<trkpt lat="35.14101" lon="-84.952108"><ele>292.0</ele><time>2026-07-29T20:54:50Z</time></trkpt>
<trkpt lat="35.14098" lon="-84.95214"><ele>290.2</ele><time>2026-07-29T20:54:53Z</time></trkpt>
<trkpt lat="35.140947" lon="-84.952163"><ele>288.3</ele><time>2026-07-29T20:54:56Z</time></trkpt>
<trkpt lat="35.140912" lon="-84.952181"><ele>288.0</ele><time>2026-07-29T20:54:59Z</time></trkpt>
<trkpt lat="35.140875" lon="-84.952187"><ele>289.6</ele><time>2026-07-29T20:55:02Z</time></trkpt>
<trkpt lat="35.140836" lon="-84.952187"><ele>289.0</ele><time>2026-07-29T20:55:05Z</time></trkpt>
<trkpt lat="35.140795" lon="-84.952185"><ele>290.2</ele><time>2026-07-29T20:55:08Z</time></trkpt>
<trkpt lat="35.140756" lon="-84.952185"><ele>289.3</ele><time>2026-07-29T20:55:11Z</time></trkpt>
<trkpt lat="35.140729" lon="-84.95219"><ele>290.8</ele><time>2026-07-29T20:55:13Z</time></trkpt>
<trkpt lat="35.140693" lon="-84.952203"><ele>290.8</ele><time>2026-07-29T20:55:16Z</time></trkpt>
<trkpt lat="35.140659" lon="-84.952216"><ele>289.9</ele><time>2026-07-29T20:55:19Z</time></trkpt>
<trkpt lat="35.140625" lon="-84.952224"><ele>290.5</ele><time>2026-07-29T20:55:22Z</time></trkpt>
<trkpt lat="35.140589" lon="-84.952215"><ele>289.9</ele><time>2026-07-29T20:55:25Z</time></trkpt>
<trkpt lat="35.140549" lon="-84.95221"><ele>289.6</ele><time>2026-07-29T20:55:28Z</time></trkpt>
<trkpt lat="35.140514" lon="-84.952201"><ele>289.3</ele><time>2026-07-29T20:55:31Z</time></trkpt>
<trkpt lat="35.140482" lon="-84.952192"><ele>289.0</ele><time>2026-07-29T20:55:34Z</time></trkpt>
<trkpt lat="35.140449" lon="-84.952191"><ele>290.5</ele><time>2026-07-29T20:55:37Z</time></trkpt>
<trkpt lat="35.140416" lon="-84.952192"><ele>289.6</ele><time>2026-07-29T20:55:40Z</time></trkpt>
<trkpt lat="35.140378" lon="-84.952194"><ele>290.2</ele><time>2026-07-29T20:55:43Z</time></trkpt>
<trkpt lat="35.140338" lon="-84.952198"><ele>289.9</ele><time>2026-07-29T20:55:46Z</time></trkpt>
<trkpt lat="35.140302" lon="-84.952206"><ele>289.0</ele><time>2026-07-29T20:55:49Z</time></trkpt>
<trkpt lat="35.140268" lon="-84.952223"><ele>288.3</ele><time>2026-07-29T20:55:52Z</time></trkpt>
<trkpt lat="35.140246" lon="-84.952254"><ele>287.7</ele><time>2026-07-29T20:55:55Z</time></trkpt>
<trkpt lat="35.140216" lon="-84.952278"><ele>287.4</ele><time>2026-07-29T20:55:58Z</time></trkpt>
<trkpt lat="35.140193" lon="-84.952297"><ele>288.6</ele><time>2026-07-29T20:56:00Z</time></trkpt>
<trkpt lat="35.140157" lon="-84.952307"><ele>287.7</ele><time>2026-07-29T20:56:03Z</time></trkpt>
<trkpt lat="35.140117" lon="-84.952318"><ele>288.3</ele><time>2026-07-29T20:56:06Z</time></trkpt>
<trkpt lat="35.14008" lon="-84.952331"><ele>287.7</ele><time>2026-07-29T20:56:09Z</time></trkpt>
<trkpt lat="35.14004" lon="-84.952331"><ele>288.0</ele><time>2026-07-29T20:56:12Z</time></trkpt>
<trkpt lat="35.140001" lon="-84.952333"><ele>288.0</ele><time>2026-07-29T20:56:15Z</time></trkpt>
<trkpt lat="35.139966" lon="-84.952345"><ele>286.8</ele><time>2026-07-29T20:56:18Z</time></trkpt>
<trkpt lat="35.139934" lon="-84.952356"><ele>285.9</ele><time>2026-07-29T20:56:21Z</time></trkpt>
<trkpt lat="35.139895" lon="-84.95237"><ele>285.9</ele><time>2026-07-29T20:56:24Z</time></trkpt>
<trkpt lat="35.139856" lon="-84.952379"><ele>285.6</ele><time>2026-07-29T20:56:27Z</time></trkpt>
<trkpt lat="35.139821" lon="-84.95239"><ele>284.7</ele><time>2026-07-29T20:56:30Z</time></trkpt>
<trkpt lat="35.139783" lon="-84.9524"><ele>284.1</ele><time>2026-07-29T20:56:33Z</time></trkpt>
<trkpt lat="35.139749" lon="-84.952419"><ele>283.5</ele><time>2026-07-29T20:56:36Z</time></trkpt>
<trkpt lat="35.139713" lon="-84.952429"><ele>284.1</ele><time>2026-07-29T20:56:39Z</time></trkpt>
<trkpt lat="35.139679" lon="-84.952434"><ele>283.2</ele><time>2026-07-29T20:56:42Z</time></trkpt>
<trkpt lat="35.139641" lon="-84.952429"><ele>282.5</ele><time>2026-07-29T20:56:45Z</time></trkpt>
<trkpt lat="35.139604" lon="-84.952418"><ele>283.8</ele><time>2026-07-29T20:56:48Z</time></trkpt>
<trkpt lat="35.139564" lon="-84.952415"><ele>284.4</ele><time>2026-07-29T20:56:51Z</time></trkpt>
<trkpt lat="35.139526" lon="-84.952411"><ele>285.0</ele><time>2026-07-29T20:56:54Z</time></trkpt>
<trkpt lat="35.139491" lon="-84.952399"><ele>283.8</ele><time>2026-07-29T20:56:57Z</time></trkpt>
<trkpt lat="35.139455" lon="-84.952384"><ele>284.1</ele><time>2026-07-29T20:57:00Z</time></trkpt>
<trkpt lat="35.139436" lon="-84.95236"><ele>285.0</ele><time>2026-07-29T20:57:02Z</time></trkpt>
<trkpt lat="35.139404" lon="-84.95234"><ele>285.0</ele><time>2026-07-29T20:57:05Z</time></trkpt>
<trkpt lat="35.139373" lon="-84.952319"><ele>285.9</ele><time>2026-07-29T20:57:08Z</time></trkpt>
<trkpt lat="35.139339" lon="-84.952309"><ele>287.1</ele><time>2026-07-29T20:57:11Z</time></trkpt>
<trkpt lat="35.139307" lon="-84.952294"><ele>287.1</ele><time>2026-07-29T20:57:14Z</time></trkpt>
<trkpt lat="35.139282" lon="-84.952271"><ele>286.8</ele><time>2026-07-29T20:57:17Z</time></trkpt>
<trkpt lat="35.139254" lon="-84.952248"><ele>287.1</ele><time>2026-07-29T20:57:20Z</time></trkpt>
<trkpt lat="35.139225" lon="-84.952218"><ele>287.7</ele><time>2026-07-29T20:57:23Z</time></trkpt>
<trkpt lat="35.139199" lon="-84.95219"><ele>287.1</ele><time>2026-07-29T20:57:26Z</time></trkpt>
<trkpt lat="35.139169" lon="-84.952174"><ele>287.1</ele><time>2026-07-29T20:57:29Z</time></trkpt>
<trkpt lat="35.139134" lon="-84.952178"><ele>286.2</ele><time>2026-07-29T20:57:32Z</time></trkpt>
<trkpt lat="35.139101" lon="-84.952195"><ele>284.7</ele><time>2026-07-29T20:57:35Z</time></trkpt>
<trkpt lat="35.139073" lon="-84.952222"><ele>282.2</ele><time>2026-07-29T20:57:38Z</time></trkpt>
<trkpt lat="35.139037" lon="-84.952223"><ele>282.2</ele><time>2026-07-29T20:57:41Z</time></trkpt>
<trkpt lat="35.139004" lon="-84.952205"><ele>281.9</ele><time>2026-07-29T20:57:44Z</time></trkpt>
<trkpt lat="35.138968" lon="-84.952205"><ele>281.0</ele><time>2026-07-29T20:57:47Z</time></trkpt>
<trkpt lat="35.138928" lon="-84.952202"><ele>279.8</ele><time>2026-07-29T20:57:50Z</time></trkpt>
<trkpt lat="35.138897" lon="-84.952198"><ele>278.6</ele><time>2026-07-29T20:57:53Z</time></trkpt>
<trkpt lat="35.138867" lon="-84.952193"><ele>277.1</ele><time>2026-07-29T20:57:56Z</time></trkpt>
<trkpt lat="35.138833" lon="-84.952173"><ele>276.1</ele><time>2026-07-29T20:57:59Z</time></trkpt>
<trkpt lat="35.138804" lon="-84.952151"><ele>276.1</ele><time>2026-07-29T20:58:02Z</time></trkpt>
<trkpt lat="35.138776" lon="-84.952132"><ele>275.8</ele><time>2026-07-29T20:58:05Z</time></trkpt>
<trkpt lat="35.13874" lon="-84.952151"><ele>276.1</ele><time>2026-07-29T20:58:08Z</time></trkpt>
<trkpt lat="35.138711" lon="-84.952186"><ele>276.8</ele><time>2026-07-29T20:58:11Z</time></trkpt>
<trkpt lat="35.138682" lon="-84.95222"><ele>276.5</ele><time>2026-07-29T20:58:14Z</time></trkpt>
<trkpt lat="35.138665" lon="-84.952247"><ele>276.1</ele><time>2026-07-29T20:58:16Z</time></trkpt>
<trkpt lat="35.138642" lon="-84.952281"><ele>275.2</ele><time>2026-07-29T20:58:19Z</time></trkpt>
<trkpt lat="35.138611" lon="-84.952309"><ele>276.8</ele><time>2026-07-29T20:58:22Z</time></trkpt>
<trkpt lat="35.138579" lon="-84.952326"><ele>277.1</ele><time>2026-07-29T20:58:25Z</time></trkpt>
<trkpt lat="35.138544" lon="-84.952343"><ele>277.1</ele><time>2026-07-29T20:58:28Z</time></trkpt>
<trkpt lat="35.138509" lon="-84.952354"><ele>276.1</ele><time>2026-07-29T20:58:31Z</time></trkpt>
<trkpt lat="35.138477" lon="-84.952351"><ele>276.1</ele><time>2026-07-29T20:58:34Z</time></trkpt>
<trkpt lat="35.138445" lon="-84.952332"><ele>276.1</ele><time>2026-07-29T20:58:37Z</time></trkpt>
<trkpt lat="35.13841" lon="-84.95232"><ele>275.8</ele><time>2026-07-29T20:58:40Z</time></trkpt>
<trkpt lat="35.138373" lon="-84.952314"><ele>275.8</ele><time>2026-07-29T20:58:43Z</time></trkpt>
<trkpt lat="35.138338" lon="-84.952315"><ele>277.1</ele><time>2026-07-29T20:58:46Z</time></trkpt>
<trkpt lat="35.138299" lon="-84.952313"><ele>277.1</ele><time>2026-07-29T20:58:49Z</time></trkpt>
<trkpt lat="35.13826" lon="-84.952317"><ele>277.1</ele><time>2026-07-29T20:58:52Z</time></trkpt>
<trkpt lat="35.138222" lon="-84.952307"><ele>276.5</ele><time>2026-07-29T20:58:55Z</time></trkpt>
<trkpt lat="35.138192" lon="-84.952285"><ele>276.1</ele><time>2026-07-29T20:58:58Z</time></trkpt>
<trkpt lat="35.138163" lon="-84.952257"><ele>278.0</ele><time>2026-07-29T20:59:01Z</time></trkpt>
<trkpt lat="35.138132" lon="-84.952237"><ele>278.6</ele><time>2026-07-29T20:59:04Z</time></trkpt>
<trkpt lat="35.138104" lon="-84.952207"><ele>279.2</ele><time>2026-07-29T20:59:07Z</time></trkpt>
<trkpt lat="35.138075" lon="-84.952178"><ele>278.9</ele><time>2026-07-29T20:59:10Z</time></trkpt>
<trkpt lat="35.138055" lon="-84.952144"><ele>278.9</ele><time>2026-07-29T20:59:13Z</time></trkpt>
<trkpt lat="35.138032" lon="-84.95211"><ele>278.0</ele><time>2026-07-29T20:59:17Z</time></trkpt>
<trkpt lat="35.138009" lon="-84.952083"><ele>277.7</ele><time>2026-07-29T20:59:20Z</time></trkpt>
<trkpt lat="35.137986" lon="-84.952052"><ele>277.7</ele><time>2026-07-29T20:59:23Z</time></trkpt>
<trkpt lat="35.137954" lon="-84.952028"><ele>277.4</ele><time>2026-07-29T20:59:26Z</time></trkpt>
<trkpt lat="35.137918" lon="-84.952009"><ele>278.6</ele><time>2026-07-29T20:59:29Z</time></trkpt>
<trkpt lat="35.137882" lon="-84.95199"><ele>278.6</ele><time>2026-07-29T20:59:32Z</time></trkpt>
<trkpt lat="35.137851" lon="-84.95196"><ele>277.1</ele><time>2026-07-29T20:59:35Z</time></trkpt>
<trkpt lat="35.137823" lon="-84.951927"><ele>276.1</ele><time>2026-07-29T20:59:38Z</time></trkpt>
<trkpt lat="35.137796" lon="-84.9519"><ele>276.1</ele><time>2026-07-29T20:59:41Z</time></trkpt>
<trkpt lat="35.137764" lon="-84.951879"><ele>275.8</ele><time>2026-07-29T20:59:44Z</time></trkpt>
<trkpt lat="35.137734" lon="-84.951854"><ele>275.5</ele><time>2026-07-29T20:59:47Z</time></trkpt>
<trkpt lat="35.13771" lon="-84.951825"><ele>275.5</ele><time>2026-07-29T20:59:50Z</time></trkpt>
<trkpt lat="35.13769" lon="-84.951786"><ele>275.5</ele><time>2026-07-29T20:59:53Z</time></trkpt>
<trkpt lat="35.137667" lon="-84.951755"><ele>275.2</ele><time>2026-07-29T20:59:56Z</time></trkpt>
<trkpt lat="35.137643" lon="-84.951737"><ele>275.2</ele><time>2026-07-29T20:59:58Z</time></trkpt>
<trkpt lat="35.137611" lon="-84.951709"><ele>274.3</ele><time>2026-07-29T21:00:01Z</time></trkpt>
<trkpt lat="35.137585" lon="-84.951671"><ele>275.5</ele><time>2026-07-29T21:00:04Z</time></trkpt>
<trkpt lat="35.137562" lon="-84.95165"><ele>276.1</ele><time>2026-07-29T21:00:06Z</time></trkpt>
<trkpt lat="35.137534" lon="-84.95162"><ele>276.8</ele><time>2026-07-29T21:00:09Z</time></trkpt>
<trkpt lat="35.137528" lon="-84.951574"><ele>277.4</ele><time>2026-07-29T21:00:12Z</time></trkpt>
<trkpt lat="35.137532" lon="-84.95154"><ele>277.7</ele><time>2026-07-29T21:00:14Z</time></trkpt>
<trkpt lat="35.137512" lon="-84.951499"><ele>277.1</ele><time>2026-07-29T21:00:17Z</time></trkpt>
<trkpt lat="35.137491" lon="-84.951476"><ele>276.1</ele><time>2026-07-29T21:00:19Z</time></trkpt>
<trkpt lat="35.137467" lon="-84.951456"><ele>275.8</ele><time>2026-07-29T21:00:21Z</time></trkpt>
<trkpt lat="35.137445" lon="-84.951433"><ele>275.2</ele><time>2026-07-29T21:00:23Z</time></trkpt>
<trkpt lat="35.137413" lon="-84.951401"><ele>275.2</ele><time>2026-07-29T21:00:26Z</time></trkpt>
<trkpt lat="35.137389" lon="-84.951384"><ele>274.9</ele><time>2026-07-29T21:00:28Z</time></trkpt>
<trkpt lat="35.137359" lon="-84.951376"><ele>274.6</ele><time>2026-07-29T21:00:30Z</time></trkpt>
<trkpt lat="35.137329" lon="-84.951381"><ele>274.3</ele><time>2026-07-29T21:00:32Z</time></trkpt>
<trkpt lat="35.137293" lon="-84.951399"><ele>274.9</ele><time>2026-07-29T21:00:35Z</time></trkpt>
<trkpt lat="35.137269" lon="-84.951434"><ele>273.7</ele><time>2026-07-29T21:00:38Z</time></trkpt>
<trkpt lat="35.137243" lon="-84.951472"><ele>274.0</ele><time>2026-07-29T21:00:41Z</time></trkpt>
<trkpt lat="35.137232" lon="-84.951504"><ele>273.1</ele><time>2026-07-29T21:00:43Z</time></trkpt>
<trkpt lat="35.137222" lon="-84.951537"><ele>272.8</ele><time>2026-07-29T21:00:45Z</time></trkpt>
<trkpt lat="35.137215" lon="-84.951585"><ele>271.3</ele><time>2026-07-29T21:00:48Z</time></trkpt>
<trkpt lat="35.137208" lon="-84.951633"><ele>271.0</ele><time>2026-07-29T21:00:51Z</time></trkpt>
<trkpt lat="35.137198" lon="-84.951678"><ele>271.0</ele><time>2026-07-29T21:00:54Z</time></trkpt>
<trkpt lat="35.137193" lon="-84.951713"><ele>271.0</ele><time>2026-07-29T21:00:56Z</time></trkpt>
<trkpt lat="35.137186" lon="-84.951746"><ele>271.3</ele><time>2026-07-29T21:00:58Z</time></trkpt>
<trkpt lat="35.137174" lon="-84.951788"><ele>271.3</ele><time>2026-07-29T21:01:01Z</time></trkpt>
<trkpt lat="35.137162" lon="-84.951829"><ele>270.7</ele><time>2026-07-29T21:01:04Z</time></trkpt>
<trkpt lat="35.137149" lon="-84.95187"><ele>270.7</ele><time>2026-07-29T21:01:07Z</time></trkpt>
<trkpt lat="35.137145" lon="-84.951911"><ele>270.4</ele><time>2026-07-29T21:01:10Z</time></trkpt>
<trkpt lat="35.137136" lon="-84.951952"><ele>270.1</ele><time>2026-07-29T21:01:13Z</time></trkpt>
<trkpt lat="35.137123" lon="-84.951996"><ele>270.4</ele><time>2026-07-29T21:01:16Z</time></trkpt>
<trkpt lat="35.137112" lon="-84.95204"><ele>269.7</ele><time>2026-07-29T21:01:19Z</time></trkpt>
<trkpt lat="35.137098" lon="-84.952083"><ele>269.7</ele><time>2026-07-29T21:01:22Z</time></trkpt>
<trkpt lat="35.137074" lon="-84.952124"><ele>271.6</ele><time>2026-07-29T21:01:25Z</time></trkpt>
<trkpt lat="35.137055" lon="-84.952149"><ele>272.2</ele><time>2026-07-29T21:01:27Z</time></trkpt>
<trkpt lat="35.137029" lon="-84.952186"><ele>274.3</ele><time>2026-07-29T21:01:30Z</time></trkpt>
<trkpt lat="35.137008" lon="-84.952225"><ele>275.5</ele><time>2026-07-29T21:01:33Z</time></trkpt>
<trkpt lat="35.136999" lon="-84.952268"><ele>276.5</ele><time>2026-07-29T21:01:36Z</time></trkpt>
<trkpt lat="35.136995" lon="-84.952301"><ele>275.2</ele><time>2026-07-29T21:01:38Z</time></trkpt>
<trkpt lat="35.136976" lon="-84.95234"><ele>274.9</ele><time>2026-07-29T21:01:41Z</time></trkpt>
<trkpt lat="35.136948" lon="-84.952372"><ele>276.5</ele><time>2026-07-29T21:01:44Z</time></trkpt>
<trkpt lat="35.136918" lon="-84.952393"><ele>277.4</ele><time>2026-07-29T21:01:47Z</time></trkpt>
<trkpt lat="35.136884" lon="-84.952409"><ele>278.0</ele><time>2026-07-29T21:01:50Z</time></trkpt>
<trkpt lat="35.136848" lon="-84.95242"><ele>279.2</ele><time>2026-07-29T21:01:53Z</time></trkpt>
<trkpt lat="35.136812" lon="-84.952428"><ele>278.9</ele><time>2026-07-29T21:01:56Z</time></trkpt>
<trkpt lat="35.136777" lon="-84.952443"><ele>279.5</ele><time>2026-07-29T21:01:59Z</time></trkpt>
<trkpt lat="35.136742" lon="-84.952463"><ele>280.4</ele><time>2026-07-29T21:02:02Z</time></trkpt>
<trkpt lat="35.136707" lon="-84.952479"><ele>279.2</ele><time>2026-07-29T21:02:05Z</time></trkpt>
<trkpt lat="35.136671" lon="-84.952492"><ele>278.3</ele><time>2026-07-29T21:02:08Z</time></trkpt>
<trkpt lat="35.136634" lon="-84.952503"><ele>278.3</ele><time>2026-07-29T21:02:11Z</time></trkpt>
<trkpt lat="35.13661" lon="-84.952537"><ele>274.0</ele><time>2026-07-29T21:02:14Z</time></trkpt>
<trkpt lat="35.136579" lon="-84.952569"><ele>275.8</ele><time>2026-07-29T21:02:17Z</time></trkpt>
<trkpt lat="35.136568" lon="-84.952604"><ele>276.5</ele><time>2026-07-29T21:02:19Z</time></trkpt>
<trkpt lat="35.136554" lon="-84.952648"><ele>275.2</ele><time>2026-07-29T21:02:22Z</time></trkpt>
<trkpt lat="35.136532" lon="-84.952682"><ele>274.9</ele><time>2026-07-29T21:02:25Z</time></trkpt>
<trkpt lat="35.136499" lon="-84.952691"><ele>273.4</ele><time>2026-07-29T21:02:28Z</time></trkpt>
<trkpt lat="35.136462" lon="-84.952694"><ele>273.1</ele><time>2026-07-29T21:02:31Z</time></trkpt>
<trkpt lat="35.136435" lon="-84.952686"><ele>273.1</ele><time>2026-07-29T21:02:33Z</time></trkpt>
<trkpt lat="35.136408" lon="-84.952681"><ele>274.3</ele><time>2026-07-29T21:02:35Z</time></trkpt>
<trkpt lat="35.136371" lon="-84.952679"><ele>274.6</ele><time>2026-07-29T21:02:38Z</time></trkpt>
<trkpt lat="35.136335" lon="-84.952682"><ele>274.6</ele><time>2026-07-29T21:02:41Z</time></trkpt>
<trkpt lat="35.136297" lon="-84.952694"><ele>275.5</ele><time>2026-07-29T21:02:44Z</time></trkpt>
<trkpt lat="35.13627" lon="-84.952701"><ele>276.5</ele><time>2026-07-29T21:02:46Z</time></trkpt>
<trkpt lat="35.136229" lon="-84.952704"><ele>276.8</ele><time>2026-07-29T21:02:49Z</time></trkpt>
<trkpt lat="35.136208" lon="-84.952725"><ele>276.5</ele><time>2026-07-29T21:02:51Z</time></trkpt>
<trkpt lat="35.136186" lon="-84.952749"><ele>276.8</ele><time>2026-07-29T21:02:53Z</time></trkpt>
<trkpt lat="35.136164" lon="-84.95277"><ele>278.0</ele><time>2026-07-29T21:02:55Z</time></trkpt>
<trkpt lat="35.136134" lon="-84.952801"><ele>278.3</ele><time>2026-07-29T21:02:58Z</time></trkpt>
<trkpt lat="35.136097" lon="-84.952815"><ele>277.1</ele><time>2026-07-29T21:03:01Z</time></trkpt>
<trkpt lat="35.136061" lon="-84.952831"><ele>276.5</ele><time>2026-07-29T21:03:04Z</time></trkpt>
<trkpt lat="35.136035" lon="-84.952847"><ele>274.9</ele><time>2026-07-29T21:03:06Z</time></trkpt>
<trkpt lat="35.136012" lon="-84.952873"><ele>274.6</ele><time>2026-07-29T21:03:08Z</time></trkpt>
<trkpt lat="35.135993" lon="-84.952904"><ele>274.6</ele><time>2026-07-29T21:03:10Z</time></trkpt>
<trkpt lat="35.135984" lon="-84.952941"><ele>274.9</ele><time>2026-07-29T21:03:12Z</time></trkpt>
<trkpt lat="35.135992" lon="-84.95299"><ele>270.7</ele><time>2026-07-29T21:03:14Z</time></trkpt>
<trkpt lat="35.136009" lon="-84.953034"><ele>267.9</ele><time>2026-07-29T21:03:16Z</time></trkpt>
<trkpt lat="35.136024" lon="-84.95307"><ele>267.9</ele><time>2026-07-29T21:03:18Z</time></trkpt>
<trkpt lat="35.136038" lon="-84.953102"><ele>265.8</ele><time>2026-07-29T21:03:20Z</time></trkpt>
<trkpt lat="35.136066" lon="-84.953135"><ele>265.5</ele><time>2026-07-29T21:03:23Z</time></trkpt>
<trkpt lat="35.136088" lon="-84.953158"><ele>265.8</ele><time>2026-07-29T21:03:25Z</time></trkpt>
<trkpt lat="35.136112" lon="-84.953179"><ele>266.1</ele><time>2026-07-29T21:03:27Z</time></trkpt>
<trkpt lat="35.136145" lon="-84.953199"><ele>267.9</ele><time>2026-07-29T21:03:30Z</time></trkpt>
<trkpt lat="35.136165" lon="-84.953232"><ele>266.7</ele><time>2026-07-29T21:03:33Z</time></trkpt>
<trkpt lat="35.136157" lon="-84.953281"><ele>267.3</ele><time>2026-07-29T21:03:36Z</time></trkpt>
<trkpt lat="35.13613" lon="-84.953318"><ele>269.1</ele><time>2026-07-29T21:03:39Z</time></trkpt>
<trkpt lat="35.136109" lon="-84.953341"><ele>269.7</ele><time>2026-07-29T21:03:41Z</time></trkpt>
<trkpt lat="35.136075" lon="-84.953355"><ele>270.4</ele><time>2026-07-29T21:03:44Z</time></trkpt>
<trkpt lat="35.136048" lon="-84.953361"><ele>270.7</ele><time>2026-07-29T21:03:46Z</time></trkpt>
<trkpt lat="35.136012" lon="-84.953367"><ele>271.3</ele><time>2026-07-29T21:03:49Z</time></trkpt>
<trkpt lat="35.135974" lon="-84.953378"><ele>271.6</ele><time>2026-07-29T21:03:52Z</time></trkpt>
<trkpt lat="35.135947" lon="-84.953406"><ele>271.6</ele><time>2026-07-29T21:03:55Z</time></trkpt>
<trkpt lat="35.135934" lon="-84.953454"><ele>272.5</ele><time>2026-07-29T21:03:58Z</time></trkpt>
<trkpt lat="35.135937" lon="-84.953505"><ele>271.3</ele><time>2026-07-29T21:04:01Z</time></trkpt>
<trkpt lat="35.135944" lon="-84.953553"><ele>270.7</ele><time>2026-07-29T21:04:04Z</time></trkpt>
<trkpt lat="35.135965" lon="-84.953579"><ele>269.1</ele><time>2026-07-29T21:04:06Z</time></trkpt>
<trkpt lat="35.135997" lon="-84.953609"><ele>271.3</ele><time>2026-07-29T21:04:09Z</time></trkpt>
<trkpt lat="35.136021" lon="-84.95363"><ele>271.0</ele><time>2026-07-29T21:04:11Z</time></trkpt>
<trkpt lat="35.136042" lon="-84.953652"><ele>271.6</ele><time>2026-07-29T21:04:13Z</time></trkpt>
<trkpt lat="35.136073" lon="-84.953682"><ele>269.7</ele><time>2026-07-29T21:04:16Z</time></trkpt>
<trkpt lat="35.136098" lon="-84.953721"><ele>269.7</ele><time>2026-07-29T21:04:19Z</time></trkpt>
<trkpt lat="35.136109" lon="-84.953755"><ele>268.5</ele><time>2026-07-29T21:04:21Z</time></trkpt>
<trkpt lat="35.136108" lon="-84.95379"><ele>270.4</ele><time>2026-07-29T21:04:23Z</time></trkpt>
<trkpt lat="35.136091" lon="-84.953817"><ele>270.4</ele><time>2026-07-29T21:04:25Z</time></trkpt>
<trkpt lat="35.136068" lon="-84.953849"><ele>270.4</ele><time>2026-07-29T21:04:28Z</time></trkpt>
<trkpt lat="35.136047" lon="-84.953883"><ele>269.1</ele><time>2026-07-29T21:04:31Z</time></trkpt>
<trkpt lat="35.136029" lon="-84.953923"><ele>268.8</ele><time>2026-07-29T21:04:34Z</time></trkpt>
<trkpt lat="35.136003" lon="-84.953957"><ele>269.4</ele><time>2026-07-29T21:04:37Z</time></trkpt>
<trkpt lat="35.135972" lon="-84.953956"><ele>267.9</ele><time>2026-07-29T21:04:39Z</time></trkpt>
<trkpt lat="35.135942" lon="-84.953943"><ele>269.7</ele><time>2026-07-29T21:04:41Z</time></trkpt>
<trkpt lat="35.135902" lon="-84.953928"><ele>269.7</ele><time>2026-07-29T21:04:44Z</time></trkpt>
<trkpt lat="35.135874" lon="-84.953915"><ele>271.3</ele><time>2026-07-29T21:04:46Z</time></trkpt>
<trkpt lat="35.135851" lon="-84.953895"><ele>272.5</ele><time>2026-07-29T21:04:48Z</time></trkpt>
<trkpt lat="35.135828" lon="-84.953874"><ele>273.1</ele><time>2026-07-29T21:04:50Z</time></trkpt>
<trkpt lat="35.135803" lon="-84.953859"><ele>273.1</ele><time>2026-07-29T21:04:52Z</time></trkpt>
<trkpt lat="35.135775" lon="-84.953851"><ele>271.6</ele><time>2026-07-29T21:04:54Z</time></trkpt>
<trkpt lat="35.135734" lon="-84.953845"><ele>271.6</ele><time>2026-07-29T21:04:57Z</time></trkpt>
<trkpt lat="35.135707" lon="-84.953837"><ele>271.9</ele><time>2026-07-29T21:04:59Z</time></trkpt>
<trkpt lat="35.135679" lon="-84.953834"><ele>272.2</ele><time>2026-07-29T21:05:01Z</time></trkpt>
<trkpt lat="35.135639" lon="-84.953837"><ele>272.5</ele><time>2026-07-29T21:05:04Z</time></trkpt>
<trkpt lat="35.135601" lon="-84.953829"><ele>273.7</ele><time>2026-07-29T21:05:07Z</time></trkpt>
<trkpt lat="35.135561" lon="-84.953824"><ele>273.4</ele><time>2026-07-29T21:05:10Z</time></trkpt>
<trkpt lat="35.135533" lon="-84.953837"><ele>273.7</ele><time>2026-07-29T21:05:12Z</time></trkpt>
<trkpt lat="35.135505" lon="-84.953846"><ele>272.5</ele><time>2026-07-29T21:05:14Z</time></trkpt>
<trkpt lat="35.135466" lon="-84.953849"><ele>271.0</ele><time>2026-07-29T21:05:17Z</time></trkpt>
<trkpt lat="35.135429" lon="-84.953842"><ele>272.8</ele><time>2026-07-29T21:05:20Z</time></trkpt>
<trkpt lat="35.135402" lon="-84.953856"><ele>271.9</ele><time>2026-07-29T21:05:22Z</time></trkpt>
<trkpt lat="35.135383" lon="-84.953881"><ele>271.3</ele><time>2026-07-29T21:05:24Z</time></trkpt>
<trkpt lat="35.135368" lon="-84.953911"><ele>271.3</ele><time>2026-07-29T21:05:26Z</time></trkpt>
<trkpt lat="35.135351" lon="-84.953941"><ele>269.7</ele><time>2026-07-29T21:05:28Z</time></trkpt>
<trkpt lat="35.135341" lon="-84.953974"><ele>269.7</ele><time>2026-07-29T21:05:30Z</time></trkpt>
<trkpt lat="35.135342" lon="-84.954011"><ele>267.9</ele><time>2026-07-29T21:05:32Z</time></trkpt>
<trkpt lat="35.135367" lon="-84.954049"><ele>267.0</ele><time>2026-07-29T21:05:35Z</time></trkpt>
<trkpt lat="35.135396" lon="-84.95407"><ele>265.8</ele><time>2026-07-29T21:05:37Z</time></trkpt>
<trkpt lat="35.135429" lon="-84.954076"><ele>265.2</ele><time>2026-07-29T21:05:39Z</time></trkpt>
<trkpt lat="35.135459" lon="-84.95408"><ele>265.5</ele><time>2026-07-29T21:05:41Z</time></trkpt>
<trkpt lat="35.135488" lon="-84.954091"><ele>267.0</ele><time>2026-07-29T21:05:43Z</time></trkpt>
<trkpt lat="35.135517" lon="-84.954101"><ele>267.3</ele><time>2026-07-29T21:05:45Z</time></trkpt>
<trkpt lat="35.135545" lon="-84.954106"><ele>267.9</ele><time>2026-07-29T21:05:47Z</time></trkpt>
<trkpt lat="35.135574" lon="-84.954113"><ele>267.3</ele><time>2026-07-29T21:05:49Z</time></trkpt>
<trkpt lat="35.135603" lon="-84.954125"><ele>268.8</ele><time>2026-07-29T21:05:51Z</time></trkpt>
<trkpt lat="35.135629" lon="-84.954139"><ele>268.8</ele><time>2026-07-29T21:05:53Z</time></trkpt>
<trkpt lat="35.135653" lon="-84.954156"><ele>268.2</ele><time>2026-07-29T21:05:55Z</time></trkpt>
<trkpt lat="35.135689" lon="-84.954178"><ele>270.1</ele><time>2026-07-29T21:05:58Z</time></trkpt>
<trkpt lat="35.13572" lon="-84.954203"><ele>269.1</ele><time>2026-07-29T21:06:01Z</time></trkpt>
<trkpt lat="35.135759" lon="-84.954209"><ele>267.6</ele><time>2026-07-29T21:06:04Z</time></trkpt>
<trkpt lat="35.135795" lon="-84.95422"><ele>269.4</ele><time>2026-07-29T21:06:07Z</time></trkpt>
<trkpt lat="35.135831" lon="-84.954238"><ele>271.6</ele><time>2026-07-29T21:06:10Z</time></trkpt>
<trkpt lat="35.135868" lon="-84.954256"><ele>273.4</ele><time>2026-07-29T21:06:13Z</time></trkpt>
<trkpt lat="35.135905" lon="-84.954267"><ele>273.7</ele><time>2026-07-29T21:06:16Z</time></trkpt>
<trkpt lat="35.13594" lon="-84.954289"><ele>274.0</ele><time>2026-07-29T21:06:19Z</time></trkpt>
<trkpt lat="35.135974" lon="-84.954306"><ele>272.8</ele><time>2026-07-29T21:06:22Z</time></trkpt>
<trkpt lat="35.136009" lon="-84.954318"><ele>272.8</ele><time>2026-07-29T21:06:25Z</time></trkpt>
<trkpt lat="35.136038" lon="-84.954314"><ele>272.8</ele><time>2026-07-29T21:06:27Z</time></trkpt>
<trkpt lat="35.136067" lon="-84.954305"><ele>273.4</ele><time>2026-07-29T21:06:29Z</time></trkpt>
<trkpt lat="35.136095" lon="-84.954308"><ele>272.8</ele><time>2026-07-29T21:06:31Z</time></trkpt>
<trkpt lat="35.136121" lon="-84.95434"><ele>271.3</ele><time>2026-07-29T21:06:34Z</time></trkpt>
<trkpt lat="35.136128" lon="-84.954377"><ele>269.1</ele><time>2026-07-29T21:06:37Z</time></trkpt>
<trkpt lat="35.136154" lon="-84.954409"><ele>269.4</ele><time>2026-07-29T21:06:40Z</time></trkpt>
<trkpt lat="35.136151" lon="-84.954452"><ele>270.1</ele><time>2026-07-29T21:06:43Z</time></trkpt>
<trkpt lat="35.136128" lon="-84.954489"><ele>270.4</ele><time>2026-07-29T21:06:46Z</time></trkpt>
<trkpt lat="35.136089" lon="-84.954508"><ele>270.7</ele><time>2026-07-29T21:06:49Z</time></trkpt>
<trkpt lat="35.136057" lon="-84.954495"><ele>270.7</ele><time>2026-07-29T21:06:51Z</time></trkpt>
<trkpt lat="35.136036" lon="-84.954465"><ele>272.2</ele><time>2026-07-29T21:06:53Z</time></trkpt>
<trkpt lat="35.136017" lon="-84.954435"><ele>270.4</ele><time>2026-07-29T21:06:55Z</time></trkpt>
<trkpt lat="35.135982" lon="-84.954418"><ele>271.6</ele><time>2026-07-29T21:06:58Z</time></trkpt>
<trkpt lat="35.135949" lon="-84.954426"><ele>271.9</ele><time>2026-07-29T21:07:01Z</time></trkpt>
<trkpt lat="35.135913" lon="-84.954448"><ele>272.5</ele><time>2026-07-29T21:07:04Z</time></trkpt>
<trkpt lat="35.135878" lon="-84.95447"><ele>273.4</ele><time>2026-07-29T21:07:07Z</time></trkpt>
<trkpt lat="35.135841" lon="-84.954478"><ele>272.8</ele><time>2026-07-29T21:07:10Z</time></trkpt>
<trkpt lat="35.135813" lon="-84.954478"><ele>273.7</ele><time>2026-07-29T21:07:12Z</time></trkpt>
<trkpt lat="35.135776" lon="-84.954467"><ele>272.8</ele><time>2026-07-29T21:07:15Z</time></trkpt>
<trkpt lat="35.135743" lon="-84.954449"><ele>272.2</ele><time>2026-07-29T21:07:18Z</time></trkpt>
<trkpt lat="35.13571" lon="-84.954427"><ele>271.6</ele><time>2026-07-29T21:07:21Z</time></trkpt>
<trkpt lat="35.135675" lon="-84.954412"><ele>272.8</ele><time>2026-07-29T21:07:24Z</time></trkpt>
<trkpt lat="35.13565" lon="-84.954394"><ele>274.0</ele><time>2026-07-29T21:07:26Z</time></trkpt>
<trkpt lat="35.135624" lon="-84.954359"><ele>274.3</ele><time>2026-07-29T21:07:29Z</time></trkpt>
<trkpt lat="35.135593" lon="-84.954332"><ele>272.8</ele><time>2026-07-29T21:07:32Z</time></trkpt>
<trkpt lat="35.135558" lon="-84.954313"><ele>272.8</ele><time>2026-07-29T21:07:35Z</time></trkpt>
<trkpt lat="35.135524" lon="-84.954295"><ele>272.2</ele><time>2026-07-29T21:07:38Z</time></trkpt>
<trkpt lat="35.135491" lon="-84.954273"><ele>271.3</ele><time>2026-07-29T21:07:41Z</time></trkpt>
<trkpt lat="35.135463" lon="-84.954267"><ele>270.4</ele><time>2026-07-29T21:07:43Z</time></trkpt>
<trkpt lat="35.135429" lon="-84.954282"><ele>270.4</ele><time>2026-07-29T21:07:46Z</time></trkpt>
<trkpt lat="35.135425" lon="-84.954326"><ele>268.8</ele><time>2026-07-29T21:07:48Z</time></trkpt>
<trkpt lat="35.135444" lon="-84.954365"><ele>266.7</ele><time>2026-07-29T21:07:50Z</time></trkpt>
<trkpt lat="35.135465" lon="-84.954393"><ele>265.2</ele><time>2026-07-29T21:07:52Z</time></trkpt>
<trkpt lat="35.13549" lon="-84.954419"><ele>264.6</ele><time>2026-07-29T21:07:54Z</time></trkpt>
<trkpt lat="35.135516" lon="-84.954445"><ele>264.0</ele><time>2026-07-29T21:07:56Z</time></trkpt>
<trkpt lat="35.135547" lon="-84.95446"><ele>263.0</ele><time>2026-07-29T21:07:58Z</time></trkpt>
<trkpt lat="35.135571" lon="-84.954484"><ele>262.7</ele><time>2026-07-29T21:08:00Z</time></trkpt>
<trkpt lat="35.135595" lon="-84.954504"><ele>262.7</ele><time>2026-07-29T21:08:02Z</time></trkpt>
<trkpt lat="35.13562" lon="-84.954519"><ele>263.7</ele><time>2026-07-29T21:08:04Z</time></trkpt>
<trkpt lat="35.135645" lon="-84.954535"><ele>263.0</ele><time>2026-07-29T21:08:06Z</time></trkpt>
<trkpt lat="35.135683" lon="-84.954547"><ele>263.0</ele><time>2026-07-29T21:08:09Z</time></trkpt>
<trkpt lat="35.13571" lon="-84.954561"><ele>263.7</ele><time>2026-07-29T21:08:11Z</time></trkpt>
<trkpt lat="35.135742" lon="-84.954586"><ele>263.0</ele><time>2026-07-29T21:08:14Z</time></trkpt>
<trkpt lat="35.135771" lon="-84.95462"><ele>262.4</ele><time>2026-07-29T21:08:17Z</time></trkpt>
<trkpt lat="35.135791" lon="-84.954647"><ele>262.7</ele><time>2026-07-29T21:08:19Z</time></trkpt>
<trkpt lat="35.135821" lon="-84.954681"><ele>263.7</ele><time>2026-07-29T21:08:22Z</time></trkpt>
<trkpt lat="35.135844" lon="-84.95472"><ele>264.0</ele><time>2026-07-29T21:08:25Z</time></trkpt>
<trkpt lat="35.135846" lon="-84.954756"><ele>264.6</ele><time>2026-07-29T21:08:27Z</time></trkpt>
<trkpt lat="35.135822" lon="-84.95479"><ele>260.6</ele><time>2026-07-29T21:08:30Z</time></trkpt>
<trkpt lat="35.13579" lon="-84.954786"><ele>257.6</ele><time>2026-07-29T21:08:32Z</time></trkpt>
<trkpt lat="35.135767" lon="-84.954759"><ele>257.6</ele><time>2026-07-29T21:08:34Z</time></trkpt>
<trkpt lat="35.135754" lon="-84.954725"><ele>258.5</ele><time>2026-07-29T21:08:36Z</time></trkpt>
<trkpt lat="35.135733" lon="-84.954682"><ele>259.7</ele><time>2026-07-29T21:08:39Z</time></trkpt>
<trkpt lat="35.135707" lon="-84.954668"><ele>260.0</ele><time>2026-07-29T21:08:41Z</time></trkpt>
<trkpt lat="35.135673" lon="-84.954684"><ele>260.6</ele><time>2026-07-29T21:08:44Z</time></trkpt>
<trkpt lat="35.135656" lon="-84.954728"><ele>261.2</ele><time>2026-07-29T21:08:47Z</time></trkpt>
<trkpt lat="35.135655" lon="-84.954775"><ele>260.6</ele><time>2026-07-29T21:08:50Z</time></trkpt>
<trkpt lat="35.135648" lon="-84.954819"><ele>260.6</ele><time>2026-07-29T21:08:53Z</time></trkpt>
<trkpt lat="35.135643" lon="-84.954859"><ele>259.4</ele><time>2026-07-29T21:08:56Z</time></trkpt>
<trkpt lat="35.135614" lon="-84.954888"><ele>261.8</ele><time>2026-07-29T21:08:59Z</time></trkpt>
<trkpt lat="35.135578" lon="-84.954893"><ele>262.4</ele><time>2026-07-29T21:09:02Z</time></trkpt>
<trkpt lat="35.135546" lon="-84.954901"><ele>261.8</ele><time>2026-07-29T21:09:05Z</time></trkpt>
<trkpt lat="35.135517" lon="-84.954926"><ele>261.8</ele><time>2026-07-29T21:09:08Z</time></trkpt>
<trkpt lat="35.135497" lon="-84.954958"><ele>264.9</ele><time>2026-07-29T21:09:11Z</time></trkpt>
<trkpt lat="35.135467" lon="-84.954983"><ele>265.8</ele><time>2026-07-29T21:09:15Z</time></trkpt>
<trkpt lat="35.135437" lon="-84.954982"><ele>266.4</ele><time>2026-07-29T21:09:18Z</time></trkpt>
<trkpt lat="35.135406" lon="-84.954975"><ele>265.8</ele><time>2026-07-29T21:09:21Z</time></trkpt>
<trkpt lat="35.135378" lon="-84.954968"><ele>266.7</ele><time>2026-07-29T21:09:24Z</time></trkpt>
<trkpt lat="35.135348" lon="-84.954963"><ele>267.3</ele><time>2026-07-29T21:09:27Z</time></trkpt>
<trkpt lat="35.135317" lon="-84.954947"><ele>267.3</ele><time>2026-07-29T21:09:30Z</time></trkpt>
<trkpt lat="35.13529" lon="-84.954969"><ele>270.1</ele><time>2026-07-29T21:09:33Z</time></trkpt>
<trkpt lat="35.135273" lon="-84.955006"><ele>271.0</ele><time>2026-07-29T21:09:36Z</time></trkpt>
<trkpt lat="35.135242" lon="-84.955037"><ele>270.4</ele><time>2026-07-29T21:09:39Z</time></trkpt>
<trkpt lat="35.135206" lon="-84.955038"><ele>269.7</ele><time>2026-07-29T21:09:42Z</time></trkpt>
<trkpt lat="35.135188" lon="-84.955012"><ele>270.7</ele><time>2026-07-29T21:09:44Z</time></trkpt>
<trkpt lat="35.135166" lon="-84.954976"><ele>271.0</ele><time>2026-07-29T21:09:47Z</time></trkpt>
<trkpt lat="35.135143" lon="-84.954933"><ele>270.7</ele><time>2026-07-29T21:09:50Z</time></trkpt>
<trkpt lat="35.135118" lon="-84.954897"><ele>270.4</ele><time>2026-07-29T21:09:53Z</time></trkpt>
<trkpt lat="35.135092" lon="-84.95487"><ele>268.5</ele><time>2026-07-29T21:09:56Z</time></trkpt>
<trkpt lat="35.135061" lon="-84.954852"><ele>268.5</ele><time>2026-07-29T21:09:59Z</time></trkpt>
<trkpt lat="35.135026" lon="-84.95484"><ele>268.5</ele><time>2026-07-29T21:10:02Z</time></trkpt>
<trkpt lat="35.134991" lon="-84.954828"><ele>269.7</ele><time>2026-07-29T21:10:05Z</time></trkpt>
<trkpt lat="35.134965" lon="-84.95481"><ele>269.7</ele><time>2026-07-29T21:10:08Z</time></trkpt>
<trkpt lat="35.134934" lon="-84.9548"><ele>270.7</ele><time>2026-07-29T21:10:11Z</time></trkpt>
<trkpt lat="35.1349" lon="-84.954795"><ele>270.1</ele><time>2026-07-29T21:10:14Z</time></trkpt>
<trkpt lat="35.134871" lon="-84.954802"><ele>270.1</ele><time>2026-07-29T21:10:16Z</time></trkpt>
<trkpt lat="35.134829" lon="-84.954812"><ele>270.1</ele><time>2026-07-29T21:10:19Z</time></trkpt>
<trkpt lat="35.134802" lon="-84.954821"><ele>270.1</ele><time>2026-07-29T21:10:21Z</time></trkpt>
<trkpt lat="35.134777" lon="-84.954837"><ele>270.4</ele><time>2026-07-29T21:10:23Z</time></trkpt>
<trkpt lat="35.13475" lon="-84.954851"><ele>270.4</ele><time>2026-07-29T21:10:25Z</time></trkpt>
<trkpt lat="35.134712" lon="-84.954873"><ele>270.4</ele><time>2026-07-29T21:10:28Z</time></trkpt>
<trkpt lat="35.134673" lon="-84.954886"><ele>270.1</ele><time>2026-07-29T21:10:31Z</time></trkpt>
<trkpt lat="35.134635" lon="-84.954885"><ele>271.3</ele><time>2026-07-29T21:10:34Z</time></trkpt>
<trkpt lat="35.134601" lon="-84.954889"><ele>269.7</ele><time>2026-07-29T21:10:37Z</time></trkpt>
<trkpt lat="35.134568" lon="-84.954885"><ele>271.0</ele><time>2026-07-29T21:10:40Z</time></trkpt>
<trkpt lat="35.134534" lon="-84.954882"><ele>271.6</ele><time>2026-07-29T21:10:43Z</time></trkpt>
<trkpt lat="35.134495" lon="-84.954887"><ele>272.8</ele><time>2026-07-29T21:10:46Z</time></trkpt>
<trkpt lat="35.134457" lon="-84.954888"><ele>271.9</ele><time>2026-07-29T21:10:49Z</time></trkpt>
<trkpt lat="35.134418" lon="-84.954899"><ele>272.5</ele><time>2026-07-29T21:10:52Z</time></trkpt>
<trkpt lat="35.134383" lon="-84.954913"><ele>272.8</ele><time>2026-07-29T21:10:55Z</time></trkpt>
<trkpt lat="35.134349" lon="-84.954908"><ele>271.6</ele><time>2026-07-29T21:10:58Z</time></trkpt>
<trkpt lat="35.134316" lon="-84.954915"><ele>270.7</ele><time>2026-07-29T21:11:01Z</time></trkpt>
<trkpt lat="35.134305" lon="-84.954956"><ele>270.1</ele><time>2026-07-29T21:11:04Z</time></trkpt>
<trkpt lat="35.134325" lon="-84.954988"><ele>266.4</ele><time>2026-07-29T21:11:06Z</time></trkpt>
<trkpt lat="35.134355" lon="-84.955008"><ele>264.6</ele><time>2026-07-29T21:11:08Z</time></trkpt>
<trkpt lat="35.134393" lon="-84.955028"><ele>262.1</ele><time>2026-07-29T21:11:11Z</time></trkpt>
<trkpt lat="35.134416" lon="-84.955048"><ele>261.5</ele><time>2026-07-29T21:11:13Z</time></trkpt>
<trkpt lat="35.134438" lon="-84.955071"><ele>261.2</ele><time>2026-07-29T21:11:15Z</time></trkpt>
<trkpt lat="35.134459" lon="-84.955093"><ele>262.4</ele><time>2026-07-29T21:11:17Z</time></trkpt>
<trkpt lat="35.134481" lon="-84.955115"><ele>261.8</ele><time>2026-07-29T21:11:19Z</time></trkpt>
<trkpt lat="35.134502" lon="-84.955138"><ele>263.7</ele><time>2026-07-29T21:11:21Z</time></trkpt>
<trkpt lat="35.134525" lon="-84.955165"><ele>264.9</ele><time>2026-07-29T21:11:24Z</time></trkpt>
<trkpt lat="35.134557" lon="-84.955176"><ele>265.5</ele><time>2026-07-29T21:11:27Z</time></trkpt>
<trkpt lat="35.134588" lon="-84.955153"><ele>265.2</ele><time>2026-07-29T21:11:30Z</time></trkpt>
<trkpt lat="35.134617" lon="-84.955125"><ele>264.0</ele><time>2026-07-29T21:11:33Z</time></trkpt>
<trkpt lat="35.134643" lon="-84.955096"><ele>265.2</ele><time>2026-07-29T21:11:36Z</time></trkpt>
<trkpt lat="35.134676" lon="-84.955085"><ele>265.2</ele><time>2026-07-29T21:11:39Z</time></trkpt>
<trkpt lat="35.134712" lon="-84.955076"><ele>265.5</ele><time>2026-07-29T21:11:42Z</time></trkpt>
<trkpt lat="35.134748" lon="-84.955078"><ele>265.5</ele><time>2026-07-29T21:11:45Z</time></trkpt>
<trkpt lat="35.134782" lon="-84.955084"><ele>266.4</ele><time>2026-07-29T21:11:48Z</time></trkpt>
<trkpt lat="35.134817" lon="-84.955097"><ele>266.7</ele><time>2026-07-29T21:11:51Z</time></trkpt>
<trkpt lat="35.13485" lon="-84.955108"><ele>267.9</ele><time>2026-07-29T21:11:54Z</time></trkpt>
<trkpt lat="35.134889" lon="-84.955123"><ele>267.0</ele><time>2026-07-29T21:11:57Z</time></trkpt>
<trkpt lat="35.134924" lon="-84.95514"><ele>267.6</ele><time>2026-07-29T21:12:00Z</time></trkpt>
<trkpt lat="35.134928" lon="-84.955183"><ele>269.4</ele><time>2026-07-29T21:12:03Z</time></trkpt>
<trkpt lat="35.134892" lon="-84.955181"><ele>268.2</ele><time>2026-07-29T21:12:06Z</time></trkpt>
<trkpt lat="35.134858" lon="-84.955171"><ele>268.2</ele><time>2026-07-29T21:12:09Z</time></trkpt>
<trkpt lat="35.134822" lon="-84.955162"><ele>269.4</ele><time>2026-07-29T21:12:12Z</time></trkpt>
<trkpt lat="35.134788" lon="-84.955164"><ele>271.0</ele><time>2026-07-29T21:12:15Z</time></trkpt>
<trkpt lat="35.134755" lon="-84.955181"><ele>271.0</ele><time>2026-07-29T21:12:18Z</time></trkpt>
<trkpt lat="35.134723" lon="-84.955204"><ele>271.0</ele><time>2026-07-29T21:12:21Z</time></trkpt>
<trkpt lat="35.134707" lon="-84.955245"><ele>271.0</ele><time>2026-07-29T21:12:24Z</time></trkpt>
<trkpt lat="35.134689" lon="-84.955288"><ele>271.0</ele><time>2026-07-29T21:12:27Z</time></trkpt>
<trkpt lat="35.134675" lon="-84.95532"><ele>271.3</ele><time>2026-07-29T21:12:29Z</time></trkpt>
<trkpt lat="35.134654" lon="-84.955344"><ele>271.9</ele><time>2026-07-29T21:12:31Z</time></trkpt>
<trkpt lat="35.134625" lon="-84.955349"><ele>271.6</ele><time>2026-07-29T21:12:33Z</time></trkpt>
<trkpt lat="35.134586" lon="-84.955336"><ele>272.5</ele><time>2026-07-29T21:12:36Z</time></trkpt>
<trkpt lat="35.134558" lon="-84.955331"><ele>273.1</ele><time>2026-07-29T21:12:38Z</time></trkpt>
<trkpt lat="35.134518" lon="-84.955331"><ele>273.1</ele><time>2026-07-29T21:12:41Z</time></trkpt>
<trkpt lat="35.134483" lon="-84.95532"><ele>273.4</ele><time>2026-07-29T21:12:44Z</time></trkpt>
<trkpt lat="35.134444" lon="-84.955312"><ele>274.6</ele><time>2026-07-29T21:12:47Z</time></trkpt>
<trkpt lat="35.134403" lon="-84.955318"><ele>274.3</ele><time>2026-07-29T21:12:50Z</time></trkpt>
<trkpt lat="35.13437" lon="-84.955342"><ele>273.1</ele><time>2026-07-29T21:12:53Z</time></trkpt>
<trkpt lat="35.134348" lon="-84.955383"><ele>271.9</ele><time>2026-07-29T21:12:56Z</time></trkpt>
<trkpt lat="35.134343" lon="-84.955417"><ele>271.6</ele><time>2026-07-29T21:12:58Z</time></trkpt>
<trkpt lat="35.134347" lon="-84.955466"><ele>271.3</ele><time>2026-07-29T21:13:01Z</time></trkpt>
<trkpt lat="35.134357" lon="-84.955497"><ele>270.1</ele><time>2026-07-29T21:13:03Z</time></trkpt>
<trkpt lat="35.134367" lon="-84.955529"><ele>270.7</ele><time>2026-07-29T21:13:05Z</time></trkpt>
<trkpt lat="35.134381" lon="-84.955575"><ele>270.4</ele><time>2026-07-29T21:13:08Z</time></trkpt>
<trkpt lat="35.134395" lon="-84.955619"><ele>270.1</ele><time>2026-07-29T21:13:11Z</time></trkpt>
<trkpt lat="35.13441" lon="-84.95566"><ele>269.4</ele><time>2026-07-29T21:13:14Z</time></trkpt>
<trkpt lat="35.134435" lon="-84.955692"><ele>268.5</ele><time>2026-07-29T21:13:17Z</time></trkpt>
<trkpt lat="35.134464" lon="-84.955724"><ele>267.3</ele><time>2026-07-29T21:13:20Z</time></trkpt>
<trkpt lat="35.134482" lon="-84.95576"><ele>268.2</ele><time>2026-07-29T21:13:23Z</time></trkpt>
<trkpt lat="35.134499" lon="-84.955798"><ele>267.6</ele><time>2026-07-29T21:13:26Z</time></trkpt>
<trkpt lat="35.134513" lon="-84.955838"><ele>268.2</ele><time>2026-07-29T21:13:29Z</time></trkpt>
<trkpt lat="35.134514" lon="-84.955882"><ele>267.9</ele><time>2026-07-29T21:13:32Z</time></trkpt>
<trkpt lat="35.134499" lon="-84.955924"><ele>268.2</ele><time>2026-07-29T21:13:35Z</time></trkpt>
<trkpt lat="35.134475" lon="-84.955962"><ele>270.4</ele><time>2026-07-29T21:13:38Z</time></trkpt>
<trkpt lat="35.134444" lon="-84.955989"><ele>270.1</ele><time>2026-07-29T21:13:41Z</time></trkpt>
<trkpt lat="35.134408" lon="-84.956004"><ele>272.8</ele><time>2026-07-29T21:13:44Z</time></trkpt>
<trkpt lat="35.134372" lon="-84.956013"><ele>274.0</ele><time>2026-07-29T21:13:47Z</time></trkpt>
<trkpt lat="35.134335" lon="-84.956003"><ele>275.5</ele><time>2026-07-29T21:13:50Z</time></trkpt>
<trkpt lat="35.134304" lon="-84.95598"><ele>274.6</ele><time>2026-07-29T21:13:53Z</time></trkpt>
<trkpt lat="35.134268" lon="-84.955965"><ele>275.2</ele><time>2026-07-29T21:13:56Z</time></trkpt>
<trkpt lat="35.134233" lon="-84.955947"><ele>275.8</ele><time>2026-07-29T21:13:59Z</time></trkpt>
<trkpt lat="35.134193" lon="-84.955932"><ele>277.7</ele><time>2026-07-29T21:14:02Z</time></trkpt>
<trkpt lat="35.134166" lon="-84.955933"><ele>277.7</ele><time>2026-07-29T21:14:04Z</time></trkpt>
<trkpt lat="35.13413" lon="-84.955947"><ele>277.1</ele><time>2026-07-29T21:14:07Z</time></trkpt>
<trkpt lat="35.134116" lon="-84.955976"><ele>275.2</ele><time>2026-07-29T21:14:09Z</time></trkpt>
<trkpt lat="35.134102" lon="-84.956008"><ele>273.7</ele><time>2026-07-29T21:14:11Z</time></trkpt>
<trkpt lat="35.134088" lon="-84.956052"><ele>273.4</ele><time>2026-07-29T21:14:14Z</time></trkpt>
<trkpt lat="35.134075" lon="-84.956099"><ele>272.8</ele><time>2026-07-29T21:14:17Z</time></trkpt>
<trkpt lat="35.134067" lon="-84.956146"><ele>272.8</ele><time>2026-07-29T21:14:20Z</time></trkpt>
<trkpt lat="35.134078" lon="-84.956189"><ele>272.2</ele><time>2026-07-29T21:14:23Z</time></trkpt>
<trkpt lat="35.134096" lon="-84.956224"><ele>271.6</ele><time>2026-07-29T21:14:25Z</time></trkpt>
<trkpt lat="35.134123" lon="-84.956258"><ele>271.9</ele><time>2026-07-29T21:14:28Z</time></trkpt>
<trkpt lat="35.134145" lon="-84.956298"><ele>271.6</ele><time>2026-07-29T21:14:31Z</time></trkpt>
<trkpt lat="35.134163" lon="-84.956341"><ele>271.9</ele><time>2026-07-29T21:14:34Z</time></trkpt>
<trkpt lat="35.134159" lon="-84.956375"><ele>272.2</ele><time>2026-07-29T21:14:36Z</time></trkpt>
<trkpt lat="35.134143" lon="-84.956404"><ele>272.8</ele><time>2026-07-29T21:14:38Z</time></trkpt>
<trkpt lat="35.134121" lon="-84.956426"><ele>272.5</ele><time>2026-07-29T21:14:40Z</time></trkpt>
<trkpt lat="35.134095" lon="-84.95644"><ele>273.4</ele><time>2026-07-29T21:14:42Z</time></trkpt>
<trkpt lat="35.134062" lon="-84.956459"><ele>274.3</ele><time>2026-07-29T21:14:45Z</time></trkpt>
<trkpt lat="35.134036" lon="-84.956483"><ele>275.5</ele><time>2026-07-29T21:14:48Z</time></trkpt>
<trkpt lat="35.134006" lon="-84.956509"><ele>275.8</ele><time>2026-07-29T21:14:51Z</time></trkpt>
<trkpt lat="35.134002" lon="-84.956556"><ele>275.2</ele><time>2026-07-29T21:14:54Z</time></trkpt>
<trkpt lat="35.134013" lon="-84.956589"><ele>274.0</ele><time>2026-07-29T21:14:56Z</time></trkpt>
<trkpt lat="35.13403" lon="-84.956633"><ele>274.9</ele><time>2026-07-29T21:14:59Z</time></trkpt>
<trkpt lat="35.13404" lon="-84.956677"><ele>274.9</ele><time>2026-07-29T21:15:02Z</time></trkpt>
<trkpt lat="35.134054" lon="-84.95672"><ele>275.8</ele><time>2026-07-29T21:15:05Z</time></trkpt>
<trkpt lat="35.134077" lon="-84.956762"><ele>276.1</ele><time>2026-07-29T21:15:08Z</time></trkpt>
<trkpt lat="35.134096" lon="-84.956788"><ele>276.1</ele><time>2026-07-29T21:15:10Z</time></trkpt>
<trkpt lat="35.134119" lon="-84.956824"><ele>275.8</ele><time>2026-07-29T21:15:13Z</time></trkpt>
<trkpt lat="35.134136" lon="-84.95686"><ele>275.5</ele><time>2026-07-29T21:15:16Z</time></trkpt>
<trkpt lat="35.134146" lon="-84.956892"><ele>275.2</ele><time>2026-07-29T21:15:18Z</time></trkpt>
<trkpt lat="35.134146" lon="-84.956926"><ele>274.9</ele><time>2026-07-29T21:15:20Z</time></trkpt>
<trkpt lat="35.134147" lon="-84.956974"><ele>275.5</ele><time>2026-07-29T21:15:23Z</time></trkpt>
<trkpt lat="35.134137" lon="-84.957008"><ele>275.5</ele><time>2026-07-29T21:15:25Z</time></trkpt>
<trkpt lat="35.134117" lon="-84.957048"><ele>276.8</ele><time>2026-07-29T21:15:28Z</time></trkpt>
<trkpt lat="35.134089" lon="-84.957054"><ele>275.8</ele><time>2026-07-29T21:15:30Z</time></trkpt>
<trkpt lat="35.134052" lon="-84.957046"><ele>274.9</ele><time>2026-07-29T21:15:33Z</time></trkpt>
<trkpt lat="35.134017" lon="-84.957029"><ele>275.5</ele><time>2026-07-29T21:15:36Z</time></trkpt>
<trkpt lat="35.133981" lon="-84.957015"><ele>276.5</ele><time>2026-07-29T21:15:39Z</time></trkpt>
<trkpt lat="35.133943" lon="-84.957029"><ele>277.1</ele><time>2026-07-29T21:15:42Z</time></trkpt>
<trkpt lat="35.133918" lon="-84.957044"><ele>278.6</ele><time>2026-07-29T21:15:44Z</time></trkpt>
<trkpt lat="35.133881" lon="-84.957066"><ele>279.2</ele><time>2026-07-29T21:15:47Z</time></trkpt>
<trkpt lat="35.133855" lon="-84.957079"><ele>278.6</ele><time>2026-07-29T21:15:49Z</time></trkpt>
<trkpt lat="35.133819" lon="-84.957097"><ele>278.9</ele><time>2026-07-29T21:15:52Z</time></trkpt>
<trkpt lat="35.1338" lon="-84.957123"><ele>279.2</ele><time>2026-07-29T21:15:54Z</time></trkpt>
<trkpt lat="35.133789" lon="-84.957154"><ele>280.1</ele><time>2026-07-29T21:15:56Z</time></trkpt>
<trkpt lat="35.133789" lon="-84.957188"><ele>279.8</ele><time>2026-07-29T21:15:58Z</time></trkpt>
<trkpt lat="35.133787" lon="-84.957222"><ele>281.3</ele><time>2026-07-29T21:16:00Z</time></trkpt>
<trkpt lat="35.133796" lon="-84.957269"><ele>281.0</ele><time>2026-07-29T21:16:03Z</time></trkpt>
<trkpt lat="35.133818" lon="-84.957292"><ele>279.8</ele><time>2026-07-29T21:16:05Z</time></trkpt>
<trkpt lat="35.133855" lon="-84.957307"><ele>280.1</ele><time>2026-07-29T21:16:08Z</time></trkpt>
<trkpt lat="35.13388" lon="-84.957324"><ele>279.2</ele><time>2026-07-29T21:16:10Z</time></trkpt>
<trkpt lat="35.133906" lon="-84.957337"><ele>278.6</ele><time>2026-07-29T21:16:12Z</time></trkpt>
<trkpt lat="35.133934" lon="-84.957342"><ele>278.9</ele><time>2026-07-29T21:16:14Z</time></trkpt>
<trkpt lat="35.133962" lon="-84.957346"><ele>279.2</ele><time>2026-07-29T21:16:16Z</time></trkpt>
<trkpt lat="35.134003" lon="-84.957355"><ele>279.2</ele><time>2026-07-29T21:16:19Z</time></trkpt>
<trkpt lat="35.134027" lon="-84.95737"><ele>278.6</ele><time>2026-07-29T21:16:21Z</time></trkpt>
<trkpt lat="35.134047" lon="-84.957396"><ele>277.7</ele><time>2026-07-29T21:16:23Z</time></trkpt>
<trkpt lat="35.134074" lon="-84.957426"><ele>277.1</ele><time>2026-07-29T21:16:26Z</time></trkpt>
<trkpt lat="35.134099" lon="-84.957457"><ele>278.6</ele><time>2026-07-29T21:16:29Z</time></trkpt>
<trkpt lat="35.134125" lon="-84.957495"><ele>278.9</ele><time>2026-07-29T21:16:32Z</time></trkpt>
<trkpt lat="35.134124" lon="-84.957544"><ele>281.0</ele><time>2026-07-29T21:16:35Z</time></trkpt>
<trkpt lat="35.134113" lon="-84.957586"><ele>282.2</ele><time>2026-07-29T21:16:38Z</time></trkpt>
<trkpt lat="35.13412" lon="-84.957634"><ele>281.6</ele><time>2026-07-29T21:16:41Z</time></trkpt>
<trkpt lat="35.134121" lon="-84.957676"><ele>280.4</ele><time>2026-07-29T21:16:44Z</time></trkpt>
<trkpt lat="35.134107" lon="-84.957705"><ele>282.2</ele><time>2026-07-29T21:16:46Z</time></trkpt>
<trkpt lat="35.134084" lon="-84.957736"><ele>281.9</ele><time>2026-07-29T21:16:49Z</time></trkpt>
<trkpt lat="35.134062" lon="-84.957765"><ele>282.9</ele><time>2026-07-29T21:16:52Z</time></trkpt>
<trkpt lat="35.134039" lon="-84.957796"><ele>283.8</ele><time>2026-07-29T21:16:55Z</time></trkpt>
<trkpt lat="35.134014" lon="-84.95782"><ele>285.0</ele><time>2026-07-29T21:16:58Z</time></trkpt>
<trkpt lat="35.133985" lon="-84.957842"><ele>285.0</ele><time>2026-07-29T21:17:01Z</time></trkpt>
<trkpt lat="35.133951" lon="-84.957842"><ele>284.4</ele><time>2026-07-29T21:17:04Z</time></trkpt>
<trkpt lat="35.133916" lon="-84.957834"><ele>283.8</ele><time>2026-07-29T21:17:07Z</time></trkpt>
<trkpt lat="35.133883" lon="-84.957829"><ele>284.7</ele><time>2026-07-29T21:17:10Z</time></trkpt>
<trkpt lat="35.133852" lon="-84.95783"><ele>284.7</ele><time>2026-07-29T21:17:13Z</time></trkpt>
<trkpt lat="35.133817" lon="-84.957837"><ele>285.0</ele><time>2026-07-29T21:17:16Z</time></trkpt>
<trkpt lat="35.133784" lon="-84.957865"><ele>285.6</ele><time>2026-07-29T21:17:19Z</time></trkpt>
<trkpt lat="35.13376" lon="-84.957904"><ele>285.9</ele><time>2026-07-29T21:17:22Z</time></trkpt>
<trkpt lat="35.133741" lon="-84.957939"><ele>287.7</ele><time>2026-07-29T21:17:25Z</time></trkpt>
<trkpt lat="35.133717" lon="-84.957969"><ele>288.0</ele><time>2026-07-29T21:17:28Z</time></trkpt>
<trkpt lat="35.133684" lon="-84.957991"><ele>287.4</ele><time>2026-07-29T21:17:31Z</time></trkpt>
<trkpt lat="35.133659" lon="-84.958029"><ele>288.0</ele><time>2026-07-29T21:17:34Z</time></trkpt>
<trkpt lat="35.133644" lon="-84.95806"><ele>288.0</ele><time>2026-07-29T21:17:36Z</time></trkpt>
<trkpt lat="35.133626" lon="-84.958104"><ele>289.3</ele><time>2026-07-29T21:17:39Z</time></trkpt>
<trkpt lat="35.133613" lon="-84.958147"><ele>289.6</ele><time>2026-07-29T21:17:42Z</time></trkpt>
<trkpt lat="35.133614" lon="-84.958197"><ele>289.0</ele><time>2026-07-29T21:17:45Z</time></trkpt>
<trkpt lat="35.133627" lon="-84.95823"><ele>287.1</ele><time>2026-07-29T21:17:47Z</time></trkpt>
<trkpt lat="35.133638" lon="-84.958264"><ele>286.2</ele><time>2026-07-29T21:17:49Z</time></trkpt>
<trkpt lat="35.133654" lon="-84.958295"><ele>286.5</ele><time>2026-07-29T21:17:51Z</time></trkpt>
<trkpt lat="35.133664" lon="-84.958328"><ele>285.3</ele><time>2026-07-29T21:17:53Z</time></trkpt>
<trkpt lat="35.133671" lon="-84.958362"><ele>286.2</ele><time>2026-07-29T21:17:55Z</time></trkpt>
<trkpt lat="35.133687" lon="-84.958392"><ele>285.3</ele><time>2026-07-29T21:17:57Z</time></trkpt>
<trkpt lat="35.133705" lon="-84.958418"><ele>284.1</ele><time>2026-07-29T21:17:59Z</time></trkpt>
<trkpt lat="35.133704" lon="-84.958453"><ele>284.4</ele><time>2026-07-29T21:18:01Z</time></trkpt>
<trkpt lat="35.133697" lon="-84.958498"><ele>283.8</ele><time>2026-07-29T21:18:04Z</time></trkpt>
<trkpt lat="35.133676" lon="-84.958539"><ele>285.0</ele><time>2026-07-29T21:18:07Z</time></trkpt>
<trkpt lat="35.133638" lon="-84.958538"><ele>285.6</ele><time>2026-07-29T21:18:09Z</time></trkpt>
<trkpt lat="35.13361" lon="-84.958539"><ele>283.5</ele><time>2026-07-29T21:18:11Z</time></trkpt>
<trkpt lat="35.133571" lon="-84.958538"><ele>283.8</ele><time>2026-07-29T21:18:14Z</time></trkpt>
<trkpt lat="35.133542" lon="-84.958533"><ele>282.9</ele><time>2026-07-29T21:18:16Z</time></trkpt>
<trkpt lat="35.133503" lon="-84.958517"><ele>281.3</ele><time>2026-07-29T21:18:19Z</time></trkpt>
<trkpt lat="35.133477" lon="-84.958504"><ele>280.7</ele><time>2026-07-29T21:18:21Z</time></trkpt>
<trkpt lat="35.133442" lon="-84.95849"><ele>279.2</ele><time>2026-07-29T21:18:23Z</time></trkpt>
<trkpt lat="35.133412" lon="-84.958478"><ele>278.9</ele><time>2026-07-29T21:18:25Z</time></trkpt>
<trkpt lat="35.133386" lon="-84.95846"><ele>276.8</ele><time>2026-07-29T21:18:27Z</time></trkpt>
<trkpt lat="35.133342" lon="-84.958451"><ele>277.4</ele><time>2026-07-29T21:18:30Z</time></trkpt>
<trkpt lat="35.133312" lon="-84.958448"><ele>278.6</ele><time>2026-07-29T21:18:32Z</time></trkpt>
<trkpt lat="35.133274" lon="-84.958451"><ele>277.4</ele><time>2026-07-29T21:18:35Z</time></trkpt>
<trkpt lat="35.133232" lon="-84.958444"><ele>278.9</ele><time>2026-07-29T21:18:38Z</time></trkpt>
<trkpt lat="35.133191" lon="-84.958451"><ele>279.5</ele><time>2026-07-29T21:18:41Z</time></trkpt>
<trkpt lat="35.133153" lon="-84.958471"><ele>277.7</ele><time>2026-07-29T21:18:44Z</time></trkpt>
<trkpt lat="35.13313" lon="-84.958498"><ele>277.4</ele><time>2026-07-29T21:18:46Z</time></trkpt>
<trkpt lat="35.13313" lon="-84.95854"><ele>275.8</ele><time>2026-07-29T21:18:48Z</time></trkpt>
<trkpt lat="35.133139" lon="-84.958573"><ele>277.4</ele><time>2026-07-29T21:18:50Z</time></trkpt>
<trkpt lat="35.133163" lon="-84.958615"><ele>278.6</ele><time>2026-07-29T21:18:53Z</time></trkpt>
<trkpt lat="35.133184" lon="-84.958642"><ele>278.3</ele><time>2026-07-29T21:18:55Z</time></trkpt>
<trkpt lat="35.133189" lon="-84.958686"><ele>278.0</ele><time>2026-07-29T21:18:58Z</time></trkpt>
<trkpt lat="35.133164" lon="-84.958711"><ele>278.9</ele><time>2026-07-29T21:19:00Z</time></trkpt>
<trkpt lat="35.133141" lon="-84.958735"><ele>279.5</ele><time>2026-07-29T21:19:02Z</time></trkpt>
<trkpt lat="35.133136" lon="-84.958772"><ele>277.7</ele><time>2026-07-29T21:19:04Z</time></trkpt>
<trkpt lat="35.133132" lon="-84.958821"><ele>281.0</ele><time>2026-07-29T21:19:07Z</time></trkpt>
<trkpt lat="35.133128" lon="-84.958857"><ele>280.4</ele><time>2026-07-29T21:19:09Z</time></trkpt>
<trkpt lat="35.13312" lon="-84.958891"><ele>281.0</ele><time>2026-07-29T21:19:11Z</time></trkpt>
<trkpt lat="35.133113" lon="-84.958928"><ele>280.1</ele><time>2026-07-29T21:19:13Z</time></trkpt>
<trkpt lat="35.1331" lon="-84.958961"><ele>280.4</ele><time>2026-07-29T21:19:15Z</time></trkpt>
<trkpt lat="35.133086" lon="-84.958992"><ele>281.3</ele><time>2026-07-29T21:19:17Z</time></trkpt>
<trkpt lat="35.133065" lon="-84.959017"><ele>280.7</ele><time>2026-07-29T21:19:19Z</time></trkpt>
<trkpt lat="35.133047" lon="-84.959048"><ele>280.4</ele><time>2026-07-29T21:19:21Z</time></trkpt>
<trkpt lat="35.133027" lon="-84.959076"><ele>280.4</ele><time>2026-07-29T21:19:23Z</time></trkpt>
<trkpt lat="35.133017" lon="-84.959112"><ele>278.6</ele><time>2026-07-29T21:19:25Z</time></trkpt>
<trkpt lat="35.133009" lon="-84.959145"><ele>279.5</ele><time>2026-07-29T21:19:27Z</time></trkpt>
<trkpt lat="35.132999" lon="-84.959178"><ele>279.2</ele><time>2026-07-29T21:19:29Z</time></trkpt>
<trkpt lat="35.132975" lon="-84.959217"><ele>280.4</ele><time>2026-07-29T21:19:32Z</time></trkpt>
<trkpt lat="35.132948" lon="-84.959246"><ele>280.1</ele><time>2026-07-29T21:19:35Z</time></trkpt>
<trkpt lat="35.13292" lon="-84.959275"><ele>279.8</ele><time>2026-07-29T21:19:38Z</time></trkpt>
<trkpt lat="35.132891" lon="-84.959306"><ele>279.8</ele><time>2026-07-29T21:19:41Z</time></trkpt>
<trkpt lat="35.132866" lon="-84.959339"><ele>281.3</ele><time>2026-07-29T21:19:44Z</time></trkpt>
<trkpt lat="35.132847" lon="-84.959366"><ele>282.2</ele><time>2026-07-29T21:19:46Z</time></trkpt>
<trkpt lat="35.132835" lon="-84.959396"><ele>283.5</ele><time>2026-07-29T21:19:48Z</time></trkpt>
<trkpt lat="35.132835" lon="-84.95943"><ele>284.4</ele><time>2026-07-29T21:19:50Z</time></trkpt>
<trkpt lat="35.132836" lon="-84.959467"><ele>284.7</ele><time>2026-07-29T21:19:52Z</time></trkpt>
<trkpt lat="35.132835" lon="-84.959505"><ele>285.0</ele><time>2026-07-29T21:19:54Z</time></trkpt>
<trkpt lat="35.132833" lon="-84.959553"><ele>284.7</ele><time>2026-07-29T21:19:57Z</time></trkpt>
<trkpt lat="35.132828" lon="-84.959595"><ele>283.5</ele><time>2026-07-29T21:20:00Z</time></trkpt>
<trkpt lat="35.132817" lon="-84.959635"><ele>285.0</ele><time>2026-07-29T21:20:03Z</time></trkpt>
<trkpt lat="35.132795" lon="-84.959656"><ele>283.5</ele><time>2026-07-29T21:20:06Z</time></trkpt>
<trkpt lat="35.13276" lon="-84.959659"><ele>283.8</ele><time>2026-07-29T21:20:09Z</time></trkpt>
<trkpt lat="35.132724" lon="-84.959648"><ele>284.1</ele><time>2026-07-29T21:20:12Z</time></trkpt>
<trkpt lat="35.132688" lon="-84.95963"><ele>285.3</ele><time>2026-07-29T21:20:15Z</time></trkpt>
<trkpt lat="35.132655" lon="-84.959606"><ele>284.7</ele><time>2026-07-29T21:20:18Z</time></trkpt>
<trkpt lat="35.132626" lon="-84.959578"><ele>284.4</ele><time>2026-07-29T21:20:21Z</time></trkpt>
<trkpt lat="35.132592" lon="-84.95956"><ele>284.4</ele><time>2026-07-29T21:20:24Z</time></trkpt>
<trkpt lat="35.132556" lon="-84.959547"><ele>284.1</ele><time>2026-07-29T21:20:27Z</time></trkpt>
<trkpt lat="35.132529" lon="-84.959536"><ele>284.4</ele><time>2026-07-29T21:20:29Z</time></trkpt>
<trkpt lat="35.132492" lon="-84.959519"><ele>284.7</ele><time>2026-07-29T21:20:32Z</time></trkpt>
<trkpt lat="35.132458" lon="-84.959503"><ele>284.7</ele><time>2026-07-29T21:20:35Z</time></trkpt>
<trkpt lat="35.132425" lon="-84.959496"><ele>283.2</ele><time>2026-07-29T21:20:38Z</time></trkpt>
<trkpt lat="35.132389" lon="-84.959498"><ele>282.2</ele><time>2026-07-29T21:20:41Z</time></trkpt>
<trkpt lat="35.132349" lon="-84.959489"><ele>282.2</ele><time>2026-07-29T21:20:44Z</time></trkpt>
<trkpt lat="35.13232" lon="-84.959501"><ele>282.5</ele><time>2026-07-29T21:20:46Z</time></trkpt>
<trkpt lat="35.132293" lon="-84.959509"><ele>282.9</ele><time>2026-07-29T21:20:48Z</time></trkpt>
<trkpt lat="35.132254" lon="-84.959516"><ele>282.5</ele><time>2026-07-29T21:20:51Z</time></trkpt>
<trkpt lat="35.132214" lon="-84.959522"><ele>282.2</ele><time>2026-07-29T21:20:54Z</time></trkpt>
<trkpt lat="35.132184" lon="-84.959524"><ele>281.9</ele><time>2026-07-29T21:20:56Z</time></trkpt>
<trkpt lat="35.132153" lon="-84.959518"><ele>282.5</ele><time>2026-07-29T21:20:58Z</time></trkpt>
<trkpt lat="35.132123" lon="-84.959514"><ele>281.0</ele><time>2026-07-29T21:21:00Z</time></trkpt>
<trkpt lat="35.132092" lon="-84.959519"><ele>281.3</ele><time>2026-07-29T21:21:02Z</time></trkpt>
<trkpt lat="35.132061" lon="-84.95953"><ele>279.8</ele><time>2026-07-29T21:21:04Z</time></trkpt>
<trkpt lat="35.132036" lon="-84.959547"><ele>281.3</ele><time>2026-07-29T21:21:06Z</time></trkpt>
<trkpt lat="35.132019" lon="-84.959577"><ele>281.0</ele><time>2026-07-29T21:21:08Z</time></trkpt>
<trkpt lat="35.132005" lon="-84.959608"><ele>279.8</ele><time>2026-07-29T21:21:10Z</time></trkpt>
<trkpt lat="35.13198" lon="-84.959642"><ele>283.5</ele><time>2026-07-29T21:21:13Z</time></trkpt>
<trkpt lat="35.131943" lon="-84.959648"><ele>284.7</ele><time>2026-07-29T21:21:16Z</time></trkpt>
<trkpt lat="35.131906" lon="-84.959666"><ele>284.4</ele><time>2026-07-29T21:21:19Z</time></trkpt>
<trkpt lat="35.131878" lon="-84.959682"><ele>283.2</ele><time>2026-07-29T21:21:21Z</time></trkpt>
<trkpt lat="35.131861" lon="-84.959712"><ele>281.0</ele><time>2026-07-29T21:21:23Z</time></trkpt>
<trkpt lat="35.131841" lon="-84.959739"><ele>281.0</ele><time>2026-07-29T21:21:25Z</time></trkpt>
<trkpt lat="35.131813" lon="-84.959761"><ele>281.9</ele><time>2026-07-29T21:21:27Z</time></trkpt>
<trkpt lat="35.131775" lon="-84.959769"><ele>283.5</ele><time>2026-07-29T21:21:29Z</time></trkpt>
<trkpt lat="35.131743" lon="-84.959782"><ele>282.9</ele><time>2026-07-29T21:21:31Z</time></trkpt>
<trkpt lat="35.131713" lon="-84.959789"><ele>283.5</ele><time>2026-07-29T21:21:33Z</time></trkpt>
<trkpt lat="35.131684" lon="-84.959796"><ele>282.9</ele><time>2026-07-29T21:21:35Z</time></trkpt>
<trkpt lat="35.131653" lon="-84.959801"><ele>281.6</ele><time>2026-07-29T21:21:37Z</time></trkpt>
<trkpt lat="35.131622" lon="-84.959802"><ele>282.9</ele><time>2026-07-29T21:21:39Z</time></trkpt>
<trkpt lat="35.131594" lon="-84.959815"><ele>283.2</ele><time>2026-07-29T21:21:41Z</time></trkpt>
<trkpt lat="35.131569" lon="-84.959834"><ele>283.2</ele><time>2026-07-29T21:21:43Z</time></trkpt>
<trkpt lat="35.131529" lon="-84.95984"><ele>282.9</ele><time>2026-07-29T21:21:46Z</time></trkpt>
<trkpt lat="35.131502" lon="-84.959846"><ele>283.5</ele><time>2026-07-29T21:21:48Z</time></trkpt>
<trkpt lat="35.131474" lon="-84.959854"><ele>281.3</ele><time>2026-07-29T21:21:50Z</time></trkpt>
<trkpt lat="35.131438" lon="-84.959863"><ele>280.4</ele><time>2026-07-29T21:21:53Z</time></trkpt>
<trkpt lat="35.131402" lon="-84.959863"><ele>278.6</ele><time>2026-07-29T21:21:56Z</time></trkpt>
<trkpt lat="35.131363" lon="-84.959877"><ele>277.7</ele><time>2026-07-29T21:21:59Z</time></trkpt>
<trkpt lat="35.131336" lon="-84.959883"><ele>278.3</ele><time>2026-07-29T21:22:01Z</time></trkpt>
<trkpt lat="35.131306" lon="-84.959889"><ele>276.8</ele><time>2026-07-29T21:22:03Z</time></trkpt>
<trkpt lat="35.131281" lon="-84.959903"><ele>275.5</ele><time>2026-07-29T21:22:05Z</time></trkpt>
<trkpt lat="35.131258" lon="-84.959926"><ele>275.8</ele><time>2026-07-29T21:22:07Z</time></trkpt>
<trkpt lat="35.131226" lon="-84.959958"><ele>273.7</ele><time>2026-07-29T21:22:10Z</time></trkpt>
<trkpt lat="35.13119" lon="-84.959981"><ele>274.0</ele><time>2026-07-29T21:22:13Z</time></trkpt>
<trkpt lat="35.131162" lon="-84.959992"><ele>274.9</ele><time>2026-07-29T21:22:15Z</time></trkpt>
<trkpt lat="35.131147" lon="-84.960031"><ele>275.2</ele><time>2026-07-29T21:22:18Z</time></trkpt>
<trkpt lat="35.131125" lon="-84.960059"><ele>275.2</ele><time>2026-07-29T21:22:20Z</time></trkpt>
<trkpt lat="35.131089" lon="-84.960085"><ele>276.5</ele><time>2026-07-29T21:22:22Z</time></trkpt>
<trkpt lat="35.131064" lon="-84.960121"><ele>275.8</ele><time>2026-07-29T21:22:24Z</time></trkpt>
<trkpt lat="35.131043" lon="-84.960145"><ele>274.3</ele><time>2026-07-29T21:22:26Z</time></trkpt>
<trkpt lat="35.131019" lon="-84.960188"><ele>274.0</ele><time>2026-07-29T21:22:29Z</time></trkpt>
<trkpt lat="35.131005" lon="-84.960219"><ele>274.9</ele><time>2026-07-29T21:22:31Z</time></trkpt>
<trkpt lat="35.130987" lon="-84.960257"><ele>274.6</ele><time>2026-07-29T21:22:34Z</time></trkpt>
<trkpt lat="35.130981" lon="-84.96029"><ele>273.1</ele><time>2026-07-29T21:22:37Z</time></trkpt>
<trkpt lat="35.13098" lon="-84.960332"><ele>271.6</ele><time>2026-07-29T21:22:40Z</time></trkpt>
<trkpt lat="35.130977" lon="-84.960368"><ele>268.5</ele><time>2026-07-29T21:22:42Z</time></trkpt>
<trkpt lat="35.13098" lon="-84.960411"><ele>268.2</ele><time>2026-07-29T21:22:44Z</time></trkpt>
<trkpt lat="35.130958" lon="-84.960432"><ele>269.7</ele><time>2026-07-29T21:22:46Z</time></trkpt>
<trkpt lat="35.130921" lon="-84.960429"><ele>268.5</ele><time>2026-07-29T21:22:49Z</time></trkpt>
<trkpt lat="35.130901" lon="-84.960388"><ele>267.6</ele><time>2026-07-29T21:22:52Z</time></trkpt>
<trkpt lat="35.130879" lon="-84.960357"><ele>266.4</ele><time>2026-07-29T21:22:55Z</time></trkpt>
<trkpt lat="35.130849" lon="-84.960326"><ele>266.1</ele><time>2026-07-29T21:22:58Z</time></trkpt>
<trkpt lat="35.13082" lon="-84.960307"><ele>265.8</ele><time>2026-07-29T21:23:00Z</time></trkpt>
<trkpt lat="35.130799" lon="-84.960283"><ele>264.9</ele><time>2026-07-29T21:23:02Z</time></trkpt>
<trkpt lat="35.130774" lon="-84.960245"><ele>262.7</ele><time>2026-07-29T21:23:05Z</time></trkpt>
<trkpt lat="35.130756" lon="-84.960217"><ele>261.8</ele><time>2026-07-29T21:23:07Z</time></trkpt>
<trkpt lat="35.130735" lon="-84.960188"><ele>263.3</ele><time>2026-07-29T21:23:09Z</time></trkpt>
<trkpt lat="35.130713" lon="-84.960162"><ele>263.3</ele><time>2026-07-29T21:23:11Z</time></trkpt>
<trkpt lat="35.130704" lon="-84.960119"><ele>266.4</ele><time>2026-07-29T21:23:14Z</time></trkpt>
<trkpt lat="35.130717" lon="-84.960087"><ele>266.1</ele><time>2026-07-29T21:23:16Z</time></trkpt>
<trkpt lat="35.130745" lon="-84.960056"><ele>266.1</ele><time>2026-07-29T21:23:19Z</time></trkpt>
<trkpt lat="35.130781" lon="-84.960043"><ele>268.2</ele><time>2026-07-29T21:23:22Z</time></trkpt>
<trkpt lat="35.13082" lon="-84.960038"><ele>268.5</ele><time>2026-07-29T21:23:25Z</time></trkpt>
<trkpt lat="35.130847" lon="-84.960032"><ele>269.1</ele><time>2026-07-29T21:23:27Z</time></trkpt>
<trkpt lat="35.130885" lon="-84.960026"><ele>268.8</ele><time>2026-07-29T21:23:30Z</time></trkpt>
<trkpt lat="35.130922" lon="-84.960007"><ele>267.3</ele><time>2026-07-29T21:23:33Z</time></trkpt>
<trkpt lat="35.130945" lon="-84.959988"><ele>268.8</ele><time>2026-07-29T21:23:35Z</time></trkpt>
<trkpt lat="35.13098" lon="-84.959961"><ele>272.2</ele><time>2026-07-29T21:23:38Z</time></trkpt>
<trkpt lat="35.131001" lon="-84.959921"><ele>271.6</ele><time>2026-07-29T21:23:41Z</time></trkpt>
<trkpt lat="35.131024" lon="-84.959884"><ele>271.3</ele><time>2026-07-29T21:23:44Z</time></trkpt>
<trkpt lat="35.13106" lon="-84.959861"><ele>271.0</ele><time>2026-07-29T21:23:47Z</time></trkpt>
<trkpt lat="35.13109" lon="-84.959833"><ele>271.3</ele><time>2026-07-29T21:23:50Z</time></trkpt>
<trkpt lat="35.131125" lon="-84.959812"><ele>269.7</ele><time>2026-07-29T21:23:53Z</time></trkpt>
<trkpt lat="35.131161" lon="-84.959803"><ele>269.7</ele><time>2026-07-29T21:23:56Z</time></trkpt>
<trkpt lat="35.131191" lon="-84.959775"><ele>270.7</ele><time>2026-07-29T21:23:59Z</time></trkpt>
<trkpt lat="35.131219" lon="-84.959756"><ele>271.9</ele><time>2026-07-29T21:24:01Z</time></trkpt>
<trkpt lat="35.131244" lon="-84.95974"><ele>271.9</ele><time>2026-07-29T21:24:03Z</time></trkpt>
<trkpt lat="35.131272" lon="-84.959738"><ele>270.4</ele><time>2026-07-29T21:24:05Z</time></trkpt>
<trkpt lat="35.131307" lon="-84.959727"><ele>271.6</ele><time>2026-07-29T21:24:08Z</time></trkpt>
<trkpt lat="35.131347" lon="-84.959722"><ele>271.3</ele><time>2026-07-29T21:24:11Z</time></trkpt>
<trkpt lat="35.131377" lon="-84.959699"><ele>271.0</ele><time>2026-07-29T21:24:14Z</time></trkpt>
<trkpt lat="35.131416" lon="-84.959679"><ele>271.0</ele><time>2026-07-29T21:24:17Z</time></trkpt>
<trkpt lat="35.131449" lon="-84.95966"><ele>274.9</ele><time>2026-07-29T21:24:20Z</time></trkpt>
<trkpt lat="35.131486" lon="-84.959657"><ele>277.4</ele><time>2026-07-29T21:24:23Z</time></trkpt>
<trkpt lat="35.131519" lon="-84.959641"><ele>275.2</ele><time>2026-07-29T21:24:26Z</time></trkpt>
<trkpt lat="35.131547" lon="-84.959632"><ele>273.1</ele><time>2026-07-29T21:24:28Z</time></trkpt>
<trkpt lat="35.131577" lon="-84.959626"><ele>272.8</ele><time>2026-07-29T21:24:30Z</time></trkpt>
<trkpt lat="35.131614" lon="-84.959612"><ele>270.7</ele><time>2026-07-29T21:24:33Z</time></trkpt>
<trkpt lat="35.131648" lon="-84.959594"><ele>269.4</ele><time>2026-07-29T21:24:36Z</time></trkpt>
<trkpt lat="35.131669" lon="-84.95957"><ele>268.2</ele><time>2026-07-29T21:24:38Z</time></trkpt>
<trkpt lat="35.131694" lon="-84.959545"><ele>267.0</ele><time>2026-07-29T21:24:41Z</time></trkpt>
<trkpt lat="35.131725" lon="-84.95951"><ele>267.3</ele><time>2026-07-29T21:24:44Z</time></trkpt>
<trkpt lat="35.13174" lon="-84.959471"><ele>267.0</ele><time>2026-07-29T21:24:46Z</time></trkpt>
<trkpt lat="35.131751" lon="-84.95943"><ele>267.0</ele><time>2026-07-29T21:24:48Z</time></trkpt>
<trkpt lat="35.131756" lon="-84.959381"><ele>267.0</ele><time>2026-07-29T21:24:50Z</time></trkpt>
<trkpt lat="35.131773" lon="-84.959344"><ele>267.0</ele><time>2026-07-29T21:24:52Z</time></trkpt>
<trkpt lat="35.131792" lon="-84.959316"><ele>266.7</ele><time>2026-07-29T21:24:54Z</time></trkpt>
<trkpt lat="35.131813" lon="-84.959289"><ele>267.0</ele><time>2026-07-29T21:24:56Z</time></trkpt>
<trkpt lat="35.131832" lon="-84.959265"><ele>267.9</ele><time>2026-07-29T21:24:58Z</time></trkpt>
<trkpt lat="35.131853" lon="-84.959242"><ele>269.1</ele><time>2026-07-29T21:25:00Z</time></trkpt>
<trkpt lat="35.131864" lon="-84.95921"><ele>270.4</ele><time>2026-07-29T21:25:02Z</time></trkpt>
<trkpt lat="35.13188" lon="-84.959181"><ele>272.2</ele><time>2026-07-29T21:25:04Z</time></trkpt>
<trkpt lat="35.131901" lon="-84.959154"><ele>272.5</ele><time>2026-07-29T21:25:06Z</time></trkpt>
<trkpt lat="35.13192" lon="-84.959125"><ele>271.3</ele><time>2026-07-29T21:25:08Z</time></trkpt>
<trkpt lat="35.131935" lon="-84.959095"><ele>270.7</ele><time>2026-07-29T21:25:10Z</time></trkpt>
<trkpt lat="35.131967" lon="-84.959083"><ele>269.7</ele><time>2026-07-29T21:25:12Z</time></trkpt>
<trkpt lat="35.131999" lon="-84.959074"><ele>268.2</ele><time>2026-07-29T21:25:14Z</time></trkpt>
<trkpt lat="35.132027" lon="-84.959065"><ele>268.8</ele><time>2026-07-29T21:25:16Z</time></trkpt>
<trkpt lat="35.132054" lon="-84.959055"><ele>270.4</ele><time>2026-07-29T21:25:18Z</time></trkpt>
<trkpt lat="35.132084" lon="-84.959045"><ele>269.1</ele><time>2026-07-29T21:25:20Z</time></trkpt>
<trkpt lat="35.132113" lon="-84.959036"><ele>270.4</ele><time>2026-07-29T21:25:22Z</time></trkpt>
<trkpt lat="35.132141" lon="-84.959039"><ele>271.0</ele><time>2026-07-29T21:25:24Z</time></trkpt>
<trkpt lat="35.132171" lon="-84.959043"><ele>270.4</ele><time>2026-07-29T21:25:26Z</time></trkpt>
<trkpt lat="35.132202" lon="-84.959045"><ele>270.4</ele><time>2026-07-29T21:25:28Z</time></trkpt>
<trkpt lat="35.132235" lon="-84.959047"><ele>269.7</ele><time>2026-07-29T21:25:30Z</time></trkpt>
<trkpt lat="35.132268" lon="-84.95905"><ele>270.1</ele><time>2026-07-29T21:25:32Z</time></trkpt>
<trkpt lat="35.1323" lon="-84.959058"><ele>269.1</ele><time>2026-07-29T21:25:34Z</time></trkpt>
<trkpt lat="35.132327" lon="-84.95906"><ele>269.7</ele><time>2026-07-29T21:25:36Z</time></trkpt>
<trkpt lat="35.132355" lon="-84.959061"><ele>267.3</ele><time>2026-07-29T21:25:38Z</time></trkpt>
<trkpt lat="35.132382" lon="-84.959068"><ele>266.1</ele><time>2026-07-29T21:25:40Z</time></trkpt>
<trkpt lat="35.132414" lon="-84.959042"><ele>266.1</ele><time>2026-07-29T21:25:43Z</time></trkpt>
<trkpt lat="35.132418" lon="-84.959003"><ele>266.4</ele><time>2026-07-29T21:25:45Z</time></trkpt>
<trkpt lat="35.132406" lon="-84.95896"><ele>266.7</ele><time>2026-07-29T21:25:47Z</time></trkpt>
<trkpt lat="35.132384" lon="-84.958928"><ele>267.6</ele><time>2026-07-29T21:25:49Z</time></trkpt>
<trkpt lat="35.132361" lon="-84.958901"><ele>266.7</ele><time>2026-07-29T21:25:51Z</time></trkpt>
<trkpt lat="35.132329" lon="-84.95887"><ele>268.2</ele><time>2026-07-29T21:25:54Z</time></trkpt>
<trkpt lat="35.132305" lon="-84.958851"><ele>268.2</ele><time>2026-07-29T21:25:56Z</time></trkpt>
<trkpt lat="35.132275" lon="-84.958841"><ele>268.2</ele><time>2026-07-29T21:25:58Z</time></trkpt>
<trkpt lat="35.132245" lon="-84.958828"><ele>268.5</ele><time>2026-07-29T21:26:00Z</time></trkpt>
<trkpt lat="35.13222" lon="-84.958814"><ele>269.1</ele><time>2026-07-29T21:26:02Z</time></trkpt>
<trkpt lat="35.132193" lon="-84.958803"><ele>268.2</ele><time>2026-07-29T21:26:04Z</time></trkpt>
<trkpt lat="35.132167" lon="-84.958788"><ele>268.2</ele><time>2026-07-29T21:26:06Z</time></trkpt>
<trkpt lat="35.132135" lon="-84.958759"><ele>268.2</ele><time>2026-07-29T21:26:09Z</time></trkpt>
<trkpt lat="35.132102" lon="-84.958736"><ele>267.3</ele><time>2026-07-29T21:26:12Z</time></trkpt>
<trkpt lat="35.132075" lon="-84.958731"><ele>268.2</ele><time>2026-07-29T21:26:14Z</time></trkpt>
<trkpt lat="35.132037" lon="-84.958726"><ele>268.5</ele><time>2026-07-29T21:26:17Z</time></trkpt>
<trkpt lat="35.132001" lon="-84.958705"><ele>266.7</ele><time>2026-07-29T21:26:20Z</time></trkpt>
<trkpt lat="35.131977" lon="-84.958688"><ele>267.0</ele><time>2026-07-29T21:26:22Z</time></trkpt>
<trkpt lat="35.131941" lon="-84.958666"><ele>267.0</ele><time>2026-07-29T21:26:25Z</time></trkpt>
<trkpt lat="35.131906" lon="-84.95864"><ele>266.4</ele><time>2026-07-29T21:26:28Z</time></trkpt>
<trkpt lat="35.131887" lon="-84.958598"><ele>267.0</ele><time>2026-07-29T21:26:31Z</time></trkpt>
<trkpt lat="35.131883" lon="-84.95856"><ele>267.3</ele><time>2026-07-29T21:26:33Z</time></trkpt>
<trkpt lat="35.131874" lon="-84.958524"><ele>267.6</ele><time>2026-07-29T21:26:35Z</time></trkpt>
<trkpt lat="35.131878" lon="-84.958486"><ele>267.9</ele><time>2026-07-29T21:26:37Z</time></trkpt>
<trkpt lat="35.131881" lon="-84.958453"><ele>269.7</ele><time>2026-07-29T21:26:39Z</time></trkpt>
<trkpt lat="35.131876" lon="-84.958413"><ele>269.1</ele><time>2026-07-29T21:26:41Z</time></trkpt>
<trkpt lat="35.131878" lon="-84.958373"><ele>268.5</ele><time>2026-07-29T21:26:43Z</time></trkpt>
<trkpt lat="35.131882" lon="-84.958337"><ele>268.8</ele><time>2026-07-29T21:26:45Z</time></trkpt>
<trkpt lat="35.131911" lon="-84.958299"><ele>269.4</ele><time>2026-07-29T21:26:48Z</time></trkpt>
<trkpt lat="35.131938" lon="-84.958281"><ele>269.1</ele><time>2026-07-29T21:26:50Z</time></trkpt>
<trkpt lat="35.131972" lon="-84.958252"><ele>268.8</ele><time>2026-07-29T21:26:53Z</time></trkpt>
<trkpt lat="35.131993" lon="-84.958228"><ele>268.2</ele><time>2026-07-29T21:26:55Z</time></trkpt>
<trkpt lat="35.132003" lon="-84.958196"><ele>267.9</ele><time>2026-07-29T21:26:57Z</time></trkpt>
<trkpt lat="35.132017" lon="-84.958166"><ele>267.9</ele><time>2026-07-29T21:26:59Z</time></trkpt>
<trkpt lat="35.132033" lon="-84.958134"><ele>269.7</ele><time>2026-07-29T21:27:01Z</time></trkpt>
<trkpt lat="35.132053" lon="-84.95811"><ele>269.1</ele><time>2026-07-29T21:27:03Z</time></trkpt>
<trkpt lat="35.132076" lon="-84.958068"><ele>269.7</ele><time>2026-07-29T21:27:06Z</time></trkpt>
<trkpt lat="35.132103" lon="-84.958045"><ele>269.7</ele><time>2026-07-29T21:27:08Z</time></trkpt>
<trkpt lat="35.132126" lon="-84.958023"><ele>272.5</ele><time>2026-07-29T21:27:10Z</time></trkpt>
<trkpt lat="35.132155" lon="-84.958015"><ele>273.1</ele><time>2026-07-29T21:27:12Z</time></trkpt>
<trkpt lat="35.132183" lon="-84.958009"><ele>273.4</ele><time>2026-07-29T21:27:14Z</time></trkpt>
<trkpt lat="35.13222" lon="-84.958024"><ele>271.9</ele><time>2026-07-29T21:27:16Z</time></trkpt>
<trkpt lat="35.132255" lon="-84.958046"><ele>268.8</ele><time>2026-07-29T21:27:18Z</time></trkpt>
<trkpt lat="35.132288" lon="-84.958061"><ele>267.3</ele><time>2026-07-29T21:27:20Z</time></trkpt>
<trkpt lat="35.132318" lon="-84.958041"><ele>265.8</ele><time>2026-07-29T21:27:22Z</time></trkpt>
<trkpt lat="35.132328" lon="-84.958001"><ele>264.6</ele><time>2026-07-29T21:27:24Z</time></trkpt>
<trkpt lat="35.13233" lon="-84.957966"><ele>264.6</ele><time>2026-07-29T21:27:26Z</time></trkpt>
<trkpt lat="35.132339" lon="-84.957934"><ele>265.8</ele><time>2026-07-29T21:27:28Z</time></trkpt>
<trkpt lat="35.132357" lon="-84.957889"><ele>267.3</ele><time>2026-07-29T21:27:31Z</time></trkpt>
<trkpt lat="35.132376" lon="-84.957854"><ele>267.9</ele><time>2026-07-29T21:27:34Z</time></trkpt>
<trkpt lat="35.132374" lon="-84.957805"><ele>267.6</ele><time>2026-07-29T21:27:37Z</time></trkpt>
<trkpt lat="35.132356" lon="-84.957771"><ele>267.9</ele><time>2026-07-29T21:27:39Z</time></trkpt>
<trkpt lat="35.132338" lon="-84.957736"><ele>265.8</ele><time>2026-07-29T21:27:42Z</time></trkpt>
<trkpt lat="35.132314" lon="-84.957709"><ele>263.0</ele><time>2026-07-29T21:27:45Z</time></trkpt>
<trkpt lat="35.132287" lon="-84.957675"><ele>263.7</ele><time>2026-07-29T21:27:48Z</time></trkpt>
<trkpt lat="35.132263" lon="-84.957655"><ele>264.3</ele><time>2026-07-29T21:27:50Z</time></trkpt>
<trkpt lat="35.132238" lon="-84.957638"><ele>264.0</ele><time>2026-07-29T21:27:52Z</time></trkpt>
<trkpt lat="35.132214" lon="-84.957621"><ele>265.2</ele><time>2026-07-29T21:27:54Z</time></trkpt>
<trkpt lat="35.132183" lon="-84.95762"><ele>265.5</ele><time>2026-07-29T21:27:56Z</time></trkpt>
<trkpt lat="35.132154" lon="-84.957635"><ele>265.2</ele><time>2026-07-29T21:27:58Z</time></trkpt>
<trkpt lat="35.132116" lon="-84.957651"><ele>266.1</ele><time>2026-07-29T21:28:01Z</time></trkpt>
<trkpt lat="35.13209" lon="-84.957664"><ele>266.1</ele><time>2026-07-29T21:28:03Z</time></trkpt>
<trkpt lat="35.132062" lon="-84.957671"><ele>266.4</ele><time>2026-07-29T21:28:05Z</time></trkpt>
<trkpt lat="35.132035" lon="-84.957682"><ele>267.6</ele><time>2026-07-29T21:28:07Z</time></trkpt>
<trkpt lat="35.132004" lon="-84.957693"><ele>266.7</ele><time>2026-07-29T21:28:10Z</time></trkpt>
<trkpt lat="35.131964" lon="-84.957713"><ele>266.1</ele><time>2026-07-29T21:28:13Z</time></trkpt>
<trkpt lat="35.131942" lon="-84.957739"><ele>267.3</ele><time>2026-07-29T21:28:15Z</time></trkpt>
<trkpt lat="35.131915" lon="-84.957754"><ele>267.3</ele><time>2026-07-29T21:28:17Z</time></trkpt>
<trkpt lat="35.131889" lon="-84.957766"><ele>267.0</ele><time>2026-07-29T21:28:19Z</time></trkpt>
<trkpt lat="35.13186" lon="-84.957771"><ele>267.6</ele><time>2026-07-29T21:28:21Z</time></trkpt>
<trkpt lat="35.13183" lon="-84.95777"><ele>267.0</ele><time>2026-07-29T21:28:23Z</time></trkpt>
<trkpt lat="35.131801" lon="-84.957773"><ele>267.3</ele><time>2026-07-29T21:28:25Z</time></trkpt>
<trkpt lat="35.13177" lon="-84.957766"><ele>267.6</ele><time>2026-07-29T21:28:27Z</time></trkpt>
<trkpt lat="35.131741" lon="-84.95775"><ele>267.3</ele><time>2026-07-29T21:28:29Z</time></trkpt>
<trkpt lat="35.131708" lon="-84.957725"><ele>263.7</ele><time>2026-07-29T21:28:32Z</time></trkpt>
<trkpt lat="35.13168" lon="-84.957693"><ele>263.7</ele><time>2026-07-29T21:28:35Z</time></trkpt>
<trkpt lat="35.131668" lon="-84.957656"><ele>264.9</ele><time>2026-07-29T21:28:37Z</time></trkpt>
<trkpt lat="35.131669" lon="-84.957614"><ele>264.9</ele><time>2026-07-29T21:28:39Z</time></trkpt>
<trkpt lat="35.131683" lon="-84.957572"><ele>264.9</ele><time>2026-07-29T21:28:41Z</time></trkpt>
<trkpt lat="35.131706" lon="-84.95754"><ele>266.4</ele><time>2026-07-29T21:28:43Z</time></trkpt>
<trkpt lat="35.131725" lon="-84.957512"><ele>267.0</ele><time>2026-07-29T21:28:45Z</time></trkpt>
<trkpt lat="35.131742" lon="-84.957485"><ele>266.7</ele><time>2026-07-29T21:28:47Z</time></trkpt>
<trkpt lat="35.131758" lon="-84.957454"><ele>267.3</ele><time>2026-07-29T21:28:49Z</time></trkpt>
<trkpt lat="35.131783" lon="-84.957428"><ele>267.0</ele><time>2026-07-29T21:28:51Z</time></trkpt>
<trkpt lat="35.131812" lon="-84.957412"><ele>266.4</ele><time>2026-07-29T21:28:53Z</time></trkpt>
<trkpt lat="35.131848" lon="-84.957412"><ele>264.6</ele><time>2026-07-29T21:28:55Z</time></trkpt>
<trkpt lat="35.131878" lon="-84.957404"><ele>264.0</ele><time>2026-07-29T21:28:57Z</time></trkpt>
<trkpt lat="35.131917" lon="-84.957413"><ele>262.4</ele><time>2026-07-29T21:28:59Z</time></trkpt>
<trkpt lat="35.131952" lon="-84.95742"><ele>262.1</ele><time>2026-07-29T21:29:01Z</time></trkpt>
<trkpt lat="35.131982" lon="-84.957414"><ele>261.5</ele><time>2026-07-29T21:29:03Z</time></trkpt>
<trkpt lat="35.132009" lon="-84.957403"><ele>262.1</ele><time>2026-07-29T21:29:05Z</time></trkpt>
<trkpt lat="35.132049" lon="-84.957395"><ele>261.8</ele><time>2026-07-29T21:29:08Z</time></trkpt>
<trkpt lat="35.132077" lon="-84.957394"><ele>261.5</ele><time>2026-07-29T21:29:10Z</time></trkpt>
<trkpt lat="35.132107" lon="-84.957391"><ele>260.9</ele><time>2026-07-29T21:29:12Z</time></trkpt>
<trkpt lat="35.132135" lon="-84.957382"><ele>262.4</ele><time>2026-07-29T21:29:14Z</time></trkpt>
<trkpt lat="35.132159" lon="-84.957363"><ele>262.1</ele><time>2026-07-29T21:29:16Z</time></trkpt>
<trkpt lat="35.132171" lon="-84.957331"><ele>263.3</ele><time>2026-07-29T21:29:18Z</time></trkpt>
<trkpt lat="35.132173" lon="-84.957281"><ele>264.9</ele><time>2026-07-29T21:29:21Z</time></trkpt>
<trkpt lat="35.132195" lon="-84.95724"><ele>264.9</ele><time>2026-07-29T21:29:24Z</time></trkpt>
<trkpt lat="35.132219" lon="-84.957219"><ele>265.5</ele><time>2026-07-29T21:29:26Z</time></trkpt>
<trkpt lat="35.132241" lon="-84.957193"><ele>264.9</ele><time>2026-07-29T21:29:28Z</time></trkpt>
<trkpt lat="35.132264" lon="-84.957154"><ele>264.3</ele><time>2026-07-29T21:29:31Z</time></trkpt>
<trkpt lat="35.132291" lon="-84.957118"><ele>264.3</ele><time>2026-07-29T21:29:34Z</time></trkpt>
<trkpt lat="35.132313" lon="-84.957079"><ele>263.3</ele><time>2026-07-29T21:29:37Z</time></trkpt>
<trkpt lat="35.132338" lon="-84.95704"><ele>263.7</ele><time>2026-07-29T21:29:40Z</time></trkpt>
<trkpt lat="35.132352" lon="-84.957007"><ele>265.2</ele><time>2026-07-29T21:29:43Z</time></trkpt>
<trkpt lat="35.132367" lon="-84.956979"><ele>266.1</ele><time>2026-07-29T21:29:45Z</time></trkpt>
<trkpt lat="35.132382" lon="-84.956948"><ele>265.5</ele><time>2026-07-29T21:29:47Z</time></trkpt>
<trkpt lat="35.132394" lon="-84.956917"><ele>265.2</ele><time>2026-07-29T21:29:49Z</time></trkpt>
<trkpt lat="35.132408" lon="-84.956884"><ele>266.7</ele><time>2026-07-29T21:29:51Z</time></trkpt>
<trkpt lat="35.132417" lon="-84.956851"><ele>267.0</ele><time>2026-07-29T21:29:53Z</time></trkpt>
<trkpt lat="35.132419" lon="-84.956813"><ele>266.4</ele><time>2026-07-29T21:29:55Z</time></trkpt>
<trkpt lat="35.132408" lon="-84.956776"><ele>264.6</ele><time>2026-07-29T21:29:58Z</time></trkpt>
<trkpt lat="35.132375" lon="-84.956756"><ele>263.3</ele><time>2026-07-29T21:30:01Z</time></trkpt>
<trkpt lat="35.132344" lon="-84.956748"><ele>263.0</ele><time>2026-07-29T21:30:03Z</time></trkpt>
<trkpt lat="35.132314" lon="-84.956757"><ele>267.0</ele><time>2026-07-29T21:30:05Z</time></trkpt>
<trkpt lat="35.132285" lon="-84.956768"><ele>268.8</ele><time>2026-07-29T21:30:07Z</time></trkpt>
<trkpt lat="35.132266" lon="-84.956794"><ele>268.5</ele><time>2026-07-29T21:30:09Z</time></trkpt>
<trkpt lat="35.132246" lon="-84.956818"><ele>268.8</ele><time>2026-07-29T21:30:11Z</time></trkpt>
<trkpt lat="35.132224" lon="-84.956854"><ele>267.3</ele><time>2026-07-29T21:30:14Z</time></trkpt>
<trkpt lat="35.132204" lon="-84.956891"><ele>267.0</ele><time>2026-07-29T21:30:17Z</time></trkpt>
<trkpt lat="35.132174" lon="-84.95692"><ele>266.1</ele><time>2026-07-29T21:30:20Z</time></trkpt>
<trkpt lat="35.132147" lon="-84.956953"><ele>264.6</ele><time>2026-07-29T21:30:23Z</time></trkpt>
<trkpt lat="35.13213" lon="-84.95698"><ele>264.3</ele><time>2026-07-29T21:30:25Z</time></trkpt>
<trkpt lat="35.132102" lon="-84.95701"><ele>265.2</ele><time>2026-07-29T21:30:28Z</time></trkpt>
<trkpt lat="35.132082" lon="-84.957034"><ele>264.9</ele><time>2026-07-29T21:30:30Z</time></trkpt>
<trkpt lat="35.132061" lon="-84.957058"><ele>264.6</ele><time>2026-07-29T21:30:32Z</time></trkpt>
<trkpt lat="35.132039" lon="-84.957081"><ele>264.6</ele><time>2026-07-29T21:30:34Z</time></trkpt>
<trkpt lat="35.132011" lon="-84.957098"><ele>264.9</ele><time>2026-07-29T21:30:36Z</time></trkpt>
<trkpt lat="35.131983" lon="-84.957113"><ele>264.6</ele><time>2026-07-29T21:30:38Z</time></trkpt>
<trkpt lat="35.131956" lon="-84.957119"><ele>264.3</ele><time>2026-07-29T21:30:40Z</time></trkpt>
<trkpt lat="35.131922" lon="-84.957142"><ele>262.7</ele><time>2026-07-29T21:30:43Z</time></trkpt>
<trkpt lat="35.131893" lon="-84.957146"><ele>261.2</ele><time>2026-07-29T21:30:45Z</time></trkpt>
<trkpt lat="35.131863" lon="-84.957156"><ele>260.9</ele><time>2026-07-29T21:30:47Z</time></trkpt>
<trkpt lat="35.131834" lon="-84.957164"><ele>261.2</ele><time>2026-07-29T21:30:49Z</time></trkpt>
<trkpt lat="35.131806" lon="-84.957177"><ele>260.9</ele><time>2026-07-29T21:30:51Z</time></trkpt>
<trkpt lat="35.131778" lon="-84.957186"><ele>261.2</ele><time>2026-07-29T21:30:53Z</time></trkpt>
<trkpt lat="35.13175" lon="-84.957192"><ele>261.5</ele><time>2026-07-29T21:30:55Z</time></trkpt>
<trkpt lat="35.13172" lon="-84.957224"><ele>260.3</ele><time>2026-07-29T21:30:58Z</time></trkpt>
<trkpt lat="35.1317" lon="-84.957249"><ele>260.3</ele><time>2026-07-29T21:31:00Z</time></trkpt>
<trkpt lat="35.131674" lon="-84.95727"><ele>259.4</ele><time>2026-07-29T21:31:02Z</time></trkpt>
<trkpt lat="35.13165" lon="-84.957288"><ele>259.4</ele><time>2026-07-29T21:31:04Z</time></trkpt>
<trkpt lat="35.131618" lon="-84.957294"><ele>258.5</ele><time>2026-07-29T21:31:06Z</time></trkpt>
<trkpt lat="35.131587" lon="-84.9573"><ele>259.1</ele><time>2026-07-29T21:31:08Z</time></trkpt>
<trkpt lat="35.131562" lon="-84.957312"><ele>259.4</ele><time>2026-07-29T21:31:10Z</time></trkpt>
<trkpt lat="35.131526" lon="-84.957335"><ele>260.0</ele><time>2026-07-29T21:31:13Z</time></trkpt>
<trkpt lat="35.131493" lon="-84.957363"><ele>261.5</ele><time>2026-07-29T21:31:16Z</time></trkpt>
<trkpt lat="35.131464" lon="-84.957369"><ele>261.8</ele><time>2026-07-29T21:31:18Z</time></trkpt>
<trkpt lat="35.131433" lon="-84.957398"><ele>260.9</ele><time>2026-07-29T21:31:21Z</time></trkpt>
<trkpt lat="35.131394" lon="-84.957409"><ele>261.2</ele><time>2026-07-29T21:31:24Z</time></trkpt>
<trkpt lat="35.131367" lon="-84.957416"><ele>261.5</ele><time>2026-07-29T21:31:26Z</time></trkpt>
<trkpt lat="35.131341" lon="-84.957431"><ele>262.4</ele><time>2026-07-29T21:31:28Z</time></trkpt>
<trkpt lat="35.131299" lon="-84.957441"><ele>262.1</ele><time>2026-07-29T21:31:31Z</time></trkpt>
<trkpt lat="35.131272" lon="-84.95745"><ele>261.5</ele><time>2026-07-29T21:31:33Z</time></trkpt>
<trkpt lat="35.131239" lon="-84.95744"><ele>260.6</ele><time>2026-07-29T21:31:35Z</time></trkpt>
<trkpt lat="35.131199" lon="-84.957429"><ele>259.1</ele><time>2026-07-29T21:31:38Z</time></trkpt>
<trkpt lat="35.131174" lon="-84.957411"><ele>258.5</ele><time>2026-07-29T21:31:40Z</time></trkpt>
<trkpt lat="35.131136" lon="-84.95741"><ele>258.8</ele><time>2026-07-29T21:31:43Z</time></trkpt>
<trkpt lat="35.131099" lon="-84.957429"><ele>260.9</ele><time>2026-07-29T21:31:46Z</time></trkpt>
<trkpt lat="35.131074" lon="-84.957461"><ele>260.0</ele><time>2026-07-29T21:31:49Z</time></trkpt>
<trkpt lat="35.131067" lon="-84.95751"><ele>260.0</ele><time>2026-07-29T21:31:52Z</time></trkpt>
<trkpt lat="35.13105" lon="-84.957553"><ele>261.8</ele><time>2026-07-29T21:31:55Z</time></trkpt>
<trkpt lat="35.131025" lon="-84.957589"><ele>261.8</ele><time>2026-07-29T21:31:58Z</time></trkpt>
<trkpt lat="35.131001" lon="-84.957626"><ele>260.0</ele><time>2026-07-29T21:32:01Z</time></trkpt>
<trkpt lat="35.130971" lon="-84.95766"><ele>258.5</ele><time>2026-07-29T21:32:04Z</time></trkpt>
<trkpt lat="35.130942" lon="-84.957674"><ele>257.9</ele><time>2026-07-29T21:32:06Z</time></trkpt>
<trkpt lat="35.130911" lon="-84.95767"><ele>257.9</ele><time>2026-07-29T21:32:08Z</time></trkpt>
<trkpt lat="35.130883" lon="-84.957657"><ele>256.9</ele><time>2026-07-29T21:32:10Z</time></trkpt>
<trkpt lat="35.130843" lon="-84.957644"><ele>256.9</ele><time>2026-07-29T21:32:13Z</time></trkpt>
<trkpt lat="35.130808" lon="-84.957656"><ele>255.4</ele><time>2026-07-29T21:32:16Z</time></trkpt>
<trkpt lat="35.130796" lon="-84.957687"><ele>256.6</ele><time>2026-07-29T21:32:18Z</time></trkpt>
<trkpt lat="35.130795" lon="-84.957725"><ele>256.0</ele><time>2026-07-29T21:32:20Z</time></trkpt>
<trkpt lat="35.130799" lon="-84.957762"><ele>256.3</ele><time>2026-07-29T21:32:22Z</time></trkpt>
<trkpt lat="35.130812" lon="-84.957797"><ele>255.4</ele><time>2026-07-29T21:32:24Z</time></trkpt>
<trkpt lat="35.130806" lon="-84.957847"><ele>256.6</ele><time>2026-07-29T21:32:27Z</time></trkpt>
<trkpt lat="35.130782" lon="-84.957875"><ele>256.9</ele><time>2026-07-29T21:32:29Z</time></trkpt>
<trkpt lat="35.130754" lon="-84.957897"><ele>257.3</ele><time>2026-07-29T21:32:31Z</time></trkpt>
<trkpt lat="35.130725" lon="-84.957915"><ele>258.2</ele><time>2026-07-29T21:32:33Z</time></trkpt>
<trkpt lat="35.130702" lon="-84.957934"><ele>258.8</ele><time>2026-07-29T21:32:35Z</time></trkpt>
<trkpt lat="35.130679" lon="-84.957959"><ele>258.5</ele><time>2026-07-29T21:32:37Z</time></trkpt>
<trkpt lat="35.130644" lon="-84.957962"><ele>259.7</ele><time>2026-07-29T21:32:39Z</time></trkpt>
<trkpt lat="35.130613" lon="-84.957974"><ele>260.9</ele><time>2026-07-29T21:32:41Z</time></trkpt>
<trkpt lat="35.13058" lon="-84.957982"><ele>260.3</ele><time>2026-07-29T21:32:43Z</time></trkpt>
<trkpt lat="35.130541" lon="-84.958005"><ele>259.1</ele><time>2026-07-29T21:32:45Z</time></trkpt>
<trkpt lat="35.130504" lon="-84.958021"><ele>260.6</ele><time>2026-07-29T21:32:47Z</time></trkpt>
<trkpt lat="35.130471" lon="-84.958049"><ele>262.4</ele><time>2026-07-29T21:32:50Z</time></trkpt>
<trkpt lat="35.130452" lon="-84.958086"><ele>261.5</ele><time>2026-07-29T21:32:53Z</time></trkpt>
<trkpt lat="35.130431" lon="-84.958121"><ele>262.1</ele><time>2026-07-29T21:32:56Z</time></trkpt>
<trkpt lat="35.130404" lon="-84.958153"><ele>262.4</ele><time>2026-07-29T21:32:59Z</time></trkpt>
<trkpt lat="35.130381" lon="-84.958175"><ele>261.8</ele><time>2026-07-29T21:33:01Z</time></trkpt>
<trkpt lat="35.130362" lon="-84.958203"><ele>262.4</ele><time>2026-07-29T21:33:03Z</time></trkpt>
<trkpt lat="35.130338" lon="-84.958223"><ele>262.1</ele><time>2026-07-29T21:33:05Z</time></trkpt>
<trkpt lat="35.130315" lon="-84.958245"><ele>261.8</ele><time>2026-07-29T21:33:07Z</time></trkpt>
<trkpt lat="35.130287" lon="-84.95826"><ele>262.1</ele><time>2026-07-29T21:33:09Z</time></trkpt>
<trkpt lat="35.130255" lon="-84.95826"><ele>263.0</ele><time>2026-07-29T21:33:11Z</time></trkpt>
<trkpt lat="35.130218" lon="-84.958247"><ele>261.2</ele><time>2026-07-29T21:33:13Z</time></trkpt>
<trkpt lat="35.130185" lon="-84.958235"><ele>262.1</ele><time>2026-07-29T21:33:15Z</time></trkpt>
<trkpt lat="35.130162" lon="-84.95821"><ele>261.5</ele><time>2026-07-29T21:33:17Z</time></trkpt>
<trkpt lat="35.13014" lon="-84.958182"><ele>261.8</ele><time>2026-07-29T21:33:19Z</time></trkpt>
<trkpt lat="35.130119" lon="-84.958153"><ele>261.5</ele><time>2026-07-29T21:33:21Z</time></trkpt>
<trkpt lat="35.13009" lon="-84.958131"><ele>262.4</ele><time>2026-07-29T21:33:23Z</time></trkpt>
<trkpt lat="35.13006" lon="-84.958129"><ele>262.1</ele><time>2026-07-29T21:33:25Z</time></trkpt>
<trkpt lat="35.130032" lon="-84.958139"><ele>262.7</ele><time>2026-07-29T21:33:27Z</time></trkpt>
<trkpt lat="35.13001" lon="-84.95817"><ele>262.1</ele><time>2026-07-29T21:33:29Z</time></trkpt>
<trkpt lat="35.129991" lon="-84.9582"><ele>261.2</ele><time>2026-07-29T21:33:32Z</time></trkpt>
<trkpt lat="35.129974" lon="-84.958229"><ele>261.5</ele><time>2026-07-29T21:33:34Z</time></trkpt>
<trkpt lat="35.12995" lon="-84.958247"><ele>261.2</ele><time>2026-07-29T21:33:36Z</time></trkpt>
<trkpt lat="35.129924" lon="-84.958264"><ele>262.4</ele><time>2026-07-29T21:33:38Z</time></trkpt>
<trkpt lat="35.129894" lon="-84.958272"><ele>262.4</ele><time>2026-07-29T21:33:40Z</time></trkpt>
<trkpt lat="35.129858" lon="-84.958266"><ele>261.2</ele><time>2026-07-29T21:33:42Z</time></trkpt>
<trkpt lat="35.129829" lon="-84.958241"><ele>260.0</ele><time>2026-07-29T21:33:44Z</time></trkpt>
<trkpt lat="35.129806" lon="-84.958218"><ele>259.1</ele><time>2026-07-29T21:33:46Z</time></trkpt>
<trkpt lat="35.129784" lon="-84.958187"><ele>260.9</ele><time>2026-07-29T21:33:48Z</time></trkpt>
<trkpt lat="35.129764" lon="-84.958156"><ele>260.9</ele><time>2026-07-29T21:33:50Z</time></trkpt>
<trkpt lat="35.129741" lon="-84.95813"><ele>261.2</ele><time>2026-07-29T21:33:52Z</time></trkpt>
<trkpt lat="35.129721" lon="-84.958107"><ele>263.0</ele><time>2026-07-29T21:33:54Z</time></trkpt>
<trkpt lat="35.129709" lon="-84.958062"><ele>261.8</ele><time>2026-07-29T21:33:57Z</time></trkpt>
<trkpt lat="35.129706" lon="-84.958025"><ele>261.8</ele><time>2026-07-29T21:33:59Z</time></trkpt>
<trkpt lat="35.129698" lon="-84.957978"><ele>260.6</ele><time>2026-07-29T21:34:02Z</time></trkpt>
<trkpt lat="35.129698" lon="-84.957943"><ele>262.7</ele><time>2026-07-29T21:34:04Z</time></trkpt>
<trkpt lat="35.129701" lon="-84.957905"><ele>264.3</ele><time>2026-07-29T21:34:06Z</time></trkpt>
<trkpt lat="35.12968" lon="-84.957871"><ele>263.7</ele><time>2026-07-29T21:34:09Z</time></trkpt>
<trkpt lat="35.129664" lon="-84.957829"><ele>264.0</ele><time>2026-07-29T21:34:12Z</time></trkpt>
<trkpt lat="35.12965" lon="-84.957796"><ele>264.3</ele><time>2026-07-29T21:34:14Z</time></trkpt>
<trkpt lat="35.129632" lon="-84.957762"><ele>261.2</ele><time>2026-07-29T21:34:16Z</time></trkpt>
<trkpt lat="35.129628" lon="-84.957723"><ele>262.1</ele><time>2026-07-29T21:34:18Z</time></trkpt>
<trkpt lat="35.129648" lon="-84.957687"><ele>261.2</ele><time>2026-07-29T21:34:20Z</time></trkpt>
<trkpt lat="35.129667" lon="-84.957657"><ele>261.2</ele><time>2026-07-29T21:34:22Z</time></trkpt>
<trkpt lat="35.129701" lon="-84.95764"><ele>263.7</ele><time>2026-07-29T21:34:24Z</time></trkpt>
<trkpt lat="35.129731" lon="-84.957634"><ele>264.0</ele><time>2026-07-29T21:34:26Z</time></trkpt>
<trkpt lat="35.129771" lon="-84.957635"><ele>265.5</ele><time>2026-07-29T21:34:29Z</time></trkpt>
<trkpt lat="35.129806" lon="-84.957611"><ele>267.0</ele><time>2026-07-29T21:34:32Z</time></trkpt>
<trkpt lat="35.129826" lon="-84.957588"><ele>267.0</ele><time>2026-07-29T21:34:34Z</time></trkpt>
<trkpt lat="35.129849" lon="-84.957567"><ele>266.4</ele><time>2026-07-29T21:34:36Z</time></trkpt>
<trkpt lat="35.129875" lon="-84.957552"><ele>266.4</ele><time>2026-07-29T21:34:38Z</time></trkpt>
<trkpt lat="35.129904" lon="-84.957537"><ele>265.5</ele><time>2026-07-29T21:34:40Z</time></trkpt>
<trkpt lat="35.12993" lon="-84.957519"><ele>264.6</ele><time>2026-07-29T21:34:42Z</time></trkpt>
<trkpt lat="35.129954" lon="-84.957497"><ele>265.5</ele><time>2026-07-29T21:34:44Z</time></trkpt>
<trkpt lat="35.129978" lon="-84.957479"><ele>264.6</ele><time>2026-07-29T21:34:46Z</time></trkpt>
<trkpt lat="35.13" lon="-84.957457"><ele>263.0</ele><time>2026-07-29T21:34:48Z</time></trkpt>
<trkpt lat="35.130021" lon="-84.957423"><ele>267.0</ele><time>2026-07-29T21:34:50Z</time></trkpt>
<trkpt lat="35.130044" lon="-84.957397"><ele>266.7</ele><time>2026-07-29T21:34:52Z</time></trkpt>
<trkpt lat="35.130067" lon="-84.95737"><ele>265.8</ele><time>2026-07-29T21:34:54Z</time></trkpt>
<trkpt lat="35.13008" lon="-84.957338"><ele>264.9</ele><time>2026-07-29T21:34:56Z</time></trkpt>
<trkpt lat="35.130093" lon="-84.957307"><ele>266.4</ele><time>2026-07-29T21:34:58Z</time></trkpt>
<trkpt lat="35.130116" lon="-84.957284"><ele>265.8</ele><time>2026-07-29T21:35:00Z</time></trkpt>
<trkpt lat="35.130143" lon="-84.957266"><ele>265.5</ele><time>2026-07-29T21:35:02Z</time></trkpt>
<trkpt lat="35.130171" lon="-84.957257"><ele>266.1</ele><time>2026-07-29T21:35:04Z</time></trkpt>
<trkpt lat="35.130199" lon="-84.957252"><ele>266.7</ele><time>2026-07-29T21:35:06Z</time></trkpt>
<trkpt lat="35.13023" lon="-84.957222"><ele>266.7</ele><time>2026-07-29T21:35:09Z</time></trkpt>
<trkpt lat="35.130252" lon="-84.957199"><ele>268.8</ele><time>2026-07-29T21:35:11Z</time></trkpt>
<trkpt lat="35.130275" lon="-84.957178"><ele>268.8</ele><time>2026-07-29T21:35:13Z</time></trkpt>
<trkpt lat="35.130297" lon="-84.957153"><ele>268.5</ele><time>2026-07-29T21:35:15Z</time></trkpt>
<trkpt lat="35.13032" lon="-84.95713"><ele>267.3</ele><time>2026-07-29T21:35:17Z</time></trkpt>
<trkpt lat="35.130354" lon="-84.957104"><ele>267.6</ele><time>2026-07-29T21:35:20Z</time></trkpt>
<trkpt lat="35.130378" lon="-84.957085"><ele>267.9</ele><time>2026-07-29T21:35:22Z</time></trkpt>
<trkpt lat="35.130417" lon="-84.957072"><ele>267.3</ele><time>2026-07-29T21:35:25Z</time></trkpt>
<trkpt lat="35.130445" lon="-84.957069"><ele>271.9</ele><time>2026-07-29T21:35:27Z</time></trkpt>
<trkpt lat="35.130478" lon="-84.957062"><ele>272.5</ele><time>2026-07-29T21:35:29Z</time></trkpt>
<trkpt lat="35.130507" lon="-84.957049"><ele>271.9</ele><time>2026-07-29T21:35:31Z</time></trkpt>
<trkpt lat="35.130539" lon="-84.957048"><ele>270.1</ele><time>2026-07-29T21:35:33Z</time></trkpt>
<trkpt lat="35.13057" lon="-84.957057"><ele>269.1</ele><time>2026-07-29T21:35:35Z</time></trkpt>
<trkpt lat="35.130604" lon="-84.957043"><ele>268.8</ele><time>2026-07-29T21:35:38Z</time></trkpt>
<trkpt lat="35.130634" lon="-84.957036"><ele>266.1</ele><time>2026-07-29T21:35:40Z</time></trkpt>
<trkpt lat="35.13066" lon="-84.957021"><ele>266.7</ele><time>2026-07-29T21:35:42Z</time></trkpt>
<trkpt lat="35.130681" lon="-84.956994"><ele>265.5</ele><time>2026-07-29T21:35:44Z</time></trkpt>
<trkpt lat="35.13069" lon="-84.956952"><ele>265.2</ele><time>2026-07-29T21:35:46Z</time></trkpt>
<trkpt lat="35.13071" lon="-84.956925"><ele>266.7</ele><time>2026-07-29T21:35:48Z</time></trkpt>
<trkpt lat="35.130734" lon="-84.956907"><ele>264.9</ele><time>2026-07-29T21:35:50Z</time></trkpt>
<trkpt lat="35.130758" lon="-84.956885"><ele>264.9</ele><time>2026-07-29T21:35:52Z</time></trkpt>
<trkpt lat="35.130784" lon="-84.956864"><ele>264.6</ele><time>2026-07-29T21:35:54Z</time></trkpt>
<trkpt lat="35.130816" lon="-84.956852"><ele>260.3</ele><time>2026-07-29T21:35:57Z</time></trkpt>
<trkpt lat="35.130839" lon="-84.956815"><ele>259.1</ele><time>2026-07-29T21:36:00Z</time></trkpt>
<trkpt lat="35.130848" lon="-84.956778"><ele>258.2</ele><time>2026-07-29T21:36:02Z</time></trkpt>
<trkpt lat="35.130869" lon="-84.956748"><ele>257.3</ele><time>2026-07-29T21:36:04Z</time></trkpt>
<trkpt lat="35.13089" lon="-84.956722"><ele>258.5</ele><time>2026-07-29T21:36:06Z</time></trkpt>
<trkpt lat="35.130921" lon="-84.956709"><ele>260.0</ele><time>2026-07-29T21:36:08Z</time></trkpt>
<trkpt lat="35.13096" lon="-84.95669"><ele>260.9</ele><time>2026-07-29T21:36:11Z</time></trkpt>
<trkpt lat="35.130977" lon="-84.956647"><ele>260.9</ele><time>2026-07-29T21:36:14Z</time></trkpt>
<trkpt lat="35.130993" lon="-84.9566"><ele>260.3</ele><time>2026-07-29T21:36:17Z</time></trkpt>
<trkpt lat="35.131008" lon="-84.956568"><ele>259.7</ele><time>2026-07-29T21:36:19Z</time></trkpt>
<trkpt lat="35.131033" lon="-84.95654"><ele>259.7</ele><time>2026-07-29T21:36:21Z</time></trkpt>
<trkpt lat="35.131056" lon="-84.956512"><ele>259.1</ele><time>2026-07-29T21:36:23Z</time></trkpt>
<trkpt lat="35.131078" lon="-84.956483"><ele>257.9</ele><time>2026-07-29T21:36:25Z</time></trkpt>
<trkpt lat="35.131102" lon="-84.95646"><ele>257.3</ele><time>2026-07-29T21:36:27Z</time></trkpt>
<trkpt lat="35.131125" lon="-84.956435"><ele>257.9</ele><time>2026-07-29T21:36:29Z</time></trkpt>
<trkpt lat="35.131147" lon="-84.95641"><ele>258.5</ele><time>2026-07-29T21:36:31Z</time></trkpt>
<trkpt lat="35.131168" lon="-84.956387"><ele>258.2</ele><time>2026-07-29T21:36:33Z</time></trkpt>
<trkpt lat="35.131183" lon="-84.956358"><ele>259.7</ele><time>2026-07-29T21:36:35Z</time></trkpt>
<trkpt lat="35.131198" lon="-84.956329"><ele>259.7</ele><time>2026-07-29T21:36:37Z</time></trkpt>
<trkpt lat="35.131212" lon="-84.956299"><ele>258.8</ele><time>2026-07-29T21:36:39Z</time></trkpt>
<trkpt lat="35.131228" lon="-84.956271"><ele>257.6</ele><time>2026-07-29T21:36:41Z</time></trkpt>
<trkpt lat="35.131246" lon="-84.956226"><ele>256.6</ele><time>2026-07-29T21:36:44Z</time></trkpt>
<trkpt lat="35.131249" lon="-84.956192"><ele>257.3</ele><time>2026-07-29T21:36:46Z</time></trkpt>
<trkpt lat="35.131247" lon="-84.956142"><ele>255.7</ele><time>2026-07-29T21:36:49Z</time></trkpt>
<trkpt lat="35.131236" lon="-84.956106"><ele>255.1</ele><time>2026-07-29T21:36:51Z</time></trkpt>
<trkpt lat="35.131207" lon="-84.956079"><ele>254.8</ele><time>2026-07-29T21:36:53Z</time></trkpt>
<trkpt lat="35.131169" lon="-84.956068"><ele>255.1</ele><time>2026-07-29T21:36:55Z</time></trkpt>
<trkpt lat="35.131128" lon="-84.956048"><ele>257.3</ele><time>2026-07-29T21:36:57Z</time></trkpt>
<trkpt lat="35.131093" lon="-84.956018"><ele>258.2</ele><time>2026-07-29T21:36:59Z</time></trkpt>
<trkpt lat="35.131052" lon="-84.95601"><ele>259.1</ele><time>2026-07-29T21:37:01Z</time></trkpt>
<trkpt lat="35.13101" lon="-84.956014"><ele>260.0</ele><time>2026-07-29T21:37:03Z</time></trkpt>
<trkpt lat="35.130983" lon="-84.956036"><ele>260.6</ele><time>2026-07-29T21:37:05Z</time></trkpt>
<trkpt lat="35.130952" lon="-84.95607"><ele>260.3</ele><time>2026-07-29T21:37:08Z</time></trkpt>
<trkpt lat="35.130932" lon="-84.956096"><ele>261.5</ele><time>2026-07-29T21:37:10Z</time></trkpt>
<trkpt lat="35.130903" lon="-84.956132"><ele>264.0</ele><time>2026-07-29T21:37:13Z</time></trkpt>
<trkpt lat="35.130884" lon="-84.956158"><ele>262.1</ele><time>2026-07-29T21:37:15Z</time></trkpt>
<trkpt lat="35.130864" lon="-84.956183"><ele>263.0</ele><time>2026-07-29T21:37:17Z</time></trkpt>
<trkpt lat="35.130842" lon="-84.956213"><ele>264.0</ele><time>2026-07-29T21:37:19Z</time></trkpt>
<trkpt lat="35.13082" lon="-84.956243"><ele>264.3</ele><time>2026-07-29T21:37:21Z</time></trkpt>
<trkpt lat="35.130802" lon="-84.956273"><ele>263.0</ele><time>2026-07-29T21:37:23Z</time></trkpt>
<trkpt lat="35.130782" lon="-84.956304"><ele>262.7</ele><time>2026-07-29T21:37:25Z</time></trkpt>
<trkpt lat="35.130759" lon="-84.956333"><ele>263.7</ele><time>2026-07-29T21:37:27Z</time></trkpt>
<trkpt lat="35.130737" lon="-84.95636"><ele>262.4</ele><time>2026-07-29T21:37:29Z</time></trkpt>
<trkpt lat="35.130713" lon="-84.956381"><ele>263.0</ele><time>2026-07-29T21:37:32Z</time></trkpt>
<trkpt lat="35.130686" lon="-84.956355"><ele>262.4</ele><time>2026-07-29T21:37:35Z</time></trkpt>
<trkpt lat="35.130662" lon="-84.956331"><ele>261.8</ele><time>2026-07-29T21:37:37Z</time></trkpt>
<trkpt lat="35.130639" lon="-84.956306"><ele>260.9</ele><time>2026-07-29T21:37:39Z</time></trkpt>
<trkpt lat="35.130609" lon="-84.95629"><ele>259.7</ele><time>2026-07-29T21:37:41Z</time></trkpt>
<trkpt lat="35.130576" lon="-84.956294"><ele>261.5</ele><time>2026-07-29T21:37:43Z</time></trkpt>
<trkpt lat="35.130558" lon="-84.956323"><ele>262.4</ele><time>2026-07-29T21:37:45Z</time></trkpt>
<trkpt lat="35.130548" lon="-84.956357"><ele>263.3</ele><time>2026-07-29T21:37:47Z</time></trkpt>
<trkpt lat="35.130551" lon="-84.956396"><ele>261.8</ele><time>2026-07-29T21:37:49Z</time></trkpt>
<trkpt lat="35.130547" lon="-84.956431"><ele>260.9</ele><time>2026-07-29T21:37:51Z</time></trkpt>
<trkpt lat="35.130538" lon="-84.956467"><ele>261.2</ele><time>2026-07-29T21:37:53Z</time></trkpt>
<trkpt lat="35.130516" lon="-84.956507"><ele>261.8</ele><time>2026-07-29T21:37:56Z</time></trkpt>
<trkpt lat="35.13049" lon="-84.956545"><ele>262.4</ele><time>2026-07-29T21:37:59Z</time></trkpt>
<trkpt lat="35.130476" lon="-84.956577"><ele>260.6</ele><time>2026-07-29T21:38:01Z</time></trkpt>
<trkpt lat="35.130453" lon="-84.9566"><ele>262.1</ele><time>2026-07-29T21:38:03Z</time></trkpt>
<trkpt lat="35.130426" lon="-84.956616"><ele>264.0</ele><time>2026-07-29T21:38:05Z</time></trkpt>
<trkpt lat="35.130399" lon="-84.956636"><ele>264.3</ele><time>2026-07-29T21:38:07Z</time></trkpt>
<trkpt lat="35.130374" lon="-84.956651"><ele>262.4</ele><time>2026-07-29T21:38:09Z</time></trkpt>
<trkpt lat="35.13034" lon="-84.956679"><ele>261.5</ele><time>2026-07-29T21:38:12Z</time></trkpt>
<trkpt lat="35.13032" lon="-84.956708"><ele>261.2</ele><time>2026-07-29T21:38:14Z</time></trkpt>
<trkpt lat="35.130298" lon="-84.956732"><ele>258.8</ele><time>2026-07-29T21:38:16Z</time></trkpt>
<trkpt lat="35.130273" lon="-84.956753"><ele>258.2</ele><time>2026-07-29T21:38:18Z</time></trkpt>
<trkpt lat="35.130238" lon="-84.956751"><ele>259.1</ele><time>2026-07-29T21:38:20Z</time></trkpt>
<trkpt lat="35.130209" lon="-84.956754"><ele>259.7</ele><time>2026-07-29T21:38:22Z</time></trkpt>
<trkpt lat="35.130177" lon="-84.956754"><ele>260.3</ele><time>2026-07-29T21:38:24Z</time></trkpt>
<trkpt lat="35.130149" lon="-84.956763"><ele>260.3</ele><time>2026-07-29T21:38:26Z</time></trkpt>
<trkpt lat="35.130123" lon="-84.956747"><ele>264.3</ele><time>2026-07-29T21:38:29Z</time></trkpt>
<trkpt lat="35.130099" lon="-84.956725"><ele>264.9</ele><time>2026-07-29T21:38:32Z</time></trkpt>
<trkpt lat="35.130069" lon="-84.956689"><ele>261.5</ele><time>2026-07-29T21:38:35Z</time></trkpt>
<trkpt lat="35.130056" lon="-84.956655"><ele>260.3</ele><time>2026-07-29T21:38:37Z</time></trkpt>
<trkpt lat="35.130048" lon="-84.956609"><ele>261.8</ele><time>2026-07-29T21:38:40Z</time></trkpt>
<trkpt lat="35.130032" lon="-84.956581"><ele>261.2</ele><time>2026-07-29T21:38:42Z</time></trkpt>
<trkpt lat="35.130009" lon="-84.956562"><ele>260.9</ele><time>2026-07-29T21:38:44Z</time></trkpt>
<trkpt lat="35.129964" lon="-84.95658"><ele>260.9</ele><time>2026-07-29T21:38:46Z</time></trkpt>
<trkpt lat="35.129941" lon="-84.956602"><ele>260.0</ele><time>2026-07-29T21:38:48Z</time></trkpt>
<trkpt lat="35.129936" lon="-84.95664"><ele>258.5</ele><time>2026-07-29T21:38:50Z</time></trkpt>
<trkpt lat="35.129928" lon="-84.956674"><ele>258.8</ele><time>2026-07-29T21:38:52Z</time></trkpt>
<trkpt lat="35.129911" lon="-84.956703"><ele>259.1</ele><time>2026-07-29T21:38:54Z</time></trkpt>
<trkpt lat="35.129893" lon="-84.956747"><ele>260.3</ele><time>2026-07-29T21:38:57Z</time></trkpt>
<trkpt lat="35.129878" lon="-84.956775"><ele>263.0</ele><time>2026-07-29T21:38:59Z</time></trkpt>
<trkpt lat="35.129841" lon="-84.956798"><ele>264.6</ele><time>2026-07-29T21:39:02Z</time></trkpt>
<trkpt lat="35.129807" lon="-84.956819"><ele>264.3</ele><time>2026-07-29T21:39:05Z</time></trkpt>
<trkpt lat="35.129778" lon="-84.956825"><ele>265.5</ele><time>2026-07-29T21:39:07Z</time></trkpt>
<trkpt lat="35.129749" lon="-84.956825"><ele>264.6</ele><time>2026-07-29T21:39:09Z</time></trkpt>
<trkpt lat="35.129723" lon="-84.956837"><ele>265.2</ele><time>2026-07-29T21:39:11Z</time></trkpt>
<trkpt lat="35.129706" lon="-84.95687"><ele>264.9</ele><time>2026-07-29T21:39:13Z</time></trkpt>
<trkpt lat="35.129695" lon="-84.956903"><ele>264.3</ele><time>2026-07-29T21:39:15Z</time></trkpt>
<trkpt lat="35.129672" lon="-84.956939"><ele>264.0</ele><time>2026-07-29T21:39:18Z</time></trkpt>
<trkpt lat="35.129635" lon="-84.956956"><ele>262.4</ele><time>2026-07-29T21:39:21Z</time></trkpt>
<trkpt lat="35.129596" lon="-84.956958"><ele>259.4</ele><time>2026-07-29T21:39:24Z</time></trkpt>
<trkpt lat="35.129557" lon="-84.956942"><ele>260.0</ele><time>2026-07-29T21:39:27Z</time></trkpt>
<trkpt lat="35.129552" lon="-84.956908"><ele>259.7</ele><time>2026-07-29T21:39:29Z</time></trkpt>
<trkpt lat="35.129546" lon="-84.956871"><ele>259.7</ele><time>2026-07-29T21:39:32Z</time></trkpt>
<trkpt lat="35.129525" lon="-84.956838"><ele>259.4</ele><time>2026-07-29T21:39:35Z</time></trkpt>
<trkpt lat="35.129505" lon="-84.956799"><ele>259.7</ele><time>2026-07-29T21:39:38Z</time></trkpt>
<trkpt lat="35.129485" lon="-84.956759"><ele>260.3</ele><time>2026-07-29T21:39:41Z</time></trkpt>
<trkpt lat="35.129459" lon="-84.956729"><ele>259.1</ele><time>2026-07-29T21:39:44Z</time></trkpt>
<trkpt lat="35.129436" lon="-84.956707"><ele>259.1</ele><time>2026-07-29T21:39:46Z</time></trkpt>
<trkpt lat="35.129401" lon="-84.9567"><ele>259.1</ele><time>2026-07-29T21:39:48Z</time></trkpt>
<trkpt lat="35.129371" lon="-84.956715"><ele>257.9</ele><time>2026-07-29T21:39:50Z</time></trkpt>
<trkpt lat="35.129342" lon="-84.956731"><ele>259.1</ele><time>2026-07-29T21:39:52Z</time></trkpt>
<trkpt lat="35.129317" lon="-84.956749"><ele>258.5</ele><time>2026-07-29T21:39:54Z</time></trkpt>
<trkpt lat="35.129281" lon="-84.956778"><ele>259.4</ele><time>2026-07-29T21:39:57Z</time></trkpt>
<trkpt lat="35.129252" lon="-84.956791"><ele>260.6</ele><time>2026-07-29T21:39:59Z</time></trkpt>
<trkpt lat="35.129227" lon="-84.956811"><ele>261.5</ele><time>2026-07-29T21:40:01Z</time></trkpt>
<trkpt lat="35.129202" lon="-84.956827"><ele>260.9</ele><time>2026-07-29T21:40:03Z</time></trkpt>
<trkpt lat="35.129172" lon="-84.95683"><ele>262.1</ele><time>2026-07-29T21:40:05Z</time></trkpt>
<trkpt lat="35.129139" lon="-84.956814"><ele>263.7</ele><time>2026-07-29T21:40:07Z</time></trkpt>
<trkpt lat="35.129111" lon="-84.956801"><ele>262.7</ele><time>2026-07-29T21:40:09Z</time></trkpt>
<trkpt lat="35.129085" lon="-84.956787"><ele>261.2</ele><time>2026-07-29T21:40:11Z</time></trkpt>
<trkpt lat="35.129069" lon="-84.956756"><ele>262.4</ele><time>2026-07-29T21:40:13Z</time></trkpt>
<trkpt lat="35.129084" lon="-84.956715"><ele>261.5</ele><time>2026-07-29T21:40:16Z</time></trkpt>
<trkpt lat="35.129118" lon="-84.956693"><ele>262.7</ele><time>2026-07-29T21:40:19Z</time></trkpt>
<trkpt lat="35.129144" lon="-84.956677"><ele>263.0</ele><time>2026-07-29T21:40:21Z</time></trkpt>
<trkpt lat="35.129172" lon="-84.956642"><ele>264.6</ele><time>2026-07-29T21:40:24Z</time></trkpt>
<trkpt lat="35.129181" lon="-84.956609"><ele>264.9</ele><time>2026-07-29T21:40:26Z</time></trkpt>
<trkpt lat="35.129193" lon="-84.956578"><ele>265.2</ele><time>2026-07-29T21:40:28Z</time></trkpt>
<trkpt lat="35.129199" lon="-84.956543"><ele>264.0</ele><time>2026-07-29T21:40:30Z</time></trkpt>
<trkpt lat="35.129205" lon="-84.956507"><ele>264.0</ele><time>2026-07-29T21:40:32Z</time></trkpt>
<trkpt lat="35.129211" lon="-84.956474"><ele>264.9</ele><time>2026-07-29T21:40:34Z</time></trkpt>
<trkpt lat="35.129225" lon="-84.956442"><ele>264.9</ele><time>2026-07-29T21:40:36Z</time></trkpt>
<trkpt lat="35.12924" lon="-84.956413"><ele>265.8</ele><time>2026-07-29T21:40:38Z</time></trkpt>
<trkpt lat="35.129265" lon="-84.956394"><ele>266.4</ele><time>2026-07-29T21:40:40Z</time></trkpt>
<trkpt lat="35.129289" lon="-84.956375"><ele>266.4</ele><time>2026-07-29T21:40:42Z</time></trkpt>
<trkpt lat="35.129325" lon="-84.956353"><ele>267.0</ele><time>2026-07-29T21:40:45Z</time></trkpt>
<trkpt lat="35.129352" lon="-84.95634"><ele>267.0</ele><time>2026-07-29T21:40:47Z</time></trkpt>
<trkpt lat="35.129381" lon="-84.95634"><ele>267.0</ele><time>2026-07-29T21:40:49Z</time></trkpt>
<trkpt lat="35.129409" lon="-84.956347"><ele>267.0</ele><time>2026-07-29T21:40:51Z</time></trkpt>
<trkpt lat="35.129437" lon="-84.956381"><ele>267.0</ele><time>2026-07-29T21:40:54Z</time></trkpt>
<trkpt lat="35.129463" lon="-84.956418"><ele>266.7</ele><time>2026-07-29T21:40:57Z</time></trkpt>
<trkpt lat="35.129484" lon="-84.956445"><ele>267.0</ele><time>2026-07-29T21:40:59Z</time></trkpt>
<trkpt lat="35.129509" lon="-84.956467"><ele>267.3</ele><time>2026-07-29T21:41:01Z</time></trkpt>
<trkpt lat="35.129533" lon="-84.956489"><ele>267.0</ele><time>2026-07-29T21:41:03Z</time></trkpt>
<trkpt lat="35.129559" lon="-84.956518"><ele>266.7</ele><time>2026-07-29T21:41:06Z</time></trkpt>
<trkpt lat="35.129583" lon="-84.956535"><ele>265.8</ele><time>2026-07-29T21:41:08Z</time></trkpt>
<trkpt lat="35.12962" lon="-84.956556"><ele>267.0</ele><time>2026-07-29T21:41:11Z</time></trkpt>
<trkpt lat="35.129647" lon="-84.95657"><ele>267.3</ele><time>2026-07-29T21:41:13Z</time></trkpt>
<trkpt lat="35.129678" lon="-84.956574"><ele>266.7</ele><time>2026-07-29T21:41:15Z</time></trkpt>
<trkpt lat="35.129707" lon="-84.956569"><ele>266.7</ele><time>2026-07-29T21:41:17Z</time></trkpt>
<trkpt lat="35.129746" lon="-84.956565"><ele>267.3</ele><time>2026-07-29T21:41:20Z</time></trkpt>
<trkpt lat="35.129773" lon="-84.956556"><ele>267.6</ele><time>2026-07-29T21:41:22Z</time></trkpt>
<trkpt lat="35.129803" lon="-84.95655"><ele>268.2</ele><time>2026-07-29T21:41:24Z</time></trkpt>
<trkpt lat="35.129831" lon="-84.956537"><ele>267.9</ele><time>2026-07-29T21:41:26Z</time></trkpt>
<trkpt lat="35.129853" lon="-84.956514"><ele>267.0</ele><time>2026-07-29T21:41:28Z</time></trkpt>
<trkpt lat="35.129875" lon="-84.956491"><ele>267.0</ele><time>2026-07-29T21:41:30Z</time></trkpt>
<trkpt lat="35.129898" lon="-84.956466"><ele>266.4</ele><time>2026-07-29T21:41:32Z</time></trkpt>
<trkpt lat="35.129906" lon="-84.956428"><ele>266.7</ele><time>2026-07-29T21:41:34Z</time></trkpt>
<trkpt lat="35.129914" lon="-84.95639"><ele>267.0</ele><time>2026-07-29T21:41:36Z</time></trkpt>
<trkpt lat="35.129923" lon="-84.956355"><ele>266.4</ele><time>2026-07-29T21:41:38Z</time></trkpt>
<trkpt lat="35.129936" lon="-84.95632"><ele>266.1</ele><time>2026-07-29T21:41:40Z</time></trkpt>
<trkpt lat="35.129955" lon="-84.956288"><ele>266.1</ele><time>2026-07-29T21:41:42Z</time></trkpt>
<trkpt lat="35.129974" lon="-84.956261"><ele>267.0</ele><time>2026-07-29T21:41:44Z</time></trkpt>
<trkpt lat="35.129984" lon="-84.95623"><ele>267.9</ele><time>2026-07-29T21:41:46Z</time></trkpt>
<trkpt lat="35.130001" lon="-84.956188"><ele>267.6</ele><time>2026-07-29T21:41:49Z</time></trkpt>
<trkpt lat="35.13001" lon="-84.956141"><ele>266.7</ele><time>2026-07-29T21:41:52Z</time></trkpt>
<trkpt lat="35.130011" lon="-84.956107"><ele>267.0</ele><time>2026-07-29T21:41:54Z</time></trkpt>
<trkpt lat="35.130028" lon="-84.956077"><ele>266.1</ele><time>2026-07-29T21:41:56Z</time></trkpt>
<trkpt lat="35.130051" lon="-84.956058"><ele>265.5</ele><time>2026-07-29T21:41:58Z</time></trkpt>
<trkpt lat="35.130087" lon="-84.956068"><ele>266.1</ele><time>2026-07-29T21:42:00Z</time></trkpt>
<trkpt lat="35.130114" lon="-84.956089"><ele>266.4</ele><time>2026-07-29T21:42:02Z</time></trkpt>
<trkpt lat="35.130133" lon="-84.956116"><ele>267.9</ele><time>2026-07-29T21:42:04Z</time></trkpt>
<trkpt lat="35.130152" lon="-84.95614"><ele>269.1</ele><time>2026-07-29T21:42:06Z</time></trkpt>
<trkpt lat="35.130169" lon="-84.956169"><ele>269.7</ele><time>2026-07-29T21:42:08Z</time></trkpt>
<trkpt lat="35.130178" lon="-84.956216"><ele>269.4</ele><time>2026-07-29T21:42:11Z</time></trkpt>
<trkpt lat="35.130177" lon="-84.956261"><ele>267.3</ele><time>2026-07-29T21:42:14Z</time></trkpt>
<trkpt lat="35.130182" lon="-84.956303"><ele>266.1</ele><time>2026-07-29T21:42:17Z</time></trkpt>
<trkpt lat="35.130172" lon="-84.956347"><ele>266.4</ele><time>2026-07-29T21:42:20Z</time></trkpt>
<trkpt lat="35.130175" lon="-84.956394"><ele>267.9</ele><time>2026-07-29T21:42:23Z</time></trkpt>
<trkpt lat="35.130201" lon="-84.956434"><ele>267.9</ele><time>2026-07-29T21:42:26Z</time></trkpt>
<trkpt lat="35.130237" lon="-84.956434"><ele>269.1</ele><time>2026-07-29T21:42:28Z</time></trkpt>
<trkpt lat="35.130266" lon="-84.956437"><ele>270.1</ele><time>2026-07-29T21:42:30Z</time></trkpt>
<trkpt lat="35.130297" lon="-84.956435"><ele>270.1</ele><time>2026-07-29T21:42:32Z</time></trkpt>
<trkpt lat="35.130326" lon="-84.956421"><ele>269.7</ele><time>2026-07-29T21:42:34Z</time></trkpt>
<trkpt lat="35.130356" lon="-84.9564"><ele>268.8</ele><time>2026-07-29T21:42:36Z</time></trkpt>
<trkpt lat="35.130378" lon="-84.956377"><ele>268.2</ele><time>2026-07-29T21:42:38Z</time></trkpt>
<trkpt lat="35.130393" lon="-84.956344"><ele>267.3</ele><time>2026-07-29T21:42:40Z</time></trkpt>
<trkpt lat="35.130406" lon="-84.956313"><ele>269.7</ele><time>2026-07-29T21:42:42Z</time></trkpt>
<trkpt lat="35.13042" lon="-84.956281"><ele>268.2</ele><time>2026-07-29T21:42:44Z</time></trkpt>
<trkpt lat="35.130423" lon="-84.956248"><ele>267.3</ele><time>2026-07-29T21:42:46Z</time></trkpt>
<trkpt lat="35.130426" lon="-84.956197"><ele>265.2</ele><time>2026-07-29T21:42:49Z</time></trkpt>
<trkpt lat="35.130425" lon="-84.956162"><ele>265.5</ele><time>2026-07-29T21:42:51Z</time></trkpt>
<trkpt lat="35.130417" lon="-84.95613"><ele>267.0</ele><time>2026-07-29T21:42:52Z</time></trkpt>
<trkpt lat="35.130436" lon="-84.956098"><ele>266.4</ele><time>2026-07-29T21:42:55Z</time></trkpt>
<trkpt lat="35.130461" lon="-84.956045"><ele>267.9</ele><time>2026-07-29T21:42:57Z</time></trkpt>
<trkpt lat="35.130473" lon="-84.95601"><ele>265.2</ele><time>2026-07-29T21:43:00Z</time></trkpt>
<trkpt lat="35.130466" lon="-84.955967"><ele>263.7</ele><time>2026-07-29T21:43:03Z</time></trkpt>
<trkpt lat="35.130454" lon="-84.955925"><ele>261.5</ele><time>2026-07-29T21:43:06Z</time></trkpt>
<trkpt lat="35.130437" lon="-84.955886"><ele>262.1</ele><time>2026-07-29T21:43:09Z</time></trkpt>
<trkpt lat="35.130432" lon="-84.955845"><ele>261.5</ele><time>2026-07-29T21:43:12Z</time></trkpt>
<trkpt lat="35.13044" lon="-84.955801"><ele>263.3</ele><time>2026-07-29T21:43:14Z</time></trkpt>
<trkpt lat="35.130451" lon="-84.955764"><ele>260.9</ele><time>2026-07-29T21:43:16Z</time></trkpt>
<trkpt lat="35.130453" lon="-84.955718"><ele>263.3</ele><time>2026-07-29T21:43:18Z</time></trkpt>
<trkpt lat="35.130459" lon="-84.955685"><ele>265.2</ele><time>2026-07-29T21:43:20Z</time></trkpt>
<trkpt lat="35.130468" lon="-84.955652"><ele>264.9</ele><time>2026-07-29T21:43:22Z</time></trkpt>
<trkpt lat="35.130475" lon="-84.955618"><ele>263.3</ele><time>2026-07-29T21:43:24Z</time></trkpt>
<trkpt lat="35.130497" lon="-84.955577"><ele>263.7</ele><time>2026-07-29T21:43:27Z</time></trkpt>
<trkpt lat="35.130524" lon="-84.955544"><ele>263.7</ele><time>2026-07-29T21:43:30Z</time></trkpt>
<trkpt lat="35.130549" lon="-84.955524"><ele>265.2</ele><time>2026-07-29T21:43:32Z</time></trkpt>
<trkpt lat="35.130584" lon="-84.955496"><ele>266.7</ele><time>2026-07-29T21:43:35Z</time></trkpt>
<trkpt lat="35.130625" lon="-84.95548"><ele>267.6</ele><time>2026-07-29T21:43:38Z</time></trkpt>
<trkpt lat="35.130662" lon="-84.955477"><ele>266.7</ele><time>2026-07-29T21:43:41Z</time></trkpt>
<trkpt lat="35.13069" lon="-84.955467"><ele>266.7</ele><time>2026-07-29T21:43:43Z</time></trkpt>
<trkpt lat="35.130727" lon="-84.955447"><ele>266.4</ele><time>2026-07-29T21:43:46Z</time></trkpt>
<trkpt lat="35.13076" lon="-84.955424"><ele>266.7</ele><time>2026-07-29T21:43:49Z</time></trkpt>
<trkpt lat="35.130779" lon="-84.955398"><ele>266.1</ele><time>2026-07-29T21:43:51Z</time></trkpt>
<trkpt lat="35.13082" lon="-84.95539"><ele>266.7</ele><time>2026-07-29T21:43:54Z</time></trkpt>
<trkpt lat="35.130849" lon="-84.955386"><ele>266.1</ele><time>2026-07-29T21:43:56Z</time></trkpt>
<trkpt lat="35.130887" lon="-84.955375"><ele>267.6</ele><time>2026-07-29T21:43:59Z</time></trkpt>
<trkpt lat="35.130916" lon="-84.955374"><ele>267.6</ele><time>2026-07-29T21:44:01Z</time></trkpt>
<trkpt lat="35.130945" lon="-84.955365"><ele>266.7</ele><time>2026-07-29T21:44:03Z</time></trkpt>
<trkpt lat="35.130975" lon="-84.955357"><ele>266.1</ele><time>2026-07-29T21:44:05Z</time></trkpt>
<trkpt lat="35.131016" lon="-84.955354"><ele>264.0</ele><time>2026-07-29T21:44:08Z</time></trkpt>
<trkpt lat="35.131041" lon="-84.95534"><ele>267.0</ele><time>2026-07-29T21:44:10Z</time></trkpt>
<trkpt lat="35.131067" lon="-84.955322"><ele>267.0</ele><time>2026-07-29T21:44:12Z</time></trkpt>
<trkpt lat="35.13109" lon="-84.955301"><ele>267.0</ele><time>2026-07-29T21:44:14Z</time></trkpt>
<trkpt lat="35.131125" lon="-84.955274"><ele>268.5</ele><time>2026-07-29T21:44:17Z</time></trkpt>
<trkpt lat="35.131149" lon="-84.955249"><ele>268.5</ele><time>2026-07-29T21:44:19Z</time></trkpt>
<trkpt lat="35.131173" lon="-84.95523"><ele>267.0</ele><time>2026-07-29T21:44:21Z</time></trkpt>
<trkpt lat="35.131202" lon="-84.955196"><ele>268.2</ele><time>2026-07-29T21:44:24Z</time></trkpt>
<trkpt lat="35.131225" lon="-84.955172"><ele>268.8</ele><time>2026-07-29T21:44:26Z</time></trkpt>
<trkpt lat="35.131247" lon="-84.955147"><ele>268.5</ele><time>2026-07-29T21:44:28Z</time></trkpt>
<trkpt lat="35.131269" lon="-84.955123"><ele>267.9</ele><time>2026-07-29T21:44:30Z</time></trkpt>
<trkpt lat="35.131289" lon="-84.955099"><ele>267.9</ele><time>2026-07-29T21:44:32Z</time></trkpt>
<trkpt lat="35.131312" lon="-84.955078"><ele>267.3</ele><time>2026-07-29T21:44:34Z</time></trkpt>
<trkpt lat="35.131333" lon="-84.955056"><ele>267.3</ele><time>2026-07-29T21:44:36Z</time></trkpt>
<trkpt lat="35.131362" lon="-84.955038"><ele>267.3</ele><time>2026-07-29T21:44:38Z</time></trkpt>
<trkpt lat="35.131391" lon="-84.955054"><ele>268.2</ele><time>2026-07-29T21:44:40Z</time></trkpt>
<trkpt lat="35.131431" lon="-84.955044"><ele>267.3</ele><time>2026-07-29T21:44:43Z</time></trkpt>
<trkpt lat="35.13145" lon="-84.955009"><ele>266.1</ele><time>2026-07-29T21:44:46Z</time></trkpt>
<trkpt lat="35.131487" lon="-84.954999"><ele>265.8</ele><time>2026-07-29T21:44:49Z</time></trkpt>
<trkpt lat="35.131529" lon="-84.95501"><ele>263.7</ele><time>2026-07-29T21:44:52Z</time></trkpt>
<trkpt lat="35.131565" lon="-84.955004"><ele>265.8</ele><time>2026-07-29T21:44:56Z</time></trkpt>
<trkpt lat="35.131595" lon="-84.954976"><ele>266.1</ele><time>2026-07-29T21:44:59Z</time></trkpt>
<trkpt lat="35.131616" lon="-84.954944"><ele>266.7</ele><time>2026-07-29T21:45:01Z</time></trkpt>
<trkpt lat="35.131635" lon="-84.954916"><ele>266.7</ele><time>2026-07-29T21:45:03Z</time></trkpt>
<trkpt lat="35.131658" lon="-84.954895"><ele>266.4</ele><time>2026-07-29T21:45:05Z</time></trkpt>
<trkpt lat="35.131696" lon="-84.954873"><ele>266.7</ele><time>2026-07-29T21:45:08Z</time></trkpt>
<trkpt lat="35.131729" lon="-84.954862"><ele>268.5</ele><time>2026-07-29T21:45:10Z</time></trkpt>
<trkpt lat="35.131757" lon="-84.954859"><ele>268.2</ele><time>2026-07-29T21:45:12Z</time></trkpt>
<trkpt lat="35.131787" lon="-84.954859"><ele>268.5</ele><time>2026-07-29T21:45:14Z</time></trkpt>
<trkpt lat="35.13182" lon="-84.954863"><ele>269.1</ele><time>2026-07-29T21:45:16Z</time></trkpt>
<trkpt lat="35.131858" lon="-84.95488"><ele>267.9</ele><time>2026-07-29T21:45:19Z</time></trkpt>
<trkpt lat="35.131891" lon="-84.954902"><ele>267.3</ele><time>2026-07-29T21:45:22Z</time></trkpt>
<trkpt lat="35.131912" lon="-84.954928"><ele>266.1</ele><time>2026-07-29T21:45:24Z</time></trkpt>
<trkpt lat="35.131929" lon="-84.954968"><ele>266.4</ele><time>2026-07-29T21:45:27Z</time></trkpt>
<trkpt lat="35.131948" lon="-84.955012"><ele>266.4</ele><time>2026-07-29T21:45:30Z</time></trkpt>
<trkpt lat="35.131966" lon="-84.955042"><ele>264.9</ele><time>2026-07-29T21:45:32Z</time></trkpt>
<trkpt lat="35.131976" lon="-84.955074"><ele>264.3</ele><time>2026-07-29T21:45:34Z</time></trkpt>
<trkpt lat="35.131987" lon="-84.955108"><ele>264.9</ele><time>2026-07-29T21:45:36Z</time></trkpt>
<trkpt lat="35.132006" lon="-84.955138"><ele>264.0</ele><time>2026-07-29T21:45:38Z</time></trkpt>
<trkpt lat="35.132038" lon="-84.955155"><ele>263.7</ele><time>2026-07-29T21:45:40Z</time></trkpt>
<trkpt lat="35.132071" lon="-84.955145"><ele>265.8</ele><time>2026-07-29T21:45:42Z</time></trkpt>
<trkpt lat="35.132091" lon="-84.955116"><ele>265.5</ele><time>2026-07-29T21:45:44Z</time></trkpt>
<trkpt lat="35.132102" lon="-84.955084"><ele>262.7</ele><time>2026-07-29T21:45:46Z</time></trkpt>
<trkpt lat="35.132114" lon="-84.955036"><ele>262.1</ele><time>2026-07-29T21:45:49Z</time></trkpt>
<trkpt lat="35.132114" lon="-84.954996"><ele>260.9</ele><time>2026-07-29T21:45:51Z</time></trkpt>
<trkpt lat="35.132127" lon="-84.954964"><ele>261.5</ele><time>2026-07-29T21:45:53Z</time></trkpt>
<trkpt lat="35.132138" lon="-84.954916"><ele>260.9</ele><time>2026-07-29T21:45:56Z</time></trkpt>
<trkpt lat="35.132159" lon="-84.95488"><ele>263.0</ele><time>2026-07-29T21:45:59Z</time></trkpt>
<trkpt lat="35.132185" lon="-84.954858"><ele>262.7</ele><time>2026-07-29T21:46:01Z</time></trkpt>
<trkpt lat="35.13222" lon="-84.954843"><ele>263.3</ele><time>2026-07-29T21:46:04Z</time></trkpt>
<trkpt lat="35.132248" lon="-84.954849"><ele>262.7</ele><time>2026-07-29T21:46:06Z</time></trkpt>
<trkpt lat="35.132283" lon="-84.954857"><ele>264.0</ele><time>2026-07-29T21:46:09Z</time></trkpt>
<trkpt lat="35.132312" lon="-84.954874"><ele>265.2</ele><time>2026-07-29T21:46:11Z</time></trkpt>
<trkpt lat="35.13234" lon="-84.954891"><ele>266.1</ele><time>2026-07-29T21:46:13Z</time></trkpt>
<trkpt lat="35.132368" lon="-84.954883"><ele>265.8</ele><time>2026-07-29T21:46:15Z</time></trkpt>
<trkpt lat="35.132389" lon="-84.95485"><ele>266.1</ele><time>2026-07-29T21:46:17Z</time></trkpt>
<trkpt lat="35.132392" lon="-84.954812"><ele>266.4</ele><time>2026-07-29T21:46:19Z</time></trkpt>
<trkpt lat="35.132381" lon="-84.954777"><ele>265.5</ele><time>2026-07-29T21:46:21Z</time></trkpt>
<trkpt lat="35.132368" lon="-84.954741"><ele>265.5</ele><time>2026-07-29T21:46:23Z</time></trkpt>
<trkpt lat="35.132355" lon="-84.954705"><ele>265.5</ele><time>2026-07-29T21:46:25Z</time></trkpt>
<trkpt lat="35.132352" lon="-84.954666"><ele>264.6</ele><time>2026-07-29T21:46:27Z</time></trkpt>
<trkpt lat="35.132361" lon="-84.954627"><ele>262.4</ele><time>2026-07-29T21:46:29Z</time></trkpt>
<trkpt lat="35.132377" lon="-84.954591"><ele>261.5</ele><time>2026-07-29T21:46:31Z</time></trkpt>
<trkpt lat="35.132396" lon="-84.954564"><ele>261.8</ele><time>2026-07-29T21:46:33Z</time></trkpt>
<trkpt lat="35.132426" lon="-84.95455"><ele>261.5</ele><time>2026-07-29T21:46:35Z</time></trkpt>
<trkpt lat="35.132459" lon="-84.95454"><ele>261.5</ele><time>2026-07-29T21:46:37Z</time></trkpt>
<trkpt lat="35.132491" lon="-84.954534"><ele>261.8</ele><time>2026-07-29T21:46:39Z</time></trkpt>
<trkpt lat="35.132522" lon="-84.95453"><ele>261.8</ele><time>2026-07-29T21:46:41Z</time></trkpt>
<trkpt lat="35.132555" lon="-84.954529"><ele>260.0</ele><time>2026-07-29T21:46:43Z</time></trkpt>
<trkpt lat="35.132587" lon="-84.954535"><ele>261.8</ele><time>2026-07-29T21:46:45Z</time></trkpt>
<trkpt lat="35.132617" lon="-84.954549"><ele>261.2</ele><time>2026-07-29T21:46:47Z</time></trkpt>
<trkpt lat="35.132648" lon="-84.954557"><ele>262.1</ele><time>2026-07-29T21:46:49Z</time></trkpt>
<trkpt lat="35.132678" lon="-84.954569"><ele>261.5</ele><time>2026-07-29T21:46:51Z</time></trkpt>
<trkpt lat="35.132709" lon="-84.954574"><ele>261.8</ele><time>2026-07-29T21:46:53Z</time></trkpt>
<trkpt lat="35.132737" lon="-84.954574"><ele>261.5</ele><time>2026-07-29T21:46:55Z</time></trkpt>
<trkpt lat="35.132775" lon="-84.954576"><ele>262.4</ele><time>2026-07-29T21:46:58Z</time></trkpt>
<trkpt lat="35.132816" lon="-84.954577"><ele>263.7</ele><time>2026-07-29T21:47:01Z</time></trkpt>
<trkpt lat="35.13285" lon="-84.954581"><ele>263.0</ele><time>2026-07-29T21:47:03Z</time></trkpt>
<trkpt lat="35.132884" lon="-84.954585"><ele>263.0</ele><time>2026-07-29T21:47:05Z</time></trkpt>
<trkpt lat="35.132917" lon="-84.954595"><ele>262.4</ele><time>2026-07-29T21:47:07Z</time></trkpt>
<trkpt lat="35.132951" lon="-84.95461"><ele>262.1</ele><time>2026-07-29T21:47:09Z</time></trkpt>
<trkpt lat="35.132983" lon="-84.954619"><ele>261.5</ele><time>2026-07-29T21:47:11Z</time></trkpt>
<trkpt lat="35.133015" lon="-84.954629"><ele>260.9</ele><time>2026-07-29T21:47:13Z</time></trkpt>
<trkpt lat="35.133045" lon="-84.954641"><ele>260.9</ele><time>2026-07-29T21:47:15Z</time></trkpt>
<trkpt lat="35.133073" lon="-84.954656"><ele>260.9</ele><time>2026-07-29T21:47:17Z</time></trkpt>
<trkpt lat="35.133093" lon="-84.954688"><ele>261.5</ele><time>2026-07-29T21:47:19Z</time></trkpt>
<trkpt lat="35.1331" lon="-84.954726"><ele>262.4</ele><time>2026-07-29T21:47:21Z</time></trkpt>
<trkpt lat="35.133105" lon="-84.954763"><ele>264.3</ele><time>2026-07-29T21:47:23Z</time></trkpt>
<trkpt lat="35.133106" lon="-84.954801"><ele>264.9</ele><time>2026-07-29T21:47:25Z</time></trkpt>
<trkpt lat="35.133112" lon="-84.954843"><ele>263.3</ele><time>2026-07-29T21:47:27Z</time></trkpt>
<trkpt lat="35.13311" lon="-84.954882"><ele>263.3</ele><time>2026-07-29T21:47:29Z</time></trkpt>
<trkpt lat="35.133107" lon="-84.954921"><ele>263.0</ele><time>2026-07-29T21:47:31Z</time></trkpt>
<trkpt lat="35.133093" lon="-84.954954"><ele>265.2</ele><time>2026-07-29T21:47:33Z</time></trkpt>
<trkpt lat="35.133085" lon="-84.954989"><ele>264.6</ele><time>2026-07-29T21:47:35Z</time></trkpt>
<trkpt lat="35.133083" lon="-84.955029"><ele>264.6</ele><time>2026-07-29T21:47:37Z</time></trkpt>
<trkpt lat="35.133079" lon="-84.955067"><ele>263.7</ele><time>2026-07-29T21:47:39Z</time></trkpt>
<trkpt lat="35.133084" lon="-84.955106"><ele>264.6</ele><time>2026-07-29T21:47:41Z</time></trkpt>
<trkpt lat="35.133082" lon="-84.955141"><ele>263.3</ele><time>2026-07-29T21:47:43Z</time></trkpt>
<trkpt lat="35.133087" lon="-84.955181"><ele>260.9</ele><time>2026-07-29T21:47:45Z</time></trkpt>
<trkpt lat="35.133111" lon="-84.955215"><ele>260.6</ele><time>2026-07-29T21:47:47Z</time></trkpt>
<trkpt lat="35.13314" lon="-84.955239"><ele>260.3</ele><time>2026-07-29T21:47:49Z</time></trkpt>
<trkpt lat="35.133177" lon="-84.955245"><ele>261.5</ele><time>2026-07-29T21:47:51Z</time></trkpt>
<trkpt lat="35.133214" lon="-84.955216"><ele>261.8</ele><time>2026-07-29T21:47:53Z</time></trkpt>
<trkpt lat="35.133239" lon="-84.955185"><ele>260.0</ele><time>2026-07-29T21:47:55Z</time></trkpt>
<trkpt lat="35.133255" lon="-84.955151"><ele>260.3</ele><time>2026-07-29T21:47:57Z</time></trkpt>
<trkpt lat="35.133254" lon="-84.955109"><ele>259.7</ele><time>2026-07-29T21:47:59Z</time></trkpt>
<trkpt lat="35.13326" lon="-84.955076"><ele>259.4</ele><time>2026-07-29T21:48:01Z</time></trkpt>
<trkpt lat="35.133259" lon="-84.955039"><ele>260.6</ele><time>2026-07-29T21:48:03Z</time></trkpt>
<trkpt lat="35.133252" lon="-84.955001"><ele>260.9</ele><time>2026-07-29T21:48:05Z</time></trkpt>
<trkpt lat="35.133251" lon="-84.954965"><ele>260.3</ele><time>2026-07-29T21:48:07Z</time></trkpt>
<trkpt lat="35.133263" lon="-84.95493"><ele>260.0</ele><time>2026-07-29T21:48:09Z</time></trkpt>
<trkpt lat="35.133283" lon="-84.954898"><ele>258.8</ele><time>2026-07-29T21:48:11Z</time></trkpt>
<trkpt lat="35.1333" lon="-84.954867"><ele>258.2</ele><time>2026-07-29T21:48:13Z</time></trkpt>
<trkpt lat="35.133311" lon="-84.954815"><ele>261.2</ele><time>2026-07-29T21:48:16Z</time></trkpt>
<trkpt lat="35.133328" lon="-84.954778"><ele>263.3</ele><time>2026-07-29T21:48:18Z</time></trkpt>
<trkpt lat="35.133349" lon="-84.95475"><ele>262.1</ele><time>2026-07-29T21:48:20Z</time></trkpt>
<trkpt lat="35.133373" lon="-84.954726"><ele>262.4</ele><time>2026-07-29T21:48:22Z</time></trkpt>
<trkpt lat="35.133397" lon="-84.954701"><ele>260.9</ele><time>2026-07-29T21:48:24Z</time></trkpt>
<trkpt lat="35.133416" lon="-84.954675"><ele>260.0</ele><time>2026-07-29T21:48:26Z</time></trkpt>
<trkpt lat="35.133437" lon="-84.95465"><ele>259.4</ele><time>2026-07-29T21:48:28Z</time></trkpt>
<trkpt lat="35.133465" lon="-84.954634"><ele>259.1</ele><time>2026-07-29T21:48:30Z</time></trkpt>
<trkpt lat="35.133495" lon="-84.954629"><ele>258.5</ele><time>2026-07-29T21:48:32Z</time></trkpt>
<trkpt lat="35.133527" lon="-84.954625"><ele>258.5</ele><time>2026-07-29T21:48:34Z</time></trkpt>
<trkpt lat="35.133566" lon="-84.954615"><ele>259.4</ele><time>2026-07-29T21:48:37Z</time></trkpt>
<trkpt lat="35.1336" lon="-84.954622"><ele>262.1</ele><time>2026-07-29T21:48:39Z</time></trkpt>
<trkpt lat="35.133634" lon="-84.954629"><ele>262.4</ele><time>2026-07-29T21:48:41Z</time></trkpt>
<trkpt lat="35.133663" lon="-84.954627"><ele>260.9</ele><time>2026-07-29T21:48:43Z</time></trkpt>
<trkpt lat="35.133691" lon="-84.954623"><ele>260.6</ele><time>2026-07-29T21:48:45Z</time></trkpt>
<trkpt lat="35.13372" lon="-84.954621"><ele>259.1</ele><time>2026-07-29T21:48:47Z</time></trkpt>
<trkpt lat="35.133748" lon="-84.954618"><ele>259.7</ele><time>2026-07-29T21:48:49Z</time></trkpt>
<trkpt lat="35.133776" lon="-84.954617"><ele>258.2</ele><time>2026-07-29T21:48:51Z</time></trkpt>
<trkpt lat="35.133804" lon="-84.954614"><ele>258.5</ele><time>2026-07-29T21:48:53Z</time></trkpt>
<trkpt lat="35.133835" lon="-84.95462"><ele>258.2</ele><time>2026-07-29T21:48:55Z</time></trkpt>
<trkpt lat="35.133862" lon="-84.954605"><ele>257.9</ele><time>2026-07-29T21:48:57Z</time></trkpt>
<trkpt lat="35.133881" lon="-84.954575"><ele>257.9</ele><time>2026-07-29T21:48:59Z</time></trkpt>
<trkpt lat="35.133903" lon="-84.954556"><ele>257.6</ele><time>2026-07-29T21:49:01Z</time></trkpt>
<trkpt lat="35.133922" lon="-84.954529"><ele>256.0</ele><time>2026-07-29T21:49:03Z</time></trkpt>
<trkpt lat="35.133932" lon="-84.954492"><ele>254.8</ele><time>2026-07-29T21:49:05Z</time></trkpt>
<trkpt lat="35.133952" lon="-84.954451"><ele>254.5</ele><time>2026-07-29T21:49:08Z</time></trkpt>
<trkpt lat="35.133971" lon="-84.954407"><ele>252.7</ele><time>2026-07-29T21:49:11Z</time></trkpt>
<trkpt lat="35.133989" lon="-84.954381"><ele>252.4</ele><time>2026-07-29T21:49:13Z</time></trkpt>
<trkpt lat="35.134008" lon="-84.95434"><ele>253.6</ele><time>2026-07-29T21:49:16Z</time></trkpt>
<trkpt lat="35.134031" lon="-84.954297"><ele>254.8</ele><time>2026-07-29T21:49:19Z</time></trkpt>
<trkpt lat="35.134055" lon="-84.954272"><ele>254.5</ele><time>2026-07-29T21:49:21Z</time></trkpt>
<trkpt lat="35.134075" lon="-84.954249"><ele>253.9</ele><time>2026-07-29T21:49:23Z</time></trkpt>
<trkpt lat="35.134088" lon="-84.954218"><ele>255.1</ele><time>2026-07-29T21:49:25Z</time></trkpt>
<trkpt lat="35.134109" lon="-84.954193"><ele>256.9</ele><time>2026-07-29T21:49:27Z</time></trkpt>
<trkpt lat="35.134144" lon="-84.954168"><ele>256.6</ele><time>2026-07-29T21:49:30Z</time></trkpt>
<trkpt lat="35.134171" lon="-84.954155"><ele>255.7</ele><time>2026-07-29T21:49:32Z</time></trkpt>
<trkpt lat="35.134198" lon="-84.954144"><ele>255.1</ele><time>2026-07-29T21:49:34Z</time></trkpt>
<trkpt lat="35.134224" lon="-84.954126"><ele>255.7</ele><time>2026-07-29T21:49:36Z</time></trkpt>
<trkpt lat="35.134264" lon="-84.954117"><ele>255.7</ele><time>2026-07-29T21:49:39Z</time></trkpt>
<trkpt lat="35.134292" lon="-84.954113"><ele>256.0</ele><time>2026-07-29T21:49:41Z</time></trkpt>
<trkpt lat="35.134319" lon="-84.95412"><ele>255.7</ele><time>2026-07-29T21:49:43Z</time></trkpt>
<trkpt lat="35.134346" lon="-84.954132"><ele>255.1</ele><time>2026-07-29T21:49:45Z</time></trkpt>
<trkpt lat="35.134379" lon="-84.954153"><ele>256.9</ele><time>2026-07-29T21:49:48Z</time></trkpt>
<trkpt lat="35.134411" lon="-84.954169"><ele>255.7</ele><time>2026-07-29T21:49:51Z</time></trkpt>
<trkpt lat="35.134436" lon="-84.954186"><ele>256.0</ele><time>2026-07-29T21:49:53Z</time></trkpt>
<trkpt lat="35.134471" lon="-84.954197"><ele>256.3</ele><time>2026-07-29T21:49:56Z</time></trkpt>
<trkpt lat="35.1345" lon="-84.954196"><ele>258.5</ele><time>2026-07-29T21:49:58Z</time></trkpt>
<trkpt lat="35.134528" lon="-84.954199"><ele>258.5</ele><time>2026-07-29T21:50:00Z</time></trkpt>
<trkpt lat="35.134559" lon="-84.954205"><ele>259.1</ele><time>2026-07-29T21:50:03Z</time></trkpt>
<trkpt lat="35.134589" lon="-84.954209"><ele>260.3</ele><time>2026-07-29T21:50:06Z</time></trkpt>
<trkpt lat="35.134617" lon="-84.954215"><ele>258.8</ele><time>2026-07-29T21:50:08Z</time></trkpt>
<trkpt lat="35.13465" lon="-84.95422"><ele>259.4</ele><time>2026-07-29T21:50:10Z</time></trkpt>
<trkpt lat="35.134684" lon="-84.954215"><ele>259.7</ele><time>2026-07-29T21:50:12Z</time></trkpt>
<trkpt lat="35.134722" lon="-84.954202"><ele>259.7</ele><time>2026-07-29T21:50:14Z</time></trkpt>
<trkpt lat="35.134751" lon="-84.954178"><ele>260.0</ele><time>2026-07-29T21:50:16Z</time></trkpt>
<trkpt lat="35.134779" lon="-84.954155"><ele>260.3</ele><time>2026-07-29T21:50:18Z</time></trkpt>
<trkpt lat="35.134812" lon="-84.954136"><ele>261.5</ele><time>2026-07-29T21:50:20Z</time></trkpt>
<trkpt lat="35.134841" lon="-84.954121"><ele>261.5</ele><time>2026-07-29T21:50:22Z</time></trkpt>
<trkpt lat="35.134874" lon="-84.954102"><ele>260.6</ele><time>2026-07-29T21:50:25Z</time></trkpt>
<trkpt lat="35.134909" lon="-84.954081"><ele>260.0</ele><time>2026-07-29T21:50:28Z</time></trkpt>
<trkpt lat="35.134938" lon="-84.954057"><ele>259.1</ele><time>2026-07-29T21:50:30Z</time></trkpt>
<trkpt lat="35.134959" lon="-84.954034"><ele>258.2</ele><time>2026-07-29T21:50:32Z</time></trkpt>
<trkpt lat="35.134991" lon="-84.954021"><ele>257.9</ele><time>2026-07-29T21:50:34Z</time></trkpt>
<trkpt lat="35.135017" lon="-84.95404"><ele>260.3</ele><time>2026-07-29T21:50:36Z</time></trkpt>
<trkpt lat="35.135027" lon="-84.954074"><ele>259.7</ele><time>2026-07-29T21:50:38Z</time></trkpt>
<trkpt lat="35.135032" lon="-84.954108"><ele>260.0</ele><time>2026-07-29T21:50:40Z</time></trkpt>
<trkpt lat="35.13504" lon="-84.954155"><ele>259.7</ele><time>2026-07-29T21:50:43Z</time></trkpt>
<trkpt lat="35.135056" lon="-84.954188"><ele>260.9</ele><time>2026-07-29T21:50:46Z</time></trkpt>
<trkpt lat="35.135081" lon="-84.954212"><ele>261.5</ele><time>2026-07-29T21:50:49Z</time></trkpt>
<trkpt lat="35.135118" lon="-84.954226"><ele>262.1</ele><time>2026-07-29T21:50:52Z</time></trkpt>
<trkpt lat="35.135157" lon="-84.954224"><ele>263.3</ele><time>2026-07-29T21:50:55Z</time></trkpt>
<trkpt lat="35.135197" lon="-84.954209"><ele>262.7</ele><time>2026-07-29T21:50:58Z</time></trkpt>
<trkpt lat="35.135221" lon="-84.95419"><ele>264.0</ele><time>2026-07-29T21:51:00Z</time></trkpt>
<trkpt lat="35.135249" lon="-84.954173"><ele>263.7</ele><time>2026-07-29T21:51:02Z</time></trkpt>
<trkpt lat="35.135276" lon="-84.954157"><ele>264.0</ele><time>2026-07-29T21:51:04Z</time></trkpt>
<trkpt lat="35.135297" lon="-84.954118"><ele>263.3</ele><time>2026-07-29T21:51:06Z</time></trkpt>
<trkpt lat="35.135315" lon="-84.954086"><ele>263.7</ele><time>2026-07-29T21:51:08Z</time></trkpt>
<trkpt lat="35.135329" lon="-84.954054"><ele>264.0</ele><time>2026-07-29T21:51:10Z</time></trkpt>
<trkpt lat="35.13534" lon="-84.954024"><ele>263.7</ele><time>2026-07-29T21:51:12Z</time></trkpt>
<trkpt lat="35.135366" lon="-84.953986"><ele>263.3</ele><time>2026-07-29T21:51:15Z</time></trkpt>
<trkpt lat="35.135396" lon="-84.953951"><ele>264.0</ele><time>2026-07-29T21:51:18Z</time></trkpt>
<trkpt lat="35.135421" lon="-84.95392"><ele>263.7</ele><time>2026-07-29T21:51:21Z</time></trkpt>
<trkpt lat="35.13545" lon="-84.953911"><ele>264.3</ele><time>2026-07-29T21:51:23Z</time></trkpt>
<trkpt lat="35.135487" lon="-84.953898"><ele>264.0</ele><time>2026-07-29T21:51:26Z</time></trkpt>
<trkpt lat="35.135526" lon="-84.953898"><ele>267.6</ele><time>2026-07-29T21:51:29Z</time></trkpt>
<trkpt lat="35.135553" lon="-84.953901"><ele>267.6</ele><time>2026-07-29T21:51:31Z</time></trkpt>
<trkpt lat="35.135582" lon="-84.953898"><ele>266.4</ele><time>2026-07-29T21:51:33Z</time></trkpt>
<trkpt lat="35.13561" lon="-84.953889"><ele>265.5</ele><time>2026-07-29T21:51:35Z</time></trkpt>
<trkpt lat="35.135639" lon="-84.95388"><ele>264.9</ele><time>2026-07-29T21:51:37Z</time></trkpt>
<trkpt lat="35.135668" lon="-84.95388"><ele>265.2</ele><time>2026-07-29T21:51:39Z</time></trkpt>
<trkpt lat="35.135698" lon="-84.953884"><ele>264.6</ele><time>2026-07-29T21:51:41Z</time></trkpt>
<trkpt lat="35.135736" lon="-84.953878"><ele>265.5</ele><time>2026-07-29T21:51:44Z</time></trkpt>
<trkpt lat="35.135765" lon="-84.953877"><ele>265.2</ele><time>2026-07-29T21:51:46Z</time></trkpt>
<trkpt lat="35.135795" lon="-84.953885"><ele>265.8</ele><time>2026-07-29T21:51:48Z</time></trkpt>
<trkpt lat="35.135825" lon="-84.953882"><ele>265.8</ele><time>2026-07-29T21:51:50Z</time></trkpt>
<trkpt lat="35.135854" lon="-84.953882"><ele>267.0</ele><time>2026-07-29T21:51:52Z</time></trkpt>
<trkpt lat="35.135884" lon="-84.953889"><ele>266.7</ele><time>2026-07-29T21:51:54Z</time></trkpt>
<trkpt lat="35.135913" lon="-84.953905"><ele>266.7</ele><time>2026-07-29T21:51:56Z</time></trkpt>
<trkpt lat="35.135947" lon="-84.953918"><ele>269.1</ele><time>2026-07-29T21:51:59Z</time></trkpt>
<trkpt lat="35.135985" lon="-84.953927"><ele>270.7</ele><time>2026-07-29T21:52:02Z</time></trkpt>
<trkpt lat="35.136026" lon="-84.953931"><ele>269.7</ele><time>2026-07-29T21:52:05Z</time></trkpt>
<trkpt lat="35.136052" lon="-84.953912"><ele>270.7</ele><time>2026-07-29T21:52:07Z</time></trkpt>
<trkpt lat="35.136071" lon="-84.953887"><ele>269.7</ele><time>2026-07-29T21:52:09Z</time></trkpt>
<trkpt lat="35.136089" lon="-84.953858"><ele>269.4</ele><time>2026-07-29T21:52:11Z</time></trkpt>
<trkpt lat="35.136105" lon="-84.953829"><ele>270.1</ele><time>2026-07-29T21:52:13Z</time></trkpt>
<trkpt lat="35.136127" lon="-84.953804"><ele>269.7</ele><time>2026-07-29T21:52:15Z</time></trkpt>
<trkpt lat="35.136145" lon="-84.953777"><ele>267.9</ele><time>2026-07-29T21:52:17Z</time></trkpt>
<trkpt lat="35.136146" lon="-84.953739"><ele>267.3</ele><time>2026-07-29T21:52:19Z</time></trkpt>
<trkpt lat="35.136125" lon="-84.953706"><ele>267.0</ele><time>2026-07-29T21:52:21Z</time></trkpt>
<trkpt lat="35.136107" lon="-84.953679"><ele>266.7</ele><time>2026-07-29T21:52:23Z</time></trkpt>
<trkpt lat="35.136082" lon="-84.953659"><ele>265.8</ele><time>2026-07-29T21:52:25Z</time></trkpt>
<trkpt lat="35.136058" lon="-84.953638"><ele>265.2</ele><time>2026-07-29T21:52:27Z</time></trkpt>
<trkpt lat="35.136032" lon="-84.953619"><ele>264.0</ele><time>2026-07-29T21:52:29Z</time></trkpt>
<trkpt lat="35.136011" lon="-84.953594"><ele>264.0</ele><time>2026-07-29T21:52:31Z</time></trkpt>
<trkpt lat="35.135985" lon="-84.953575"><ele>265.2</ele><time>2026-07-29T21:52:33Z</time></trkpt>
<trkpt lat="35.135965" lon="-84.953548"><ele>266.1</ele><time>2026-07-29T21:52:35Z</time></trkpt>
<trkpt lat="35.135958" lon="-84.953512"><ele>265.5</ele><time>2026-07-29T21:52:37Z</time></trkpt>
<trkpt lat="35.135958" lon="-84.953473"><ele>264.6</ele><time>2026-07-29T21:52:39Z</time></trkpt>
<trkpt lat="35.135969" lon="-84.953439"><ele>266.7</ele><time>2026-07-29T21:52:41Z</time></trkpt>
<trkpt lat="35.135988" lon="-84.953409"><ele>267.3</ele><time>2026-07-29T21:52:43Z</time></trkpt>
<trkpt lat="35.136027" lon="-84.953387"><ele>266.7</ele><time>2026-07-29T21:52:46Z</time></trkpt>
<trkpt lat="35.136059" lon="-84.953383"><ele>266.1</ele><time>2026-07-29T21:52:48Z</time></trkpt>
<trkpt lat="35.136098" lon="-84.953374"><ele>266.4</ele><time>2026-07-29T21:52:51Z</time></trkpt>
<trkpt lat="35.136133" lon="-84.95336"><ele>265.8</ele><time>2026-07-29T21:52:54Z</time></trkpt>
<trkpt lat="35.136159" lon="-84.95334"><ele>266.4</ele><time>2026-07-29T21:52:56Z</time></trkpt>
<trkpt lat="35.136183" lon="-84.953314"><ele>264.9</ele><time>2026-07-29T21:52:58Z</time></trkpt>
<trkpt lat="35.136189" lon="-84.953277"><ele>268.2</ele><time>2026-07-29T21:53:00Z</time></trkpt>
<trkpt lat="35.136191" lon="-84.953238"><ele>269.7</ele><time>2026-07-29T21:53:02Z</time></trkpt>
<trkpt lat="35.136183" lon="-84.953204"><ele>268.5</ele><time>2026-07-29T21:53:04Z</time></trkpt>
<trkpt lat="35.136162" lon="-84.953174"><ele>268.8</ele><time>2026-07-29T21:53:06Z</time></trkpt>
<trkpt lat="35.136129" lon="-84.953147"><ele>266.4</ele><time>2026-07-29T21:53:09Z</time></trkpt>
<trkpt lat="35.136109" lon="-84.953121"><ele>266.1</ele><time>2026-07-29T21:53:11Z</time></trkpt>
<trkpt lat="35.136084" lon="-84.953092"><ele>267.0</ele><time>2026-07-29T21:53:13Z</time></trkpt>
<trkpt lat="35.136067" lon="-84.953061"><ele>268.2</ele><time>2026-07-29T21:53:15Z</time></trkpt>
<trkpt lat="35.136057" lon="-84.953025"><ele>267.9</ele><time>2026-07-29T21:53:17Z</time></trkpt>
<trkpt lat="35.136052" lon="-84.952977"><ele>266.1</ele><time>2026-07-29T21:53:20Z</time></trkpt>
<trkpt lat="35.136065" lon="-84.952929"><ele>264.0</ele><time>2026-07-29T21:53:23Z</time></trkpt>
<trkpt lat="35.136087" lon="-84.952905"><ele>264.3</ele><time>2026-07-29T21:53:25Z</time></trkpt>
<trkpt lat="35.136111" lon="-84.952882"><ele>265.8</ele><time>2026-07-29T21:53:27Z</time></trkpt>
<trkpt lat="35.136136" lon="-84.952868"><ele>266.4</ele><time>2026-07-29T21:53:29Z</time></trkpt>
<trkpt lat="35.136164" lon="-84.952841"><ele>266.7</ele><time>2026-07-29T21:53:32Z</time></trkpt>
<trkpt lat="35.13619" lon="-84.952824"><ele>266.4</ele><time>2026-07-29T21:53:34Z</time></trkpt>
<trkpt lat="35.136208" lon="-84.952798"><ele>270.4</ele><time>2026-07-29T21:53:36Z</time></trkpt>
<trkpt lat="35.136229" lon="-84.952767"><ele>271.3</ele><time>2026-07-29T21:53:38Z</time></trkpt>
<trkpt lat="35.136255" lon="-84.952745"><ele>270.4</ele><time>2026-07-29T21:53:40Z</time></trkpt>
<trkpt lat="35.136289" lon="-84.952734"><ele>270.4</ele><time>2026-07-29T21:53:42Z</time></trkpt>
<trkpt lat="35.136319" lon="-84.952727"><ele>270.1</ele><time>2026-07-29T21:53:44Z</time></trkpt>
<trkpt lat="35.136353" lon="-84.952725"><ele>271.3</ele><time>2026-07-29T21:53:46Z</time></trkpt>
<trkpt lat="35.136383" lon="-84.952716"><ele>272.5</ele><time>2026-07-29T21:53:48Z</time></trkpt>
<trkpt lat="35.13641" lon="-84.952709"><ele>273.4</ele><time>2026-07-29T21:53:50Z</time></trkpt>
<trkpt lat="35.136448" lon="-84.952698"><ele>273.4</ele><time>2026-07-29T21:53:53Z</time></trkpt>
<trkpt lat="35.136488" lon="-84.9527"><ele>273.1</ele><time>2026-07-29T21:53:56Z</time></trkpt>
<trkpt lat="35.136528" lon="-84.952695"><ele>272.8</ele><time>2026-07-29T21:53:59Z</time></trkpt>
<trkpt lat="35.136556" lon="-84.952685"><ele>272.8</ele><time>2026-07-29T21:54:01Z</time></trkpt>
<trkpt lat="35.136588" lon="-84.952656"><ele>271.3</ele><time>2026-07-29T21:54:04Z</time></trkpt>
<trkpt lat="35.136612" lon="-84.952615"><ele>268.8</ele><time>2026-07-29T21:54:07Z</time></trkpt>
<trkpt lat="35.136633" lon="-84.95259"><ele>269.1</ele><time>2026-07-29T21:54:09Z</time></trkpt>
<trkpt lat="35.136654" lon="-84.952566"><ele>268.5</ele><time>2026-07-29T21:54:11Z</time></trkpt>
<trkpt lat="35.136682" lon="-84.952549"><ele>271.0</ele><time>2026-07-29T21:54:13Z</time></trkpt>
<trkpt lat="35.13671" lon="-84.952537"><ele>271.3</ele><time>2026-07-29T21:54:15Z</time></trkpt>
<trkpt lat="35.136739" lon="-84.952533"><ele>270.7</ele><time>2026-07-29T21:54:17Z</time></trkpt>
<trkpt lat="35.136768" lon="-84.952519"><ele>270.7</ele><time>2026-07-29T21:54:19Z</time></trkpt>
<trkpt lat="35.136798" lon="-84.952504"><ele>270.1</ele><time>2026-07-29T21:54:21Z</time></trkpt>
<trkpt lat="35.136825" lon="-84.952494"><ele>269.7</ele><time>2026-07-29T21:54:23Z</time></trkpt>
<trkpt lat="35.136853" lon="-84.952482"><ele>269.1</ele><time>2026-07-29T21:54:25Z</time></trkpt>
<trkpt lat="35.13688" lon="-84.952472"><ele>269.1</ele><time>2026-07-29T21:54:27Z</time></trkpt>
<trkpt lat="35.136919" lon="-84.952455"><ele>270.4</ele><time>2026-07-29T21:54:30Z</time></trkpt>
<trkpt lat="35.136953" lon="-84.952431"><ele>269.7</ele><time>2026-07-29T21:54:33Z</time></trkpt>
<trkpt lat="35.136978" lon="-84.952409"><ele>269.7</ele><time>2026-07-29T21:54:35Z</time></trkpt>
<trkpt lat="35.136999" lon="-84.952387"><ele>269.7</ele><time>2026-07-29T21:54:37Z</time></trkpt>
<trkpt lat="35.137016" lon="-84.95236"><ele>269.1</ele><time>2026-07-29T21:54:39Z</time></trkpt>
<trkpt lat="35.137029" lon="-84.952329"><ele>268.2</ele><time>2026-07-29T21:54:41Z</time></trkpt>
<trkpt lat="35.137047" lon="-84.952288"><ele>267.0</ele><time>2026-07-29T21:54:44Z</time></trkpt>
<trkpt lat="35.137058" lon="-84.952244"><ele>266.7</ele><time>2026-07-29T21:54:47Z</time></trkpt>
<trkpt lat="35.137069" lon="-84.952211"><ele>267.0</ele><time>2026-07-29T21:54:49Z</time></trkpt>
<trkpt lat="35.137081" lon="-84.952178"><ele>266.7</ele><time>2026-07-29T21:54:51Z</time></trkpt>
<trkpt lat="35.137103" lon="-84.952138"><ele>267.6</ele><time>2026-07-29T21:54:54Z</time></trkpt>
<trkpt lat="35.137122" lon="-84.952113"><ele>266.7</ele><time>2026-07-29T21:54:56Z</time></trkpt>
<trkpt lat="35.137133" lon="-84.952065"><ele>267.0</ele><time>2026-07-29T21:54:59Z</time></trkpt>
<trkpt lat="35.137134" lon="-84.952029"><ele>266.7</ele><time>2026-07-29T21:55:01Z</time></trkpt>
<trkpt lat="35.137135" lon="-84.951984"><ele>265.5</ele><time>2026-07-29T21:55:04Z</time></trkpt>
<trkpt lat="35.137138" lon="-84.951949"><ele>265.8</ele><time>2026-07-29T21:55:06Z</time></trkpt>
<trkpt lat="35.137146" lon="-84.951913"><ele>265.2</ele><time>2026-07-29T21:55:08Z</time></trkpt>
<trkpt lat="35.137152" lon="-84.951877"><ele>265.2</ele><time>2026-07-29T21:55:10Z</time></trkpt>
<trkpt lat="35.137159" lon="-84.95183"><ele>265.2</ele><time>2026-07-29T21:55:13Z</time></trkpt>
<trkpt lat="35.137169" lon="-84.951784"><ele>264.9</ele><time>2026-07-29T21:55:16Z</time></trkpt>
<trkpt lat="35.137177" lon="-84.951751"><ele>264.9</ele><time>2026-07-29T21:55:18Z</time></trkpt>
<trkpt lat="35.137183" lon="-84.951716"><ele>266.1</ele><time>2026-07-29T21:55:20Z</time></trkpt>
<trkpt lat="35.137198" lon="-84.951684"><ele>265.5</ele><time>2026-07-29T21:55:22Z</time></trkpt>
<trkpt lat="35.13721" lon="-84.951652"><ele>266.1</ele><time>2026-07-29T21:55:24Z</time></trkpt>
<trkpt lat="35.137222" lon="-84.951619"><ele>266.7</ele><time>2026-07-29T21:55:26Z</time></trkpt>
<trkpt lat="35.137235" lon="-84.951586"><ele>267.0</ele><time>2026-07-29T21:55:28Z</time></trkpt>
<trkpt lat="35.137245" lon="-84.951554"><ele>267.3</ele><time>2026-07-29T21:55:30Z</time></trkpt>
<trkpt lat="35.13726" lon="-84.951529"><ele>267.0</ele><time>2026-07-29T21:55:33Z</time></trkpt>
<trkpt lat="35.137262" lon="-84.951527"><ele>267.3</ele><time>2026-07-29T21:55:34Z</time></trkpt>
<trkpt lat="35.137263" lon="-84.951527"><ele>267.3</ele><time>2026-07-29T21:55:35Z</time></trkpt>
<trkpt lat="35.137268" lon="-84.951525"><ele>267.0</ele><time>2026-07-29T21:55:36Z</time></trkpt>
<trkpt lat="35.137288" lon="-84.951489"><ele>267.6</ele><time>2026-07-29T21:55:39Z</time></trkpt>
<trkpt lat="35.137305" lon="-84.951452"><ele>268.2</ele><time>2026-07-29T21:55:42Z</time></trkpt>
<trkpt lat="35.137335" lon="-84.951425"><ele>267.9</ele><time>2026-07-29T21:55:45Z</time></trkpt>
<trkpt lat="35.13737" lon="-84.951405"><ele>269.1</ele><time>2026-07-29T21:55:48Z</time></trkpt>
<trkpt lat="35.13741" lon="-84.951401"><ele>270.1</ele><time>2026-07-29T21:55:51Z</time></trkpt>
<trkpt lat="35.137449" lon="-84.951418"><ele>270.1</ele><time>2026-07-29T21:55:54Z</time></trkpt>
<trkpt lat="35.137464" lon="-84.951449"><ele>270.4</ele><time>2026-07-29T21:55:56Z</time></trkpt>
<trkpt lat="35.137488" lon="-84.951489"><ele>271.6</ele><time>2026-07-29T21:55:59Z</time></trkpt>
<trkpt lat="35.137504" lon="-84.951517"><ele>272.5</ele><time>2026-07-29T21:56:01Z</time></trkpt>
<trkpt lat="35.137522" lon="-84.95156"><ele>272.5</ele><time>2026-07-29T21:56:04Z</time></trkpt>
<trkpt lat="35.137526" lon="-84.951594"><ele>273.4</ele><time>2026-07-29T21:56:06Z</time></trkpt>
<trkpt lat="35.137537" lon="-84.951641"><ele>272.5</ele><time>2026-07-29T21:56:09Z</time></trkpt>
<trkpt lat="35.137559" lon="-84.951663"><ele>272.5</ele><time>2026-07-29T21:56:11Z</time></trkpt>
<trkpt lat="35.137581" lon="-84.951684"><ele>271.6</ele><time>2026-07-29T21:56:13Z</time></trkpt>
<trkpt lat="35.137605" lon="-84.951704"><ele>271.0</ele><time>2026-07-29T21:56:15Z</time></trkpt>
<trkpt lat="35.137626" lon="-84.951726"><ele>270.4</ele><time>2026-07-29T21:56:17Z</time></trkpt>
<trkpt lat="35.137649" lon="-84.951746"><ele>271.9</ele><time>2026-07-29T21:56:19Z</time></trkpt>
<trkpt lat="35.137669" lon="-84.951772"><ele>272.5</ele><time>2026-07-29T21:56:21Z</time></trkpt>
<trkpt lat="35.137688" lon="-84.951797"><ele>273.1</ele><time>2026-07-29T21:56:23Z</time></trkpt>
<trkpt lat="35.137703" lon="-84.951829"><ele>273.1</ele><time>2026-07-29T21:56:25Z</time></trkpt>
<trkpt lat="35.137732" lon="-84.951856"><ele>273.1</ele><time>2026-07-29T21:56:28Z</time></trkpt>
<trkpt lat="35.13776" lon="-84.951885"><ele>271.9</ele><time>2026-07-29T21:56:31Z</time></trkpt>
<trkpt lat="35.137787" lon="-84.951901"><ele>271.0</ele><time>2026-07-29T21:56:33Z</time></trkpt>
<trkpt lat="35.137813" lon="-84.951918"><ele>271.9</ele><time>2026-07-29T21:56:35Z</time></trkpt>
<trkpt lat="35.137841" lon="-84.951938"><ele>272.8</ele><time>2026-07-29T21:56:37Z</time></trkpt>
<trkpt lat="35.137872" lon="-84.951955"><ele>272.8</ele><time>2026-07-29T21:56:39Z</time></trkpt>
<trkpt lat="35.1379" lon="-84.951976"><ele>273.7</ele><time>2026-07-29T21:56:41Z</time></trkpt>
<trkpt lat="35.137929" lon="-84.952009"><ele>273.7</ele><time>2026-07-29T21:56:44Z</time></trkpt>
<trkpt lat="35.137962" lon="-84.952037"><ele>272.8</ele><time>2026-07-29T21:56:47Z</time></trkpt>
<trkpt lat="35.13799" lon="-84.952043"><ele>272.2</ele><time>2026-07-29T21:56:49Z</time></trkpt>
<trkpt lat="35.138015" lon="-84.952064"><ele>272.5</ele><time>2026-07-29T21:56:51Z</time></trkpt>
<trkpt lat="35.138041" lon="-84.952101"><ele>271.6</ele><time>2026-07-29T21:56:54Z</time></trkpt>
<trkpt lat="35.138059" lon="-84.952128"><ele>271.3</ele><time>2026-07-29T21:56:56Z</time></trkpt>
<trkpt lat="35.138073" lon="-84.952159"><ele>271.0</ele><time>2026-07-29T21:56:58Z</time></trkpt>
<trkpt lat="35.138089" lon="-84.952188"><ele>271.9</ele><time>2026-07-29T21:57:00Z</time></trkpt>
<trkpt lat="35.138115" lon="-84.952224"><ele>272.2</ele><time>2026-07-29T21:57:03Z</time></trkpt>
<trkpt lat="35.138144" lon="-84.952249"><ele>272.8</ele><time>2026-07-29T21:57:06Z</time></trkpt>
<trkpt lat="35.138179" lon="-84.952274"><ele>273.7</ele><time>2026-07-29T21:57:09Z</time></trkpt>
<trkpt lat="35.138203" lon="-84.9523"><ele>272.5</ele><time>2026-07-29T21:57:11Z</time></trkpt>
<trkpt lat="35.138228" lon="-84.952319"><ele>271.6</ele><time>2026-07-29T21:57:13Z</time></trkpt>
<trkpt lat="35.138256" lon="-84.952335"><ele>272.2</ele><time>2026-07-29T21:57:15Z</time></trkpt>
<trkpt lat="35.138284" lon="-84.952348"><ele>271.9</ele><time>2026-07-29T21:57:17Z</time></trkpt>
<trkpt lat="35.138313" lon="-84.952348"><ele>271.0</ele><time>2026-07-29T21:57:19Z</time></trkpt>
<trkpt lat="35.138342" lon="-84.952348"><ele>270.7</ele><time>2026-07-29T21:57:21Z</time></trkpt>
<trkpt lat="35.138374" lon="-84.952353"><ele>271.0</ele><time>2026-07-29T21:57:23Z</time></trkpt>
<trkpt lat="35.138402" lon="-84.952355"><ele>270.1</ele><time>2026-07-29T21:57:25Z</time></trkpt>
<trkpt lat="35.138434" lon="-84.952357"><ele>269.4</ele><time>2026-07-29T21:57:27Z</time></trkpt>
<trkpt lat="35.138465" lon="-84.952351"><ele>269.1</ele><time>2026-07-29T21:57:29Z</time></trkpt>
<trkpt lat="35.138497" lon="-84.952358"><ele>269.4</ele><time>2026-07-29T21:57:31Z</time></trkpt>
<trkpt lat="35.138529" lon="-84.95237"><ele>268.5</ele><time>2026-07-29T21:57:33Z</time></trkpt>
<trkpt lat="35.138557" lon="-84.952383"><ele>269.4</ele><time>2026-07-29T21:57:35Z</time></trkpt>
<trkpt lat="35.138587" lon="-84.952381"><ele>269.4</ele><time>2026-07-29T21:57:37Z</time></trkpt>
<trkpt lat="35.138615" lon="-84.952368"><ele>268.8</ele><time>2026-07-29T21:57:39Z</time></trkpt>
<trkpt lat="35.138643" lon="-84.952364"><ele>268.8</ele><time>2026-07-29T21:57:41Z</time></trkpt>
<trkpt lat="35.138669" lon="-84.952345"><ele>269.1</ele><time>2026-07-29T21:57:43Z</time></trkpt>
<trkpt lat="35.138691" lon="-84.95232"><ele>270.1</ele><time>2026-07-29T21:57:45Z</time></trkpt>
<trkpt lat="35.138713" lon="-84.952294"><ele>270.7</ele><time>2026-07-29T21:57:47Z</time></trkpt>
<trkpt lat="35.138728" lon="-84.952265"><ele>270.7</ele><time>2026-07-29T21:57:49Z</time></trkpt>
<trkpt lat="35.138755" lon="-84.95223"><ele>270.4</ele><time>2026-07-29T21:57:52Z</time></trkpt>
<trkpt lat="35.138773" lon="-84.952204"><ele>271.3</ele><time>2026-07-29T21:57:54Z</time></trkpt>
<trkpt lat="35.1388" lon="-84.952171"><ele>271.6</ele><time>2026-07-29T21:57:57Z</time></trkpt>
<trkpt lat="35.138836" lon="-84.952162"><ele>272.2</ele><time>2026-07-29T21:58:00Z</time></trkpt>
<trkpt lat="35.138869" lon="-84.952195"><ele>273.1</ele><time>2026-07-29T21:58:03Z</time></trkpt>
<trkpt lat="35.138901" lon="-84.952218"><ele>274.3</ele><time>2026-07-29T21:58:06Z</time></trkpt>
<trkpt lat="35.138926" lon="-84.952232"><ele>273.4</ele><time>2026-07-29T21:58:08Z</time></trkpt>
<trkpt lat="35.138951" lon="-84.952248"><ele>273.4</ele><time>2026-07-29T21:58:10Z</time></trkpt>
<trkpt lat="35.138986" lon="-84.952244"><ele>273.4</ele><time>2026-07-29T21:58:12Z</time></trkpt>
<trkpt lat="35.139014" lon="-84.952234"><ele>272.8</ele><time>2026-07-29T21:58:14Z</time></trkpt>
<trkpt lat="35.139042" lon="-84.952232"><ele>273.4</ele><time>2026-07-29T21:58:16Z</time></trkpt>
<trkpt lat="35.139078" lon="-84.952241"><ele>273.4</ele><time>2026-07-29T21:58:19Z</time></trkpt>
<trkpt lat="35.139107" lon="-84.952242"><ele>272.5</ele><time>2026-07-29T21:58:21Z</time></trkpt>
<trkpt lat="35.139135" lon="-84.952232"><ele>273.4</ele><time>2026-07-29T21:58:23Z</time></trkpt>
<trkpt lat="35.139174" lon="-84.952217"><ele>274.3</ele><time>2026-07-29T21:58:26Z</time></trkpt>
<trkpt lat="35.139206" lon="-84.952218"><ele>274.6</ele><time>2026-07-29T21:58:28Z</time></trkpt>
<trkpt lat="35.139235" lon="-84.952227"><ele>274.6</ele><time>2026-07-29T21:58:30Z</time></trkpt>
<trkpt lat="35.139268" lon="-84.952253"><ele>275.5</ele><time>2026-07-29T21:58:33Z</time></trkpt>
<trkpt lat="35.139295" lon="-84.952283"><ele>275.2</ele><time>2026-07-29T21:58:36Z</time></trkpt>
<trkpt lat="35.139328" lon="-84.952306"><ele>274.6</ele><time>2026-07-29T21:58:39Z</time></trkpt>
<trkpt lat="35.139355" lon="-84.952323"><ele>274.0</ele><time>2026-07-29T21:58:41Z</time></trkpt>
<trkpt lat="35.139381" lon="-84.95234"><ele>276.5</ele><time>2026-07-29T21:58:43Z</time></trkpt>
<trkpt lat="35.139409" lon="-84.952352"><ele>276.5</ele><time>2026-07-29T21:58:45Z</time></trkpt>
<trkpt lat="35.139439" lon="-84.952383"><ele>277.7</ele><time>2026-07-29T21:58:48Z</time></trkpt>
<trkpt lat="35.139468" lon="-84.952405"><ele>278.9</ele><time>2026-07-29T21:58:51Z</time></trkpt>
<trkpt lat="35.139506" lon="-84.952421"><ele>277.4</ele><time>2026-07-29T21:58:54Z</time></trkpt>
<trkpt lat="35.139535" lon="-84.95243"><ele>277.7</ele><time>2026-07-29T21:58:56Z</time></trkpt>
<trkpt lat="35.139562" lon="-84.952442"><ele>278.0</ele><time>2026-07-29T21:58:58Z</time></trkpt>
<trkpt lat="35.13959" lon="-84.952447"><ele>278.0</ele><time>2026-07-29T21:59:00Z</time></trkpt>
<trkpt lat="35.13962" lon="-84.952449"><ele>278.3</ele><time>2026-07-29T21:59:02Z</time></trkpt>
<trkpt lat="35.13965" lon="-84.952445"><ele>278.6</ele><time>2026-07-29T21:59:04Z</time></trkpt>
<trkpt lat="35.139692" lon="-84.952445"><ele>279.5</ele><time>2026-07-29T21:59:07Z</time></trkpt>
<trkpt lat="35.139733" lon="-84.952451"><ele>279.2</ele><time>2026-07-29T21:59:10Z</time></trkpt>
<trkpt lat="35.139761" lon="-84.952449"><ele>278.6</ele><time>2026-07-29T21:59:12Z</time></trkpt>
<trkpt lat="35.13979" lon="-84.952445"><ele>280.1</ele><time>2026-07-29T21:59:14Z</time></trkpt>
<trkpt lat="35.139829" lon="-84.952433"><ele>279.8</ele><time>2026-07-29T21:59:17Z</time></trkpt>
<trkpt lat="35.13987" lon="-84.952424"><ele>280.1</ele><time>2026-07-29T21:59:20Z</time></trkpt>
<trkpt lat="35.13991" lon="-84.952415"><ele>281.6</ele><time>2026-07-29T21:59:23Z</time></trkpt>
<trkpt lat="35.139937" lon="-84.952411"><ele>281.9</ele><time>2026-07-29T21:59:25Z</time></trkpt>
<trkpt lat="35.139975" lon="-84.952395"><ele>282.5</ele><time>2026-07-29T21:59:28Z</time></trkpt>
<trkpt lat="35.140015" lon="-84.952383"><ele>282.2</ele><time>2026-07-29T21:59:31Z</time></trkpt>
<trkpt lat="35.140046" lon="-84.952371"><ele>280.1</ele><time>2026-07-29T21:59:33Z</time></trkpt>
<trkpt lat="35.140075" lon="-84.952363"><ele>280.4</ele><time>2026-07-29T21:59:35Z</time></trkpt>
<trkpt lat="35.140104" lon="-84.952359"><ele>280.1</ele><time>2026-07-29T21:59:37Z</time></trkpt>
<trkpt lat="35.140131" lon="-84.952352"><ele>280.4</ele><time>2026-07-29T21:59:39Z</time></trkpt>
<trkpt lat="35.14016" lon="-84.952347"><ele>281.3</ele><time>2026-07-29T21:59:41Z</time></trkpt>
<trkpt lat="35.14019" lon="-84.952341"><ele>282.2</ele><time>2026-07-29T21:59:43Z</time></trkpt>
<trkpt lat="35.140218" lon="-84.952327"><ele>281.9</ele><time>2026-07-29T21:59:45Z</time></trkpt>
<trkpt lat="35.140245" lon="-84.952314"><ele>281.3</ele><time>2026-07-29T21:59:47Z</time></trkpt>
<trkpt lat="35.140273" lon="-84.952297"><ele>281.3</ele><time>2026-07-29T21:59:49Z</time></trkpt>
<trkpt lat="35.140299" lon="-84.952283"><ele>281.3</ele><time>2026-07-29T21:59:51Z</time></trkpt>
<trkpt lat="35.140326" lon="-84.952265"><ele>281.6</ele><time>2026-07-29T21:59:53Z</time></trkpt>
<trkpt lat="35.140362" lon="-84.952243"><ele>281.6</ele><time>2026-07-29T21:59:56Z</time></trkpt>
<trkpt lat="35.140398" lon="-84.952229"><ele>283.2</ele><time>2026-07-29T21:59:59Z</time></trkpt>
<trkpt lat="35.140436" lon="-84.952224"><ele>285.0</ele><time>2026-07-29T22:00:02Z</time></trkpt>
<trkpt lat="35.140477" lon="-84.952215"><ele>284.1</ele><time>2026-07-29T22:00:05Z</time></trkpt>
<trkpt lat="35.140505" lon="-84.952217"><ele>283.5</ele><time>2026-07-29T22:00:07Z</time></trkpt>
<trkpt lat="35.140543" lon="-84.952236"><ele>284.1</ele><time>2026-07-29T22:00:10Z</time></trkpt>
<trkpt lat="35.140582" lon="-84.952246"><ele>284.1</ele><time>2026-07-29T22:00:13Z</time></trkpt>
<trkpt lat="35.14061" lon="-84.952245"><ele>284.7</ele><time>2026-07-29T22:00:15Z</time></trkpt>
<trkpt lat="35.14065" lon="-84.952249"><ele>284.7</ele><time>2026-07-29T22:00:18Z</time></trkpt>
<trkpt lat="35.140677" lon="-84.952251"><ele>285.3</ele><time>2026-07-29T22:00:20Z</time></trkpt>
<trkpt lat="35.140705" lon="-84.95225"><ele>285.6</ele><time>2026-07-29T22:00:22Z</time></trkpt>
<trkpt lat="35.140733" lon="-84.952248"><ele>285.3</ele><time>2026-07-29T22:00:24Z</time></trkpt>
<trkpt lat="35.140762" lon="-84.952238"><ele>285.0</ele><time>2026-07-29T22:00:26Z</time></trkpt>
<trkpt lat="35.140792" lon="-84.952223"><ele>283.8</ele><time>2026-07-29T22:00:28Z</time></trkpt>
<trkpt lat="35.140824" lon="-84.952218"><ele>282.9</ele><time>2026-07-29T22:00:30Z</time></trkpt>
<trkpt lat="35.140864" lon="-84.95222"><ele>282.5</ele><time>2026-07-29T22:00:33Z</time></trkpt>
<trkpt lat="35.1409" lon="-84.952206"><ele>282.5</ele><time>2026-07-29T22:00:36Z</time></trkpt>
<trkpt lat="35.140928" lon="-84.952195"><ele>283.2</ele><time>2026-07-29T22:00:38Z</time></trkpt>
<trkpt lat="35.140957" lon="-84.952184"><ele>283.2</ele><time>2026-07-29T22:00:40Z</time></trkpt>
<trkpt lat="35.140984" lon="-84.952166"><ele>283.8</ele><time>2026-07-29T22:00:42Z</time></trkpt>
<trkpt lat="35.141012" lon="-84.952148"><ele>283.2</ele><time>2026-07-29T22:00:44Z</time></trkpt>
<trkpt lat="35.141034" lon="-84.952125"><ele>282.5</ele><time>2026-07-29T22:00:46Z</time></trkpt>
<trkpt lat="35.141056" lon="-84.952104"><ele>281.9</ele><time>2026-07-29T22:00:48Z</time></trkpt>
<trkpt lat="35.141084" lon="-84.952085"><ele>281.9</ele><time>2026-07-29T22:00:50Z</time></trkpt>
<trkpt lat="35.141114" lon="-84.952071"><ele>281.9</ele><time>2026-07-29T22:00:52Z</time></trkpt>
<trkpt lat="35.141142" lon="-84.952061"><ele>283.2</ele><time>2026-07-29T22:00:54Z</time></trkpt>
<trkpt lat="35.141169" lon="-84.952055"><ele>285.3</ele><time>2026-07-29T22:00:56Z</time></trkpt>
<trkpt lat="35.141197" lon="-84.952047"><ele>284.7</ele><time>2026-07-29T22:00:58Z</time></trkpt>
<trkpt lat="35.141226" lon="-84.952048"><ele>284.1</ele><time>2026-07-29T22:01:00Z</time></trkpt>
<trkpt lat="35.141256" lon="-84.952047"><ele>284.4</ele><time>2026-07-29T22:01:02Z</time></trkpt>
<trkpt lat="35.141286" lon="-84.952048"><ele>285.0</ele><time>2026-07-29T22:01:04Z</time></trkpt>
<trkpt lat="35.141317" lon="-84.952057"><ele>283.2</ele><time>2026-07-29T22:01:06Z</time></trkpt>
<trkpt lat="35.141341" lon="-84.952076"><ele>283.5</ele><time>2026-07-29T22:01:08Z</time></trkpt>
<trkpt lat="35.141361" lon="-84.952099"><ele>284.4</ele><time>2026-07-29T22:01:10Z</time></trkpt>
<trkpt lat="35.14139" lon="-84.952131"><ele>285.6</ele><time>2026-07-29T22:01:13Z</time></trkpt>
<trkpt lat="35.141415" lon="-84.952151"><ele>286.2</ele><time>2026-07-29T22:01:15Z</time></trkpt>
<trkpt lat="35.141442" lon="-84.952164"><ele>286.5</ele><time>2026-07-29T22:01:17Z</time></trkpt>
<trkpt lat="35.141475" lon="-84.952172"><ele>286.2</ele><time>2026-07-29T22:01:19Z</time></trkpt>
<trkpt lat="35.141503" lon="-84.952184"><ele>285.3</ele><time>2026-07-29T22:01:21Z</time></trkpt>
<trkpt lat="35.141528" lon="-84.952202"><ele>285.9</ele><time>2026-07-29T22:01:23Z</time></trkpt>
<trkpt lat="35.141558" lon="-84.952188"><ele>285.9</ele><time>2026-07-29T22:01:25Z</time></trkpt>
<trkpt lat="35.141585" lon="-84.952176"><ele>285.9</ele><time>2026-07-29T22:01:27Z</time></trkpt>
<trkpt lat="35.14161" lon="-84.952157"><ele>285.0</ele><time>2026-07-29T22:01:29Z</time></trkpt>
<trkpt lat="35.141636" lon="-84.952124"><ele>286.2</ele><time>2026-07-29T22:01:32Z</time></trkpt>
<trkpt lat="35.141652" lon="-84.952095"><ele>286.2</ele><time>2026-07-29T22:01:34Z</time></trkpt>
<trkpt lat="35.141663" lon="-84.952061"><ele>285.6</ele><time>2026-07-29T22:01:36Z</time></trkpt>
<trkpt lat="35.141674" lon="-84.952029"><ele>285.6</ele><time>2026-07-29T22:01:38Z</time></trkpt>
<trkpt lat="35.141679" lon="-84.951994"><ele>285.0</ele><time>2026-07-29T22:01:40Z</time></trkpt>
<trkpt lat="35.141688" lon="-84.951962"><ele>286.2</ele><time>2026-07-29T22:01:42Z</time></trkpt>
<trkpt lat="35.14171" lon="-84.951939"><ele>283.5</ele><time>2026-07-29T22:01:44Z</time></trkpt>
<trkpt lat="35.141735" lon="-84.951922"><ele>284.1</ele><time>2026-07-29T22:01:46Z</time></trkpt>
<trkpt lat="35.141762" lon="-84.951883"><ele>283.8</ele><time>2026-07-29T22:01:49Z</time></trkpt>
<trkpt lat="35.141779" lon="-84.951852"><ele>284.1</ele><time>2026-07-29T22:01:51Z</time></trkpt>
<trkpt lat="35.141801" lon="-84.951826"><ele>284.1</ele><time>2026-07-29T22:01:53Z</time></trkpt>
<trkpt lat="35.141823" lon="-84.951802"><ele>284.4</ele><time>2026-07-29T22:01:55Z</time></trkpt>
<trkpt lat="35.141845" lon="-84.951779"><ele>283.8</ele><time>2026-07-29T22:01:57Z</time></trkpt>
<trkpt lat="35.141867" lon="-84.951755"><ele>283.5</ele><time>2026-07-29T22:01:59Z</time></trkpt>
<trkpt lat="35.141889" lon="-84.95173"><ele>283.2</ele><time>2026-07-29T22:02:01Z</time></trkpt>
<trkpt lat="35.141908" lon="-84.951702"><ele>284.1</ele><time>2026-07-29T22:02:03Z</time></trkpt>
<trkpt lat="35.141941" lon="-84.951676"><ele>285.3</ele><time>2026-07-29T22:02:06Z</time></trkpt>
<trkpt lat="35.141978" lon="-84.951658"><ele>288.3</ele><time>2026-07-29T22:02:09Z</time></trkpt>
<trkpt lat="35.142015" lon="-84.951651"><ele>287.7</ele><time>2026-07-29T22:02:12Z</time></trkpt>
<trkpt lat="35.142051" lon="-84.95163"><ele>288.6</ele><time>2026-07-29T22:02:15Z</time></trkpt>
<trkpt lat="35.142085" lon="-84.951613"><ele>289.6</ele><time>2026-07-29T22:02:18Z</time></trkpt>
<trkpt lat="35.142111" lon="-84.9516"><ele>289.0</ele><time>2026-07-29T22:02:20Z</time></trkpt>
<trkpt lat="35.142136" lon="-84.951586"><ele>288.6</ele><time>2026-07-29T22:02:22Z</time></trkpt>
<trkpt lat="35.142163" lon="-84.951573"><ele>289.0</ele><time>2026-07-29T22:02:24Z</time></trkpt>
<trkpt lat="35.142191" lon="-84.951561"><ele>288.3</ele><time>2026-07-29T22:02:26Z</time></trkpt>
<trkpt lat="35.142221" lon="-84.951551"><ele>288.3</ele><time>2026-07-29T22:02:28Z</time></trkpt>
<trkpt lat="35.142251" lon="-84.951543"><ele>288.6</ele><time>2026-07-29T22:02:30Z</time></trkpt>
<trkpt lat="35.142277" lon="-84.951533"><ele>289.3</ele><time>2026-07-29T22:02:32Z</time></trkpt>
<trkpt lat="35.142304" lon="-84.951522"><ele>289.0</ele><time>2026-07-29T22:02:34Z</time></trkpt>
<trkpt lat="35.142333" lon="-84.951515"><ele>289.6</ele><time>2026-07-29T22:02:36Z</time></trkpt>
<trkpt lat="35.142369" lon="-84.951493"><ele>289.9</ele><time>2026-07-29T22:02:39Z</time></trkpt>
<trkpt lat="35.142397" lon="-84.951482"><ele>289.6</ele><time>2026-07-29T22:02:41Z</time></trkpt>
<trkpt lat="35.142425" lon="-84.951468"><ele>289.3</ele><time>2026-07-29T22:02:43Z</time></trkpt>
<trkpt lat="35.142455" lon="-84.951465"><ele>289.9</ele><time>2026-07-29T22:02:45Z</time></trkpt>
<trkpt lat="35.142482" lon="-84.951457"><ele>288.6</ele><time>2026-07-29T22:02:47Z</time></trkpt>
<trkpt lat="35.142512" lon="-84.951442"><ele>288.0</ele><time>2026-07-29T22:02:50Z</time></trkpt>
<trkpt lat="35.142539" lon="-84.951423"><ele>287.4</ele><time>2026-07-29T22:02:52Z</time></trkpt>
<trkpt lat="35.142572" lon="-84.951413"><ele>286.8</ele><time>2026-07-29T22:02:54Z</time></trkpt>
<trkpt lat="35.142602" lon="-84.951403"><ele>288.3</ele><time>2026-07-29T22:02:56Z</time></trkpt>
<trkpt lat="35.142631" lon="-84.951394"><ele>288.0</ele><time>2026-07-29T22:02:58Z</time></trkpt>
<trkpt lat="35.142662" lon="-84.95139"><ele>287.4</ele><time>2026-07-29T22:03:00Z</time></trkpt>
<trkpt lat="35.142691" lon="-84.95139"><ele>286.8</ele><time>2026-07-29T22:03:02Z</time></trkpt>
<trkpt lat="35.142718" lon="-84.951372"><ele>285.6</ele><time>2026-07-29T22:03:04Z</time></trkpt>
<trkpt lat="35.142746" lon="-84.951361"><ele>284.7</ele><time>2026-07-29T22:03:06Z</time></trkpt>
<trkpt lat="35.142773" lon="-84.951354"><ele>286.5</ele><time>2026-07-29T22:03:08Z</time></trkpt>
<trkpt lat="35.142805" lon="-84.951358"><ele>287.7</ele><time>2026-07-29T22:03:10Z</time></trkpt>
<trkpt lat="35.142829" lon="-84.951336"><ele>289.0</ele><time>2026-07-29T22:03:12Z</time></trkpt>
<trkpt lat="35.142865" lon="-84.951318"><ele>287.7</ele><time>2026-07-29T22:03:15Z</time></trkpt>
<trkpt lat="35.1429" lon="-84.951303"><ele>288.6</ele><time>2026-07-29T22:03:18Z</time></trkpt>
<trkpt lat="35.14292" lon="-84.951273"><ele>287.1</ele><time>2026-07-29T22:03:20Z</time></trkpt>
<trkpt lat="35.142947" lon="-84.951256"><ele>286.8</ele><time>2026-07-29T22:03:22Z</time></trkpt>
<trkpt lat="35.14297" lon="-84.951237"><ele>286.5</ele><time>2026-07-29T22:03:24Z</time></trkpt>
<trkpt lat="35.142991" lon="-84.951215"><ele>285.6</ele><time>2026-07-29T22:03:26Z</time></trkpt>
<trkpt lat="35.143023" lon="-84.951184"><ele>286.8</ele><time>2026-07-29T22:03:29Z</time></trkpt>
<trkpt lat="35.143055" lon="-84.951155"><ele>286.8</ele><time>2026-07-29T22:03:32Z</time></trkpt>
<trkpt lat="35.143088" lon="-84.951129"><ele>285.6</ele><time>2026-07-29T22:03:35Z</time></trkpt>
<trkpt lat="35.143113" lon="-84.951114"><ele>285.9</ele><time>2026-07-29T22:03:37Z</time></trkpt>
<trkpt lat="35.143141" lon="-84.951104"><ele>285.0</ele><time>2026-07-29T22:03:39Z</time></trkpt>
<trkpt lat="35.143177" lon="-84.951087"><ele>284.4</ele><time>2026-07-29T22:03:42Z</time></trkpt>
<trkpt lat="35.143213" lon="-84.951074"><ele>284.1</ele><time>2026-07-29T22:03:45Z</time></trkpt>
<trkpt lat="35.143252" lon="-84.951061"><ele>284.4</ele><time>2026-07-29T22:03:48Z</time></trkpt>
<trkpt lat="35.143293" lon="-84.951053"><ele>284.1</ele><time>2026-07-29T22:03:51Z</time></trkpt>
<trkpt lat="35.143326" lon="-84.951048"><ele>283.8</ele><time>2026-07-29T22:03:53Z</time></trkpt>
<trkpt lat="35.143355" lon="-84.951039"><ele>284.1</ele><time>2026-07-29T22:03:55Z</time></trkpt>
<trkpt lat="35.143386" lon="-84.951036"><ele>284.4</ele><time>2026-07-29T22:03:57Z</time></trkpt>
<trkpt lat="35.143416" lon="-84.951027"><ele>284.4</ele><time>2026-07-29T22:03:59Z</time></trkpt>
<trkpt lat="35.143447" lon="-84.951022"><ele>285.0</ele><time>2026-07-29T22:04:01Z</time></trkpt>
<trkpt lat="35.143474" lon="-84.951012"><ele>284.4</ele><time>2026-07-29T22:04:03Z</time></trkpt>
<trkpt lat="35.143511" lon="-84.950995"><ele>284.4</ele><time>2026-07-29T22:04:06Z</time></trkpt>
<trkpt lat="35.14355" lon="-84.95098"><ele>284.7</ele><time>2026-07-29T22:04:09Z</time></trkpt>
<trkpt lat="35.143577" lon="-84.950967"><ele>283.8</ele><time>2026-07-29T22:04:11Z</time></trkpt>
<trkpt lat="35.143603" lon="-84.950956"><ele>283.8</ele><time>2026-07-29T22:04:13Z</time></trkpt>
<trkpt lat="35.143642" lon="-84.950936"><ele>283.5</ele><time>2026-07-29T22:04:16Z</time></trkpt>
<trkpt lat="35.14367" lon="-84.95093"><ele>282.9</ele><time>2026-07-29T22:04:18Z</time></trkpt>
<trkpt lat="35.14371" lon="-84.950921"><ele>282.2</ele><time>2026-07-29T22:04:21Z</time></trkpt>
<trkpt lat="35.143739" lon="-84.950913"><ele>282.5</ele><time>2026-07-29T22:04:23Z</time></trkpt>
<trkpt lat="35.143768" lon="-84.950906"><ele>282.5</ele><time>2026-07-29T22:04:25Z</time></trkpt>
<trkpt lat="35.143803" lon="-84.950886"><ele>282.5</ele><time>2026-07-29T22:04:28Z</time></trkpt>
<trkpt lat="35.14383" lon="-84.950872"><ele>281.9</ele><time>2026-07-29T22:04:30Z</time></trkpt>
<trkpt lat="35.143858" lon="-84.950862"><ele>282.2</ele><time>2026-07-29T22:04:32Z</time></trkpt>
<trkpt lat="35.143886" lon="-84.950848"><ele>282.9</ele><time>2026-07-29T22:04:34Z</time></trkpt>
<trkpt lat="35.143925" lon="-84.950837"><ele>282.5</ele><time>2026-07-29T22:04:37Z</time></trkpt>
<trkpt lat="35.143952" lon="-84.950831"><ele>282.9</ele><time>2026-07-29T22:04:39Z</time></trkpt>
<trkpt lat="35.143993" lon="-84.950827"><ele>283.8</ele><time>2026-07-29T22:04:42Z</time></trkpt>
<trkpt lat="35.144022" lon="-84.950824"><ele>284.1</ele><time>2026-07-29T22:04:44Z</time></trkpt>
<trkpt lat="35.144051" lon="-84.950817"><ele>283.8</ele><time>2026-07-29T22:04:46Z</time></trkpt>
<trkpt lat="35.14408" lon="-84.950812"><ele>284.1</ele><time>2026-07-29T22:04:48Z</time></trkpt>
<trkpt lat="35.144109" lon="-84.950804"><ele>284.4</ele><time>2026-07-29T22:04:50Z</time></trkpt>
<trkpt lat="35.144146" lon="-84.950784"><ele>283.8</ele><time>2026-07-29T22:04:53Z</time></trkpt>
<trkpt lat="35.144175" lon="-84.95077"><ele>283.8</ele><time>2026-07-29T22:04:55Z</time></trkpt>
<trkpt lat="35.144204" lon="-84.950759"><ele>283.5</ele><time>2026-07-29T22:04:57Z</time></trkpt>
<trkpt lat="35.144233" lon="-84.950747"><ele>282.9</ele><time>2026-07-29T22:04:59Z</time></trkpt>
<trkpt lat="35.144261" lon="-84.950733"><ele>282.9</ele><time>2026-07-29T22:05:01Z</time></trkpt>
<trkpt lat="35.144286" lon="-84.950718"><ele>283.5</ele><time>2026-07-29T22:05:03Z</time></trkpt>
<trkpt lat="35.144315" lon="-84.950699"><ele>282.9</ele><time>2026-07-29T22:05:05Z</time></trkpt>
<trkpt lat="35.14434" lon="-84.950681"><ele>282.5</ele><time>2026-07-29T22:05:07Z</time></trkpt>
<trkpt lat="35.144363" lon="-84.950661"><ele>282.2</ele><time>2026-07-29T22:05:09Z</time></trkpt>
<trkpt lat="35.144384" lon="-84.950636"><ele>282.5</ele><time>2026-07-29T22:05:11Z</time></trkpt>
<trkpt lat="35.144402" lon="-84.950609"><ele>283.2</ele><time>2026-07-29T22:05:13Z</time></trkpt>
<trkpt lat="35.144425" lon="-84.950583"><ele>283.2</ele><time>2026-07-29T22:05:15Z</time></trkpt>
<trkpt lat="35.144445" lon="-84.950559"><ele>283.2</ele><time>2026-07-29T22:05:17Z</time></trkpt>
<trkpt lat="35.144476" lon="-84.950535"><ele>281.6</ele><time>2026-07-29T22:05:20Z</time></trkpt>
<trkpt lat="35.144512" lon="-84.950513"><ele>281.6</ele><time>2026-07-29T22:05:23Z</time></trkpt>
<trkpt lat="35.144541" lon="-84.950482"><ele>281.3</ele><time>2026-07-29T22:05:26Z</time></trkpt>
<trkpt lat="35.144563" lon="-84.950461"><ele>281.0</ele><time>2026-07-29T22:05:28Z</time></trkpt>
<trkpt lat="35.144593" lon="-84.950428"><ele>280.7</ele><time>2026-07-29T22:05:31Z</time></trkpt>
<trkpt lat="35.144616" lon="-84.95039"><ele>280.4</ele><time>2026-07-29T22:05:34Z</time></trkpt>
<trkpt lat="35.144635" lon="-84.950361"><ele>280.4</ele><time>2026-07-29T22:05:36Z</time></trkpt>
<trkpt lat="35.144654" lon="-84.950317"><ele>280.1</ele><time>2026-07-29T22:05:39Z</time></trkpt>
<trkpt lat="35.144657" lon="-84.950282"><ele>279.8</ele><time>2026-07-29T22:05:41Z</time></trkpt>
<trkpt lat="35.144658" lon="-84.950246"><ele>279.5</ele><time>2026-07-29T22:05:43Z</time></trkpt>
<trkpt lat="35.144655" lon="-84.95021"><ele>280.1</ele><time>2026-07-29T22:05:45Z</time></trkpt>
<trkpt lat="35.144645" lon="-84.950177"><ele>280.4</ele><time>2026-07-29T22:05:47Z</time></trkpt>
<trkpt lat="35.144637" lon="-84.950143"><ele>279.8</ele><time>2026-07-29T22:05:49Z</time></trkpt>
<trkpt lat="35.144619" lon="-84.950097"><ele>279.5</ele><time>2026-07-29T22:05:52Z</time></trkpt>
<trkpt lat="35.144605" lon="-84.950064"><ele>280.4</ele><time>2026-07-29T22:05:54Z</time></trkpt>
<trkpt lat="35.144581" lon="-84.950039"><ele>281.0</ele><time>2026-07-29T22:05:56Z</time></trkpt>
<trkpt lat="35.144553" lon="-84.950018"><ele>281.0</ele><time>2026-07-29T22:05:58Z</time></trkpt>
<trkpt lat="35.144523" lon="-84.95001"><ele>281.3</ele><time>2026-07-29T22:06:00Z</time></trkpt>
<trkpt lat="35.144495" lon="-84.950005"><ele>282.2</ele><time>2026-07-29T22:06:02Z</time></trkpt>
<trkpt lat="35.144454" lon="-84.949999"><ele>281.6</ele><time>2026-07-29T22:06:05Z</time></trkpt>
<trkpt lat="35.144426" lon="-84.950006"><ele>281.9</ele><time>2026-07-29T22:06:07Z</time></trkpt>
<trkpt lat="35.144398" lon="-84.950016"><ele>281.9</ele><time>2026-07-29T22:06:09Z</time></trkpt>
<trkpt lat="35.144372" lon="-84.950034"><ele>282.5</ele><time>2026-07-29T22:06:11Z</time></trkpt>
<trkpt lat="35.144351" lon="-84.950056"><ele>283.2</ele><time>2026-07-29T22:06:13Z</time></trkpt>
<trkpt lat="35.14433" lon="-84.95008"><ele>283.5</ele><time>2026-07-29T22:06:15Z</time></trkpt>
<trkpt lat="35.144302" lon="-84.950092"><ele>285.0</ele><time>2026-07-29T22:06:17Z</time></trkpt>
<trkpt lat="35.144274" lon="-84.950103"><ele>285.0</ele><time>2026-07-29T22:06:19Z</time></trkpt>
<trkpt lat="35.144245" lon="-84.950111"><ele>284.1</ele><time>2026-07-29T22:06:21Z</time></trkpt>
<trkpt lat="35.144216" lon="-84.950116"><ele>284.4</ele><time>2026-07-29T22:06:23Z</time></trkpt>
<trkpt lat="35.144187" lon="-84.95013"><ele>283.8</ele><time>2026-07-29T22:06:25Z</time></trkpt>
<trkpt lat="35.144158" lon="-84.950139"><ele>285.0</ele><time>2026-07-29T22:06:27Z</time></trkpt>
<trkpt lat="35.144131" lon="-84.950154"><ele>286.2</ele><time>2026-07-29T22:06:29Z</time></trkpt>
<trkpt lat="35.144105" lon="-84.950168"><ele>287.1</ele><time>2026-07-29T22:06:31Z</time></trkpt>
<trkpt lat="35.14408" lon="-84.950187"><ele>286.8</ele><time>2026-07-29T22:06:33Z</time></trkpt>
<trkpt lat="35.144052" lon="-84.950204"><ele>288.6</ele><time>2026-07-29T22:06:35Z</time></trkpt>
<trkpt lat="35.144028" lon="-84.950225"><ele>288.0</ele><time>2026-07-29T22:06:37Z</time></trkpt>
<trkpt lat="35.144007" lon="-84.950253"><ele>287.4</ele><time>2026-07-29T22:06:39Z</time></trkpt>
<trkpt lat="35.143986" lon="-84.950279"><ele>288.0</ele><time>2026-07-29T22:06:41Z</time></trkpt>
<trkpt lat="35.143956" lon="-84.950312"><ele>289.6</ele><time>2026-07-29T22:06:44Z</time></trkpt>
<trkpt lat="35.143928" lon="-84.950325"><ele>291.1</ele><time>2026-07-29T22:06:46Z</time></trkpt>
<trkpt lat="35.143902" lon="-84.950343"><ele>292.3</ele><time>2026-07-29T22:06:48Z</time></trkpt>
<trkpt lat="35.143876" lon="-84.950354"><ele>292.0</ele><time>2026-07-29T22:06:50Z</time></trkpt>
<trkpt lat="35.143839" lon="-84.950365"><ele>292.6</ele><time>2026-07-29T22:06:53Z</time></trkpt>
<trkpt lat="35.143809" lon="-84.950361"><ele>292.3</ele><time>2026-07-29T22:06:55Z</time></trkpt>
<trkpt lat="35.143774" lon="-84.950348"><ele>289.6</ele><time>2026-07-29T22:06:58Z</time></trkpt>
<trkpt lat="35.143742" lon="-84.950345"><ele>289.0</ele><time>2026-07-29T22:07:01Z</time></trkpt>
<trkpt lat="35.143714" lon="-84.950336"><ele>289.3</ele><time>2026-07-29T22:07:03Z</time></trkpt>
<trkpt lat="35.143673" lon="-84.950333"><ele>289.3</ele><time>2026-07-29T22:07:06Z</time></trkpt>
<trkpt lat="35.143642" lon="-84.950338"><ele>289.6</ele><time>2026-07-29T22:07:08Z</time></trkpt>
<trkpt lat="35.143612" lon="-84.950334"><ele>289.9</ele><time>2026-07-29T22:07:10Z</time></trkpt>
<trkpt lat="35.143583" lon="-84.950334"><ele>290.5</ele><time>2026-07-29T22:07:12Z</time></trkpt>
<trkpt lat="35.143554" lon="-84.950334"><ele>291.4</ele><time>2026-07-29T22:07:14Z</time></trkpt>
<trkpt lat="35.143526" lon="-84.950334"><ele>291.4</ele><time>2026-07-29T22:07:16Z</time></trkpt>
<trkpt lat="35.143497" lon="-84.950337"><ele>290.8</ele><time>2026-07-29T22:07:18Z</time></trkpt>
<trkpt lat="35.143468" lon="-84.95035"><ele>291.1</ele><time>2026-07-29T22:07:20Z</time></trkpt>
<trkpt lat="35.143435" lon="-84.950362"><ele>291.4</ele><time>2026-07-29T22:07:22Z</time></trkpt>
<trkpt lat="35.143396" lon="-84.950374"><ele>292.3</ele><time>2026-07-29T22:07:25Z</time></trkpt>
<trkpt lat="35.143375" lon="-84.950398"><ele>291.7</ele><time>2026-07-29T22:07:27Z</time></trkpt>
<trkpt lat="35.143344" lon="-84.950403"><ele>292.3</ele><time>2026-07-29T22:07:29Z</time></trkpt>
<trkpt lat="35.143315" lon="-84.950407"><ele>294.1</ele><time>2026-07-29T22:07:31Z</time></trkpt>
<trkpt lat="35.143278" lon="-84.950404"><ele>293.5</ele><time>2026-07-29T22:07:34Z</time></trkpt>
<trkpt lat="35.14324" lon="-84.950421"><ele>292.6</ele><time>2026-07-29T22:07:37Z</time></trkpt>
<trkpt lat="35.143212" lon="-84.950436"><ele>292.3</ele><time>2026-07-29T22:07:39Z</time></trkpt>
<trkpt lat="35.143187" lon="-84.950449"><ele>293.5</ele><time>2026-07-29T22:07:41Z</time></trkpt>
<trkpt lat="35.143159" lon="-84.950457"><ele>292.6</ele><time>2026-07-29T22:07:43Z</time></trkpt>
<trkpt lat="35.143131" lon="-84.950465"><ele>292.9</ele><time>2026-07-29T22:07:45Z</time></trkpt>
<trkpt lat="35.143101" lon="-84.950474"><ele>292.0</ele><time>2026-07-29T22:07:47Z</time></trkpt>
<trkpt lat="35.143061" lon="-84.950485"><ele>292.3</ele><time>2026-07-29T22:07:50Z</time></trkpt>
<trkpt lat="35.14303" lon="-84.950485"><ele>292.3</ele><time>2026-07-29T22:07:52Z</time></trkpt>
<trkpt lat="35.142989" lon="-84.950481"><ele>290.8</ele><time>2026-07-29T22:07:55Z</time></trkpt>
<trkpt lat="35.142963" lon="-84.950473"><ele>290.2</ele><time>2026-07-29T22:07:57Z</time></trkpt>
<trkpt lat="35.142929" lon="-84.950461"><ele>288.6</ele><time>2026-07-29T22:08:00Z</time></trkpt>
<trkpt lat="35.14289" lon="-84.950454"><ele>288.0</ele><time>2026-07-29T22:08:03Z</time></trkpt>
<trkpt lat="35.14286" lon="-84.950453"><ele>288.6</ele><time>2026-07-29T22:08:05Z</time></trkpt>
<trkpt lat="35.142832" lon="-84.950455"><ele>289.0</ele><time>2026-07-29T22:08:07Z</time></trkpt>
<trkpt lat="35.142803" lon="-84.950451"><ele>287.4</ele><time>2026-07-29T22:08:09Z</time></trkpt>
<trkpt lat="35.142773" lon="-84.950451"><ele>288.0</ele><time>2026-07-29T22:08:11Z</time></trkpt>
<trkpt lat="35.142747" lon="-84.950466"><ele>290.2</ele><time>2026-07-29T22:08:13Z</time></trkpt>
<trkpt lat="35.142724" lon="-84.950492"><ele>289.0</ele><time>2026-07-29T22:08:15Z</time></trkpt>
<trkpt lat="35.142699" lon="-84.950512"><ele>290.5</ele><time>2026-07-29T22:08:17Z</time></trkpt>
<trkpt lat="35.142675" lon="-84.950536"><ele>289.9</ele><time>2026-07-29T22:08:19Z</time></trkpt>
<trkpt lat="35.142657" lon="-84.950566"><ele>289.3</ele><time>2026-07-29T22:08:21Z</time></trkpt>
<trkpt lat="35.142637" lon="-84.950593"><ele>288.6</ele><time>2026-07-29T22:08:23Z</time></trkpt>
<trkpt lat="35.142617" lon="-84.950615"><ele>289.6</ele><time>2026-07-29T22:08:25Z</time></trkpt>
<trkpt lat="35.142596" lon="-84.950641"><ele>289.3</ele><time>2026-07-29T22:08:27Z</time></trkpt>
<trkpt lat="35.142571" lon="-84.950661"><ele>288.0</ele><time>2026-07-29T22:08:29Z</time></trkpt>
<trkpt lat="35.142534" lon="-84.950684"><ele>289.6</ele><time>2026-07-29T22:08:32Z</time></trkpt>
<trkpt lat="35.142505" lon="-84.9507"><ele>291.1</ele><time>2026-07-29T22:08:34Z</time></trkpt>
<trkpt lat="35.142476" lon="-84.950708"><ele>291.7</ele><time>2026-07-29T22:08:36Z</time></trkpt>
<trkpt lat="35.142439" lon="-84.950729"><ele>290.2</ele><time>2026-07-29T22:08:39Z</time></trkpt>
<trkpt lat="35.142412" lon="-84.950742"><ele>290.2</ele><time>2026-07-29T22:08:41Z</time></trkpt>
<trkpt lat="35.142385" lon="-84.950756"><ele>288.0</ele><time>2026-07-29T22:08:43Z</time></trkpt>
<trkpt lat="35.142359" lon="-84.950773"><ele>287.1</ele><time>2026-07-29T22:08:45Z</time></trkpt>
<trkpt lat="35.142333" lon="-84.95079"><ele>289.3</ele><time>2026-07-29T22:08:47Z</time></trkpt>
<trkpt lat="35.142306" lon="-84.950804"><ele>288.6</ele><time>2026-07-29T22:08:49Z</time></trkpt>
<trkpt lat="35.14228" lon="-84.95082"><ele>289.6</ele><time>2026-07-29T22:08:51Z</time></trkpt>
<trkpt lat="35.142242" lon="-84.950825"><ele>289.0</ele><time>2026-07-29T22:08:54Z</time></trkpt>
<trkpt lat="35.142203" lon="-84.950828"><ele>290.2</ele><time>2026-07-29T22:08:57Z</time></trkpt>
<trkpt lat="35.142173" lon="-84.950834"><ele>291.4</ele><time>2026-07-29T22:08:59Z</time></trkpt>
<trkpt lat="35.142145" lon="-84.950834"><ele>292.6</ele><time>2026-07-29T22:09:01Z</time></trkpt>
<trkpt lat="35.142116" lon="-84.950843"><ele>292.6</ele><time>2026-07-29T22:09:03Z</time></trkpt>
<trkpt lat="35.142089" lon="-84.950854"><ele>292.0</ele><time>2026-07-29T22:09:05Z</time></trkpt>
<trkpt lat="35.142061" lon="-84.950857"><ele>292.0</ele><time>2026-07-29T22:09:07Z</time></trkpt>
<trkpt lat="35.142024" lon="-84.950855"><ele>292.0</ele><time>2026-07-29T22:09:10Z</time></trkpt>
<trkpt lat="35.141996" lon="-84.950854"><ele>291.1</ele><time>2026-07-29T22:09:12Z</time></trkpt>
<trkpt lat="35.141967" lon="-84.950849"><ele>292.0</ele><time>2026-07-29T22:09:14Z</time></trkpt>
<trkpt lat="35.141935" lon="-84.950848"><ele>291.4</ele><time>2026-07-29T22:09:16Z</time></trkpt>
<trkpt lat="35.141905" lon="-84.950864"><ele>291.7</ele><time>2026-07-29T22:09:18Z</time></trkpt>
<trkpt lat="35.14188" lon="-84.95088"><ele>291.4</ele><time>2026-07-29T22:09:20Z</time></trkpt>
<trkpt lat="35.141859" lon="-84.950901"><ele>291.1</ele><time>2026-07-29T22:09:22Z</time></trkpt>
<trkpt lat="35.141832" lon="-84.950914"><ele>290.8</ele><time>2026-07-29T22:09:24Z</time></trkpt>
<trkpt lat="35.141794" lon="-84.950929"><ele>290.5</ele><time>2026-07-29T22:09:27Z</time></trkpt>
<trkpt lat="35.141758" lon="-84.950956"><ele>289.6</ele><time>2026-07-29T22:09:30Z</time></trkpt>
<trkpt lat="35.141735" lon="-84.950973"><ele>288.6</ele><time>2026-07-29T22:09:32Z</time></trkpt>
<trkpt lat="35.14171" lon="-84.950997"><ele>288.6</ele><time>2026-07-29T22:09:35Z</time></trkpt>
<trkpt lat="35.14168" lon="-84.951001"><ele>289.0</ele><time>2026-07-29T22:09:38Z</time></trkpt>
<trkpt lat="35.141643" lon="-84.950996"><ele>289.6</ele><time>2026-07-29T22:09:41Z</time></trkpt>
<trkpt lat="35.141608" lon="-84.950993"><ele>289.0</ele><time>2026-07-29T22:09:44Z</time></trkpt>
<trkpt lat="35.14157" lon="-84.950997"><ele>288.0</ele><time>2026-07-29T22:09:47Z</time></trkpt>
<trkpt lat="35.141531" lon="-84.951013"><ele>288.3</ele><time>2026-07-29T22:09:50Z</time></trkpt>
<trkpt lat="35.141499" lon="-84.951021"><ele>288.3</ele><time>2026-07-29T22:09:52Z</time></trkpt>
<trkpt lat="35.14147" lon="-84.951033"><ele>287.7</ele><time>2026-07-29T22:09:54Z</time></trkpt>
<trkpt lat="35.141439" lon="-84.951049"><ele>288.0</ele><time>2026-07-29T22:09:56Z</time></trkpt>
<trkpt lat="35.141417" lon="-84.951072"><ele>287.1</ele><time>2026-07-29T22:09:58Z</time></trkpt>
<trkpt lat="35.141396" lon="-84.951097"><ele>286.5</ele><time>2026-07-29T22:10:00Z</time></trkpt>
<trkpt lat="35.141372" lon="-84.95112"><ele>288.3</ele><time>2026-07-29T22:10:02Z</time></trkpt>
<trkpt lat="35.141344" lon="-84.951137"><ele>289.3</ele><time>2026-07-29T22:10:04Z</time></trkpt>
<trkpt lat="35.141316" lon="-84.951149"><ele>289.0</ele><time>2026-07-29T22:10:06Z</time></trkpt>
<trkpt lat="35.141283" lon="-84.951161"><ele>289.9</ele><time>2026-07-29T22:10:08Z</time></trkpt>
<trkpt lat="35.141259" lon="-84.951179"><ele>288.3</ele><time>2026-07-29T22:10:10Z</time></trkpt>
<trkpt lat="35.141229" lon="-84.9512"><ele>289.0</ele><time>2026-07-29T22:10:12Z</time></trkpt>
<trkpt lat="35.141198" lon="-84.951204"><ele>290.2</ele><time>2026-07-29T22:10:14Z</time></trkpt>
<trkpt lat="35.141155" lon="-84.951208"><ele>291.1</ele><time>2026-07-29T22:10:17Z</time></trkpt>
<trkpt lat="35.141123" lon="-84.951193"><ele>288.6</ele><time>2026-07-29T22:10:20Z</time></trkpt>
<trkpt lat="35.141094" lon="-84.951161"><ele>287.7</ele><time>2026-07-29T22:10:23Z</time></trkpt>
<trkpt lat="35.141066" lon="-84.95113"><ele>285.9</ele><time>2026-07-29T22:10:26Z</time></trkpt>
<trkpt lat="35.141035" lon="-84.95111"><ele>284.1</ele><time>2026-07-29T22:10:29Z</time></trkpt>
<trkpt lat="35.140994" lon="-84.951103"><ele>283.5</ele><time>2026-07-29T22:10:32Z</time></trkpt>
<trkpt lat="35.140966" lon="-84.951102"><ele>282.9</ele><time>2026-07-29T22:10:34Z</time></trkpt>
<trkpt lat="35.140938" lon="-84.951095"><ele>282.5</ele><time>2026-07-29T22:10:36Z</time></trkpt>
<trkpt lat="35.140905" lon="-84.951103"><ele>281.9</ele><time>2026-07-29T22:10:38Z</time></trkpt>
<trkpt lat="35.140879" lon="-84.951119"><ele>280.7</ele><time>2026-07-29T22:10:40Z</time></trkpt>
<trkpt lat="35.14086" lon="-84.951151"><ele>281.9</ele><time>2026-07-29T22:10:42Z</time></trkpt>
<trkpt lat="35.140843" lon="-84.951186"><ele>283.2</ele><time>2026-07-29T22:10:44Z</time></trkpt>
<trkpt lat="35.140828" lon="-84.951217"><ele>285.3</ele><time>2026-07-29T22:10:46Z</time></trkpt>
<trkpt lat="35.1408" lon="-84.951237"><ele>287.1</ele><time>2026-07-29T22:10:48Z</time></trkpt>
<trkpt lat="35.140771" lon="-84.951249"><ele>288.3</ele><time>2026-07-29T22:10:50Z</time></trkpt>
<trkpt lat="35.140734" lon="-84.951238"><ele>286.8</ele><time>2026-07-29T22:10:53Z</time></trkpt>
<trkpt lat="35.140704" lon="-84.951214"><ele>285.3</ele><time>2026-07-29T22:10:56Z</time></trkpt>
<trkpt lat="35.14067" lon="-84.951197"><ele>285.6</ele><time>2026-07-29T22:10:59Z</time></trkpt>
<trkpt lat="35.140642" lon="-84.951208"><ele>285.0</ele><time>2026-07-29T22:11:01Z</time></trkpt>
<trkpt lat="35.140614" lon="-84.951223"><ele>285.9</ele><time>2026-07-29T22:11:03Z</time></trkpt>
<trkpt lat="35.140583" lon="-84.951232"><ele>285.0</ele><time>2026-07-29T22:11:05Z</time></trkpt>
<trkpt lat="35.140555" lon="-84.951233"><ele>283.5</ele><time>2026-07-29T22:11:07Z</time></trkpt>
<trkpt lat="35.140516" lon="-84.951231"><ele>283.8</ele><time>2026-07-29T22:11:10Z</time></trkpt>
<trkpt lat="35.140478" lon="-84.951242"><ele>285.0</ele><time>2026-07-29T22:11:13Z</time></trkpt>
<trkpt lat="35.140442" lon="-84.951228"><ele>285.0</ele><time>2026-07-29T22:11:16Z</time></trkpt>
<trkpt lat="35.140412" lon="-84.951219"><ele>284.4</ele><time>2026-07-29T22:11:18Z</time></trkpt>
<trkpt lat="35.140385" lon="-84.951207"><ele>282.5</ele><time>2026-07-29T22:11:20Z</time></trkpt>
<trkpt lat="35.140344" lon="-84.951197"><ele>282.9</ele><time>2026-07-29T22:11:23Z</time></trkpt>
<trkpt lat="35.140315" lon="-84.951199"><ele>285.6</ele><time>2026-07-29T22:11:25Z</time></trkpt>
<trkpt lat="35.140287" lon="-84.951204"><ele>285.9</ele><time>2026-07-29T22:11:27Z</time></trkpt>
<trkpt lat="35.140257" lon="-84.95121"><ele>286.5</ele><time>2026-07-29T22:11:29Z</time></trkpt>
<trkpt lat="35.140228" lon="-84.951234"><ele>285.6</ele><time>2026-07-29T22:11:32Z</time></trkpt>
<trkpt lat="35.14021" lon="-84.951276"><ele>285.6</ele><time>2026-07-29T22:11:35Z</time></trkpt>
<trkpt lat="35.14021" lon="-84.951326"><ele>282.2</ele><time>2026-07-29T22:11:38Z</time></trkpt>
<trkpt lat="35.140188" lon="-84.951354"><ele>281.9</ele><time>2026-07-29T22:11:40Z</time></trkpt>
<trkpt lat="35.140168" lon="-84.951379"><ele>281.9</ele><time>2026-07-29T22:11:42Z</time></trkpt>
<trkpt lat="35.14014" lon="-84.951389"><ele>282.9</ele><time>2026-07-29T22:11:44Z</time></trkpt>
<trkpt lat="35.140113" lon="-84.951408"><ele>281.9</ele><time>2026-07-29T22:11:47Z</time></trkpt>
<trkpt lat="35.140102" lon="-84.951441"><ele>282.2</ele><time>2026-07-29T22:11:49Z</time></trkpt>
<trkpt lat="35.140098" lon="-84.95148"><ele>281.6</ele><time>2026-07-29T22:11:51Z</time></trkpt>
<trkpt lat="35.140102" lon="-84.95153"><ele>282.2</ele><time>2026-07-29T22:11:54Z</time></trkpt>
<trkpt lat="35.14008" lon="-84.951571"><ele>282.2</ele><time>2026-07-29T22:11:57Z</time></trkpt>
<trkpt lat="35.140042" lon="-84.951574"><ele>282.9</ele><time>2026-07-29T22:11:59Z</time></trkpt>
<trkpt lat="35.140009" lon="-84.951553"><ele>282.5</ele><time>2026-07-29T22:12:01Z</time></trkpt>
<trkpt lat="35.139983" lon="-84.951527"><ele>282.2</ele><time>2026-07-29T22:12:03Z</time></trkpt>
<trkpt lat="35.13996" lon="-84.951502"><ele>281.6</ele><time>2026-07-29T22:12:05Z</time></trkpt>
<trkpt lat="35.139935" lon="-84.951479"><ele>281.6</ele><time>2026-07-29T22:12:07Z</time></trkpt>
<trkpt lat="35.139914" lon="-84.951454"><ele>280.4</ele><time>2026-07-29T22:12:09Z</time></trkpt>
<trkpt lat="35.1399" lon="-84.951424"><ele>280.7</ele><time>2026-07-29T22:12:11Z</time></trkpt>
<trkpt lat="35.139882" lon="-84.951399"><ele>280.4</ele><time>2026-07-29T22:12:13Z</time></trkpt>
<trkpt lat="35.139848" lon="-84.951372"><ele>281.0</ele><time>2026-07-29T22:12:16Z</time></trkpt>
<trkpt lat="35.139817" lon="-84.951366"><ele>281.9</ele><time>2026-07-29T22:12:18Z</time></trkpt>
<trkpt lat="35.139786" lon="-84.951362"><ele>281.9</ele><time>2026-07-29T22:12:20Z</time></trkpt>
<trkpt lat="35.139759" lon="-84.951367"><ele>283.2</ele><time>2026-07-29T22:12:22Z</time></trkpt>
<trkpt lat="35.139724" lon="-84.95138"><ele>282.5</ele><time>2026-07-29T22:12:25Z</time></trkpt>
<trkpt lat="35.139692" lon="-84.951411"><ele>280.7</ele><time>2026-07-29T22:12:28Z</time></trkpt>
<trkpt lat="35.139657" lon="-84.951432"><ele>281.3</ele><time>2026-07-29T22:12:31Z</time></trkpt>
<trkpt lat="35.13963" lon="-84.951458"><ele>279.2</ele><time>2026-07-29T22:12:34Z</time></trkpt>
<trkpt lat="35.139609" lon="-84.951494"><ele>278.9</ele><time>2026-07-29T22:12:37Z</time></trkpt>
<trkpt lat="35.1396" lon="-84.951542"><ele>278.6</ele><time>2026-07-29T22:12:40Z</time></trkpt>
<trkpt lat="35.139606" lon="-84.951574"><ele>281.0</ele><time>2026-07-29T22:12:42Z</time></trkpt>
<trkpt lat="35.13961" lon="-84.951608"><ele>281.3</ele><time>2026-07-29T22:12:44Z</time></trkpt>
<trkpt lat="35.139605" lon="-84.951645"><ele>282.2</ele><time>2026-07-29T22:12:46Z</time></trkpt>
<trkpt lat="35.139599" lon="-84.951678"><ele>282.5</ele><time>2026-07-29T22:12:48Z</time></trkpt>
<trkpt lat="35.139565" lon="-84.951709"><ele>282.9</ele><time>2026-07-29T22:12:51Z</time></trkpt>
<trkpt lat="35.139533" lon="-84.951716"><ele>282.9</ele><time>2026-07-29T22:12:53Z</time></trkpt>
<trkpt lat="35.139502" lon="-84.951714"><ele>281.9</ele><time>2026-07-29T22:12:55Z</time></trkpt>
<trkpt lat="35.139472" lon="-84.951717"><ele>282.2</ele><time>2026-07-29T22:12:57Z</time></trkpt>
<trkpt lat="35.139441" lon="-84.951713"><ele>281.0</ele><time>2026-07-29T22:12:59Z</time></trkpt>
<trkpt lat="35.139414" lon="-84.9517"><ele>279.2</ele><time>2026-07-29T22:13:01Z</time></trkpt>
<trkpt lat="35.139388" lon="-84.951686"><ele>278.3</ele><time>2026-07-29T22:13:03Z</time></trkpt>
<trkpt lat="35.139354" lon="-84.951658"><ele>276.8</ele><time>2026-07-29T22:13:06Z</time></trkpt>
<trkpt lat="35.139322" lon="-84.951626"><ele>273.7</ele><time>2026-07-29T22:13:09Z</time></trkpt>
<trkpt lat="35.139297" lon="-84.951611"><ele>273.1</ele><time>2026-07-29T22:13:11Z</time></trkpt>
<trkpt lat="35.139268" lon="-84.951609"><ele>272.8</ele><time>2026-07-29T22:13:13Z</time></trkpt>
<trkpt lat="35.139237" lon="-84.951629"><ele>275.2</ele><time>2026-07-29T22:13:16Z</time></trkpt>
<trkpt lat="35.139221" lon="-84.951672"><ele>276.5</ele><time>2026-07-29T22:13:19Z</time></trkpt>
<trkpt lat="35.139206" lon="-84.951714"><ele>275.2</ele><time>2026-07-29T22:13:22Z</time></trkpt>
<trkpt lat="35.139186" lon="-84.951755"><ele>273.1</ele><time>2026-07-29T22:13:25Z</time></trkpt>
<trkpt lat="35.13917" lon="-84.951784"><ele>272.8</ele><time>2026-07-29T22:13:27Z</time></trkpt>
<trkpt lat="35.139149" lon="-84.951806"><ele>271.6</ele><time>2026-07-29T22:13:29Z</time></trkpt>
<trkpt lat="35.139128" lon="-84.951834"><ele>271.6</ele><time>2026-07-29T22:13:31Z</time></trkpt>
<trkpt lat="35.139097" lon="-84.951866"><ele>269.7</ele><time>2026-07-29T22:13:34Z</time></trkpt>
<trkpt lat="35.139068" lon="-84.951878"><ele>267.9</ele><time>2026-07-29T22:13:36Z</time></trkpt>
<trkpt lat="35.139042" lon="-84.95189"><ele>269.1</ele><time>2026-07-29T22:13:38Z</time></trkpt>
<trkpt lat="35.139013" lon="-84.951891"><ele>270.4</ele><time>2026-07-29T22:13:40Z</time></trkpt>
<trkpt lat="35.138984" lon="-84.951874"><ele>271.0</ele><time>2026-07-29T22:13:42Z</time></trkpt>
<trkpt lat="35.138962" lon="-84.951854"><ele>271.9</ele><time>2026-07-29T22:13:44Z</time></trkpt>
<trkpt lat="35.13894" lon="-84.951812"><ele>272.5</ele><time>2026-07-29T22:13:47Z</time></trkpt>
<trkpt lat="35.138925" lon="-84.951782"><ele>273.7</ele><time>2026-07-29T22:13:49Z</time></trkpt>
<trkpt lat="35.138902" lon="-84.951746"><ele>274.0</ele><time>2026-07-29T22:13:52Z</time></trkpt>
<trkpt lat="35.138878" lon="-84.951713"><ele>274.9</ele><time>2026-07-29T22:13:55Z</time></trkpt>
<trkpt lat="35.138844" lon="-84.951686"><ele>278.3</ele><time>2026-07-29T22:13:58Z</time></trkpt>
<trkpt lat="35.138832" lon="-84.95164"><ele>278.6</ele><time>2026-07-29T22:14:01Z</time></trkpt>
<trkpt lat="35.138802" lon="-84.951609"><ele>278.0</ele><time>2026-07-29T22:14:04Z</time></trkpt>
<trkpt lat="35.138778" lon="-84.951588"><ele>276.1</ele><time>2026-07-29T22:14:06Z</time></trkpt>
<trkpt lat="35.138757" lon="-84.951567"><ele>275.5</ele><time>2026-07-29T22:14:08Z</time></trkpt>
<trkpt lat="35.138723" lon="-84.951545"><ele>273.4</ele><time>2026-07-29T22:14:11Z</time></trkpt>
<trkpt lat="35.138684" lon="-84.95153"><ele>272.8</ele><time>2026-07-29T22:14:14Z</time></trkpt>
<trkpt lat="35.138651" lon="-84.951529"><ele>276.5</ele><time>2026-07-29T22:14:17Z</time></trkpt>
<trkpt lat="35.138611" lon="-84.95153"><ele>276.5</ele><time>2026-07-29T22:14:20Z</time></trkpt>
<trkpt lat="35.138574" lon="-84.951515"><ele>276.5</ele><time>2026-07-29T22:14:23Z</time></trkpt>
<trkpt lat="35.138546" lon="-84.951507"><ele>277.1</ele><time>2026-07-29T22:14:25Z</time></trkpt>
<trkpt lat="35.138506" lon="-84.951496"><ele>276.1</ele><time>2026-07-29T22:14:28Z</time></trkpt>
<trkpt lat="35.13848" lon="-84.951484"><ele>275.8</ele><time>2026-07-29T22:14:30Z</time></trkpt>
<trkpt lat="35.13845" lon="-84.951485"><ele>278.9</ele><time>2026-07-29T22:14:32Z</time></trkpt>
<trkpt lat="35.138409" lon="-84.951487"><ele>275.5</ele><time>2026-07-29T22:14:35Z</time></trkpt>
<trkpt lat="35.138372" lon="-84.951483"><ele>274.9</ele><time>2026-07-29T22:14:38Z</time></trkpt>
<trkpt lat="35.138344" lon="-84.951478"><ele>273.7</ele><time>2026-07-29T22:14:40Z</time></trkpt>
<trkpt lat="35.138304" lon="-84.951479"><ele>274.0</ele><time>2026-07-29T22:14:43Z</time></trkpt>
<trkpt lat="35.138278" lon="-84.951494"><ele>273.1</ele><time>2026-07-29T22:14:45Z</time></trkpt>
<trkpt lat="35.138253" lon="-84.951509"><ele>273.4</ele><time>2026-07-29T22:14:47Z</time></trkpt>
<trkpt lat="35.138232" lon="-84.951545"><ele>270.4</ele><time>2026-07-29T22:14:50Z</time></trkpt>
<trkpt lat="35.138234" lon="-84.951585"><ele>270.1</ele><time>2026-07-29T22:14:52Z</time></trkpt>
<trkpt lat="35.138241" lon="-84.95162"><ele>270.4</ele><time>2026-07-29T22:14:54Z</time></trkpt>
<trkpt lat="35.138257" lon="-84.951652"><ele>270.1</ele><time>2026-07-29T22:14:56Z</time></trkpt>
<trkpt lat="35.138271" lon="-84.951696"><ele>271.0</ele><time>2026-07-29T22:14:59Z</time></trkpt>
<trkpt lat="35.138282" lon="-84.951741"><ele>269.7</ele><time>2026-07-29T22:15:02Z</time></trkpt>
<trkpt lat="35.138285" lon="-84.951787"><ele>269.4</ele><time>2026-07-29T22:15:05Z</time></trkpt>
<trkpt lat="35.138296" lon="-84.951832"><ele>270.1</ele><time>2026-07-29T22:15:08Z</time></trkpt>
<trkpt lat="35.138325" lon="-84.951866"><ele>268.2</ele><time>2026-07-29T22:15:11Z</time></trkpt>
<trkpt lat="35.138355" lon="-84.951894"><ele>269.7</ele><time>2026-07-29T22:15:14Z</time></trkpt>
<trkpt lat="35.13838" lon="-84.951914"><ele>270.7</ele><time>2026-07-29T22:15:16Z</time></trkpt>
<trkpt lat="35.138406" lon="-84.951925"><ele>270.7</ele><time>2026-07-29T22:15:18Z</time></trkpt>
<trkpt lat="35.138439" lon="-84.951945"><ele>272.5</ele><time>2026-07-29T22:15:21Z</time></trkpt>
<trkpt lat="35.138476" lon="-84.951954"><ele>272.5</ele><time>2026-07-29T22:15:24Z</time></trkpt>
<trkpt lat="35.138501" lon="-84.951969"><ele>272.5</ele><time>2026-07-29T22:15:26Z</time></trkpt>
<trkpt lat="35.13854" lon="-84.951981"><ele>271.9</ele><time>2026-07-29T22:15:29Z</time></trkpt>
<trkpt lat="35.138567" lon="-84.95199"><ele>273.4</ele><time>2026-07-29T22:15:31Z</time></trkpt>
<trkpt lat="35.138605" lon="-84.952005"><ele>273.7</ele><time>2026-07-29T22:15:34Z</time></trkpt>
<trkpt lat="35.138633" lon="-84.952014"><ele>273.7</ele><time>2026-07-29T22:15:36Z</time></trkpt>
<trkpt lat="35.138667" lon="-84.952039"><ele>274.3</ele><time>2026-07-29T22:15:39Z</time></trkpt>
<trkpt lat="35.138688" lon="-84.952061"><ele>274.9</ele><time>2026-07-29T22:15:41Z</time></trkpt>
<trkpt lat="35.138705" lon="-84.952088"><ele>274.3</ele><time>2026-07-29T22:15:43Z</time></trkpt>
<trkpt lat="35.138727" lon="-84.952109"><ele>274.3</ele><time>2026-07-29T22:15:45Z</time></trkpt>
<trkpt lat="35.138749" lon="-84.952133"><ele>273.4</ele><time>2026-07-29T22:15:47Z</time></trkpt>
<trkpt lat="35.138772" lon="-84.952161"><ele>273.4</ele><time>2026-07-29T22:15:49Z</time></trkpt>
<trkpt lat="35.138786" lon="-84.952193"><ele>273.1</ele><time>2026-07-29T22:15:51Z</time></trkpt>
<trkpt lat="35.138775" lon="-84.952229"><ele>273.4</ele><time>2026-07-29T22:15:53Z</time></trkpt>
<trkpt lat="35.138743" lon="-84.952261"><ele>273.7</ele><time>2026-07-29T22:15:55Z</time></trkpt>
<trkpt lat="35.13872" lon="-84.952286"><ele>271.9</ele><time>2026-07-29T22:15:58Z</time></trkpt>
<trkpt lat="35.138693" lon="-84.952322"><ele>271.3</ele><time>2026-07-29T22:16:02Z</time></trkpt>
<trkpt lat="35.138664" lon="-84.952341"><ele>271.6</ele><time>2026-07-29T22:16:04Z</time></trkpt>
<trkpt lat="35.138634" lon="-84.95236"><ele>271.6</ele><time>2026-07-29T22:16:06Z</time></trkpt>
<trkpt lat="35.138601" lon="-84.95237"><ele>272.5</ele><time>2026-07-29T22:16:08Z</time></trkpt>
<trkpt lat="35.13857" lon="-84.952378"><ele>271.6</ele><time>2026-07-29T22:16:10Z</time></trkpt>
<trkpt lat="35.138542" lon="-84.952387"><ele>271.0</ele><time>2026-07-29T22:16:12Z</time></trkpt>
<trkpt lat="35.138514" lon="-84.952386"><ele>271.9</ele><time>2026-07-29T22:16:14Z</time></trkpt>
<trkpt lat="35.13848" lon="-84.952376"><ele>273.4</ele><time>2026-07-29T22:16:17Z</time></trkpt>
<trkpt lat="35.138454" lon="-84.952364"><ele>273.7</ele><time>2026-07-29T22:16:19Z</time></trkpt>
<trkpt lat="35.138424" lon="-84.952366"><ele>274.0</ele><time>2026-07-29T22:16:21Z</time></trkpt>
<trkpt lat="35.138396" lon="-84.952363"><ele>273.4</ele><time>2026-07-29T22:16:23Z</time></trkpt>
<trkpt lat="35.138367" lon="-84.952361"><ele>274.0</ele><time>2026-07-29T22:16:25Z</time></trkpt>
<trkpt lat="35.138337" lon="-84.952363"><ele>274.0</ele><time>2026-07-29T22:16:27Z</time></trkpt>
<trkpt lat="35.138302" lon="-84.952364"><ele>274.0</ele><time>2026-07-29T22:16:29Z</time></trkpt>
<trkpt lat="35.138269" lon="-84.952364"><ele>275.8</ele><time>2026-07-29T22:16:31Z</time></trkpt>
<trkpt lat="35.13823" lon="-84.952353"><ele>276.1</ele><time>2026-07-29T22:16:34Z</time></trkpt>
<trkpt lat="35.138206" lon="-84.952336"><ele>275.5</ele><time>2026-07-29T22:16:36Z</time></trkpt>
<trkpt lat="35.138177" lon="-84.952303"><ele>275.2</ele><time>2026-07-29T22:16:39Z</time></trkpt>
<trkpt lat="35.138146" lon="-84.952274"><ele>275.2</ele><time>2026-07-29T22:16:42Z</time></trkpt>
<trkpt lat="35.138122" lon="-84.952254"><ele>276.1</ele><time>2026-07-29T22:16:44Z</time></trkpt>
<trkpt lat="35.138097" lon="-84.952235"><ele>276.5</ele><time>2026-07-29T22:16:46Z</time></trkpt>
<trkpt lat="35.138075" lon="-84.952208"><ele>276.8</ele><time>2026-07-29T22:16:48Z</time></trkpt>
<trkpt lat="35.138056" lon="-84.952184"><ele>276.8</ele><time>2026-07-29T22:16:50Z</time></trkpt>
<trkpt lat="35.138032" lon="-84.952147"><ele>277.1</ele><time>2026-07-29T22:16:53Z</time></trkpt>
<trkpt lat="35.138013" lon="-84.952105"><ele>277.1</ele><time>2026-07-29T22:16:56Z</time></trkpt>
<trkpt lat="35.137992" lon="-84.952083"><ele>277.4</ele><time>2026-07-29T22:16:58Z</time></trkpt>
<trkpt lat="35.137969" lon="-84.952061"><ele>278.0</ele><time>2026-07-29T22:17:00Z</time></trkpt>
<trkpt lat="35.137943" lon="-84.952044"><ele>277.1</ele><time>2026-07-29T22:17:02Z</time></trkpt>
<trkpt lat="35.137905" lon="-84.952024"><ele>275.8</ele><time>2026-07-29T22:17:05Z</time></trkpt>
<trkpt lat="35.137871" lon="-84.951992"><ele>275.5</ele><time>2026-07-29T22:17:08Z</time></trkpt>
<trkpt lat="35.137846" lon="-84.951975"><ele>276.5</ele><time>2026-07-29T22:17:10Z</time></trkpt>
<trkpt lat="35.137822" lon="-84.951957"><ele>276.8</ele><time>2026-07-29T22:17:12Z</time></trkpt>
<trkpt lat="35.137798" lon="-84.951936"><ele>276.8</ele><time>2026-07-29T22:17:14Z</time></trkpt>
<trkpt lat="35.137774" lon="-84.951918"><ele>276.1</ele><time>2026-07-29T22:17:16Z</time></trkpt>
<trkpt lat="35.137742" lon="-84.951892"><ele>275.8</ele><time>2026-07-29T22:17:19Z</time></trkpt>
<trkpt lat="35.13771" lon="-84.951867"><ele>275.8</ele><time>2026-07-29T22:17:22Z</time></trkpt>
<trkpt lat="35.137687" lon="-84.951832"><ele>274.3</ele><time>2026-07-29T22:17:25Z</time></trkpt>
<trkpt lat="35.137663" lon="-84.951794"><ele>274.0</ele><time>2026-07-29T22:17:28Z</time></trkpt>
<trkpt lat="35.137641" lon="-84.951772"><ele>273.1</ele><time>2026-07-29T22:17:30Z</time></trkpt>
<trkpt lat="35.137622" lon="-84.951745"><ele>272.8</ele><time>2026-07-29T22:17:32Z</time></trkpt>
<trkpt lat="35.137594" lon="-84.951732"><ele>272.8</ele><time>2026-07-29T22:17:34Z</time></trkpt>
<trkpt lat="35.13756" lon="-84.951732"><ele>271.9</ele><time>2026-07-29T22:17:36Z</time></trkpt>
<trkpt lat="35.137538" lon="-84.951706"><ele>271.3</ele><time>2026-07-29T22:17:38Z</time></trkpt>
<trkpt lat="35.137524" lon="-84.951665"><ele>270.4</ele><time>2026-07-29T22:17:40Z</time></trkpt>
<trkpt lat="35.137519" lon="-84.951618"><ele>272.2</ele><time>2026-07-29T22:17:42Z</time></trkpt>
<trkpt lat="35.137516" lon="-84.951578"><ele>273.4</ele><time>2026-07-29T22:17:44Z</time></trkpt>
<trkpt lat="35.137507" lon="-84.951544"><ele>273.4</ele><time>2026-07-29T22:17:46Z</time></trkpt>
<trkpt lat="35.137492" lon="-84.951511"><ele>273.4</ele><time>2026-07-29T22:17:48Z</time></trkpt>
<trkpt lat="35.137476" lon="-84.951481"><ele>272.5</ele><time>2026-07-29T22:17:50Z</time></trkpt>
<trkpt lat="35.137459" lon="-84.951453"><ele>270.7</ele><time>2026-07-29T22:17:52Z</time></trkpt>
<trkpt lat="35.137439" lon="-84.951429"><ele>270.1</ele><time>2026-07-29T22:17:54Z</time></trkpt>
<trkpt lat="35.137413" lon="-84.951413"><ele>268.8</ele><time>2026-07-29T22:17:56Z</time></trkpt>
<trkpt lat="35.137386" lon="-84.951398"><ele>269.1</ele><time>2026-07-29T22:17:58Z</time></trkpt>
<trkpt lat="35.137355" lon="-84.951403"><ele>270.1</ele><time>2026-07-29T22:18:00Z</time></trkpt>
<trkpt lat="35.137331" lon="-84.951424"><ele>271.9</ele><time>2026-07-29T22:18:02Z</time></trkpt>
<trkpt lat="35.137302" lon="-84.95145"><ele>271.3</ele><time>2026-07-29T22:18:05Z</time></trkpt>
<trkpt lat="35.137278" lon="-84.951486"><ele>271.3</ele><time>2026-07-29T22:18:08Z</time></trkpt>
<trkpt lat="35.137257" lon="-84.951529"><ele>270.7</ele><time>2026-07-29T22:18:11Z</time></trkpt>
<trkpt lat="35.13724" lon="-84.951557"><ele>270.4</ele><time>2026-07-29T22:18:13Z</time></trkpt>
<trkpt lat="35.137231" lon="-84.95159"><ele>268.8</ele><time>2026-07-29T22:18:15Z</time></trkpt>
<trkpt lat="35.137228" lon="-84.951626"><ele>268.8</ele><time>2026-07-29T22:18:17Z</time></trkpt>
<trkpt lat="35.137227" lon="-84.951672"><ele>269.7</ele><time>2026-07-29T22:18:20Z</time></trkpt>
<trkpt lat="35.137258" lon="-84.951703"><ele>271.3</ele><time>2026-07-29T22:18:23Z</time></trkpt>
<trkpt lat="35.137269" lon="-84.951703"><ele>271.0</ele><time>2026-07-29T22:18:24Z</time></trkpt>
</trkseg></trk></gpx>